[[{"header":{"parameterUnit":"m.s-1","parameterCategory":1,"la1":31.0,"la2":29.5877,"lo1":-88.7671,"lo2":-86.6584,"dy":0.0162,"dx":0.0185,"nx":115,"ny":88,"refTime":"2023-06-05T18:00:00:Z","depth":0,"parameterNumber":2,"parameterNumberName":"U-component_of_WINDS"},"data":[0.0,0.0,0.0,0.0,0.0,0.0,0.0,0.0,0.0,0.0,0.0,0.0,0.0,0.0,0.0,0.0,0.0,0.0,0.0,0.0,0.0,0.0,0.0,0.0,0.0,0.0,0.0,0.0,0.0,0.0,0.0,0.0,0.0,0.0,0.0,0.0,0.0,0.0,0.0,0.0,0.0,0.0,0.0,0.0,0.0,0.0,0.0,0.0,0.0,0.0,0.0,0.0,0.0,0.0,0.0,0.0,0.0,0.0,0.0,0.0,0.0,0.0,0.0,0.0,0.0,0.0,0.0,0.0,0.0,0.0,0.0,0.0,0.0,0.0,0.0,0.0,0.0,0.0,0.0,0.0,0.0,0.0,0.0,0.0,0.0,0.0,0.0,0.0,0.0,0.0,0.0,0.0,0.0,0.0,0.0,0.0,0.0,0.0,0.0,0.0,0.0,0.0,0.0,0.0,0.0,0.0,0.0,0.0,0.0,0.0,0.0,0.0,0.0,0.0,0.0,0.0,0.0,0.0,0.0,0.0,0.0,0.0,0.0,0.0,0.0,0.0,0.0,0.0,0.0,0.0,0.0,0.0,0.0,0.0,0.0,0.0,0.0,0.0,0.0,0.0,0.0,0.0,0.0,0.0,0.0,0.0,0.0,0.0,0.0,0.0,0.0,0.0,0.0,0.0,0.0,0.0,0.0,0.0,0.0,0.0,0.0,0.0,0.0,0.0,0.0,0.0,0.0,0.0,0.0,0.0,0.0,0.0,0.0,0.0,0.0,0.0,0.0,0.0,0.0,0.0,0.0,0.0,0.0,0.0,0.0,0.0,0.0,0.0,0.0,0.0,0.0,0.0,0.0,0.0,0.0,0.0,0.0,0.0,0.0,0.0,0.0,0.0,0.0,0.0,0.0,0.0,0.0,0.0,0.0,0.0,0.0,0.0,0.0,0.0,0.0,0.0,0.0,0.0,0.0,0.0,0.0,0.0,0.0,0.0,0.0,0.0,0.0,0.0,0.0,0.0,0.0,0.0,0.0,0.0,0.0,0.0,0.0,0.0,0.0,0.0,0.0,0.0,0.0,0.0,0.0,0.0,0.0,0.0,0.0,0.0,0.0,0.0,0.0,0.0,0.0,0.0,0.0,0.0,0.0,0.0,0.0,0.0,0.0,0.0,0.0,0.0,0.0,0.0,0.0,0.0,0.0,0.0,0.0,0.0,0.0,0.0,0.0,0.0,0.0,0.0,0.0,0.0,0.0,0.0,0.0,0.0,0.0,0.0,0.0,0.0,0.0,0.0,0.0,0.0,0.0,0.0,0.0,0.0,0.0,0.0,0.0,0.0,0.0,0.0,0.0,0.0,0.0,0.0,0.0,0.0,0.0,0.0,0.0,0.0,0.0,0.0,0.0,0.0,0.0,0.0,0.0,0.0,0.0,0.0,0.0,0.0,0.0,0.0,0.0,0.0,0.0,0.0,0.0,0.0,0.0,0.0,0.0,0.0,0.0,0.0,0.0,0.0,0.0,0.0,0.0,0.0,0.0,0.0,0.0,0.0,0.0,0.0,0.0,0.0,0.0,0.0,0.0,0.0,0.0,0.0,0.0,0.0,0.0,0.0,0.0,0.0,0.0,0.0,0.0,0.0,0.0,0.0,0.0,0.0,0.0,0.0,0.0,0.0,0.0,0.0,0.0,0.0,0.0,0.0,0.0,0.0,0.0,0.0,0.0,0.0,0.0,0.0,0.0,0.0,0.0,0.0,0.0,0.0,0.0,0.0,0.0,0.0,0.0,0.0,0.0,0.0,0.0,0.0,0.0,0.0,0.0,0.0,0.0,0.0,0.0,0.0,0.0,0.0,0.0,0.0,0.0,0.0,0.0,0.0,0.0,0.0,0.0,0.0,0.0,0.0,0.0,0.0,0.0,0.0,0.0,0.0,0.0,0.0,0.0,0.0,0.0,0.0,0.0,0.0,0.0,0.0,0.0,0.0,0.0,0.0,0.0,0.0,0.0,0.0,0.0,0.0,0.0,0.0,0.0,0.0,0.0,0.0,0.0,0.0,0.0,0.0,0.0,0.0,0.0,0.0,0.0,0.0,0.0,0.0,0.0,0.0,0.0,0.0,0.0,0.0,0.0,0.0,0.0,0.0,0.0,0.0,0.0,0.0,0.0,0.0,0.0,0.0,0.0,0.0,0.0,0.0,0.0,0.0,0.0,0.0,0.0,0.0,0.0,0.0,0.0,0.0,0.0,0.0,0.0,0.0,0.0,0.0,0.0,0.0,0.0,0.0,0.0,0.0,0.0,0.0,0.0,0.0,0.0,0.0,0.0,0.0,0.0,0.0,0.0,0.0,0.0,0.0,0.0,0.0,0.0,0.0,0.0,0.0,0.0,0.0,0.0,0.0,0.0,0.0,0.0,0.0,0.0,0.0,0.0,0.0,0.0,0.0,0.0,0.0,0.0,0.0,0.0,0.0,0.0,0.0,0.0,0.0,0.0,0.0,0.0,0.0,0.0,0.0,0.0,0.0,0.0,0.0,0.0,0.0,0.0,0.0,0.0,0.0,0.0,0.0,0.0,0.0,0.0,0.0,0.0,0.0,0.0,0.0,0.0,0.0,0.0,0.0,0.0,0.0,0.0,0.0,0.0,0.0,0.0,0.0,0.0,0.0,0.0,0.0,0.0,0.0,0.0,0.0,0.0,0.0,0.0,0.0,0.0,0.0,0.0,0.0,0.0,0.0,0.0,0.0,0.0,0.0,0.0,0.0,0.0,0.0,0.0,0.0,0.0,0.0,0.0,0.0,0.0,0.0,0.0,0.0,0.0,0.0,0.0,0.0,0.0,0.0,0.0,0.0,0.0,0.0,0.0,0.0,0.0,0.0,0.0,0.0,0.0,0.0,0.0,0.0,0.0,0.0,0.0,0.0,0.0,0.0,0.0,0.0,0.0,0.0,0.0,0.0,0.0,0.0,0.0,0.0,0.0,0.0,0.0,0.0,0.0,0.0,0.0,0.0,0.0,0.0,0.0,0.0,0.0,0.0,0.0,0.0,0.0,0.0,0.0,0.0,0.0,0.0,0.0,0.0,0.0,0.0,0.0,0.0,0.0,0.0,0.0,0.0,0.0,0.0,0.0,0.0,0.0,0.0,0.0,0.0,0.0,0.0,0.0,0.0,0.0,0.0,0.0,0.0,0.0,0.0,0.0,0.0,0.0,0.0,0.0,0.0,0.0,0.0,0.0,0.0,0.0,0.0,0.0,0.0,0.0,0.0,0.0,0.0,0.0,0.0,0.0,0.0,0.0,0.0,0.0,0.0,0.0,0.0,0.0,0.0,0.0,0.0,0.0,0.0,0.0,0.0,0.0,0.0,0.0,0.0,0.0,0.0,0.0,0.0,0.0,0.0,0.0,0.0,0.0,0.0,0.0,0.0,0.0,0.0,0.0,0.0,0.0,0.0,0.0,0.0,0.0,0.0,0.0,0.0,0.0,0.0,0.0,0.0,0.0,0.0,0.0,0.0,0.0,0.0,0.0,0.0,0.0,0.0,0.0,0.0,0.0,0.0,0.0,0.0,0.0,0.0,0.0,0.0,0.0,0.0,0.0,0.0,0.0,0.0,0.0,0.0,0.0,0.0,0.0,0.0,0.0,0.0,0.0,0.0,0.0,0.0,0.0,0.0,0.0,0.0,0.0,0.0,0.0,0.0,0.0,0.0,0.0,0.0,0.0,0.0,0.0,0.0,0.0,0.0,0.0,0.0,0.0,0.0,0.0,0.0,0.0,0.0,0.0,0.0,0.0,0.0,0.0,0.0,0.0,0.0,0.0,0.0,0.0,0.0,0.0,0.0,0.0,0.0,0.0,0.0,0.0,0.0,0.0,0.0,0.0,0.0,0.0,0.0,0.0,0.0,0.0,0.0,0.0,0.0,0.0,0.0,0.0,0.0,0.0,0.0,0.0,0.0,0.0,0.0,0.0,0.0,0.0,0.0,0.0,0.0,0.0,0.0,0.0,0.0,0.0,0.0,0.0,0.0,0.0,0.0,0.0,0.0,0.0,0.0,0.0,0.0,0.0,0.0,0.0,0.0,0.0,0.0,0.0,0.0,0.0,0.0,0.0,0.0,0.0,0.0,0.0,0.0,0.0,0.0,0.0,0.0,0.0,0.0,0.0,0.0,0.0,0.0,0.0,0.0,0.0,0.0,0.0,0.0,0.0,0.0,0.0,0.0,0.0,0.0,0.0,0.0,0.0,0.0,0.0,0.0,0.0,0.0,0.0,0.0,-2.1496,0.0,0.0,0.0,0.0,0.0,0.0,0.0,0.0,0.0,0.0,0.0,0.0,0.0,0.0,0.0,0.0,0.0,0.0,0.0,0.0,0.0,0.0,0.0,0.0,0.0,0.0,0.0,0.0,0.0,0.0,0.0,0.0,0.0,0.0,0.0,0.0,0.0,0.0,0.0,0.0,0.0,0.0,0.0,0.0,0.0,0.0,0.0,0.0,0.0,0.0,0.0,0.0,0.0,0.0,0.0,0.0,0.0,0.0,0.0,0.0,0.0,0.0,0.0,0.0,0.0,0.0,0.0,0.0,0.0,0.0,0.0,0.0,0.0,0.0,0.0,0.0,0.0,0.0,0.0,0.0,0.0,0.0,0.0,0.0,0.0,0.0,0.0,0.0,0.0,0.0,0.0,0.0,0.0,0.0,0.0,0.0,0.0,0.0,0.0,0.0,0.0,0.0,0.0,0.0,0.0,0.0,0.0,0.0,0.0,0.0,-2.3104,-2.3096,-2.2708,-2.2491,-2.2431,0.0,0.0,0.0,0.0,0.0,0.0,0.0,0.0,0.0,0.0,0.0,0.0,0.0,0.0,0.0,0.0,0.0,0.0,0.0,0.0,0.0,0.0,0.0,0.0,0.0,0.0,0.0,0.0,0.0,0.0,0.0,0.0,0.0,0.0,0.0,0.0,0.0,0.0,0.0,0.0,0.0,0.0,0.0,0.0,0.0,0.0,0.0,0.0,0.0,0.0,0.0,0.0,0.0,0.0,0.0,0.0,0.0,0.0,0.0,0.0,0.0,0.0,0.0,0.0,0.0,0.0,0.0,0.0,0.0,0.0,0.0,0.0,0.0,0.0,0.0,0.0,0.0,0.0,0.0,0.0,0.0,0.0,0.0,0.0,0.0,0.0,0.0,0.0,0.0,0.0,0.0,0.0,0.0,0.0,0.0,0.0,0.0,0.0,0.0,0.0,0.0,0.0,0.0,0.0,0.0,0.0,0.0,0.0,0.0,0.0,0.0,0.0,-2.3489,-2.3207,-2.281,0.0,0.0,0.0,0.0,0.0,0.0,0.0,0.0,0.0,0.0,0.0,0.0,0.0,0.0,0.0,0.0,0.0,0.0,0.0,0.0,0.0,0.0,0.0,0.0,0.0,0.0,0.0,0.0,0.0,0.0,0.0,0.0,0.0,0.0,0.0,0.0,0.0,0.0,0.0,0.0,0.0,0.0,0.0,0.0,0.0,0.0,0.0,0.0,0.0,0.0,0.0,0.0,0.0,0.0,0.0,0.0,0.0,0.0,0.0,0.0,0.0,0.0,0.0,0.0,0.0,0.0,0.0,0.0,0.0,0.0,0.0,0.0,0.0,0.0,0.0,0.0,0.0,0.0,0.0,0.0,0.0,0.0,0.0,0.0,0.0,0.0,0.0,0.0,0.0,0.0,0.0,0.0,0.0,0.0,0.0,0.0,0.0,0.0,0.0,0.0,0.0,0.0,0.0,0.0,0.0,0.0,0.0,0.0,0.0,0.0,-2.5468,-2.5449,-2.4705,0.0,-2.207,0.0,0.0,0.0,0.0,0.0,0.0,0.0,0.0,0.0,0.0,0.0,0.0,0.0,0.0,0.0,0.0,0.0,0.0,0.0,0.0,0.0,0.0,0.0,0.0,0.0,0.0,0.0,0.0,0.0,0.0,0.0,0.0,0.0,0.0,0.0,0.0,0.0,0.0,0.0,0.0,0.0,0.0,0.0,0.0,0.0,0.0,0.0,0.0,0.0,0.0,0.0,0.0,0.0,0.0,0.0,0.0,0.0,0.0,0.0,0.0,0.0,0.0,0.0,0.0,0.0,0.0,0.0,0.0,0.0,0.0,0.0,0.0,0.0,0.0,0.0,0.0,0.0,0.0,0.0,0.0,0.0,0.0,0.0,0.0,0.0,0.0,0.0,0.0,0.0,0.0,0.0,0.0,0.0,0.0,0.0,0.0,0.0,0.0,0.0,0.0,0.0,0.0,0.0,0.0,0.0,0.0,0.0,0.0,0.0,0.0,-2.5936,-2.6463,-2.6131,-2.4899,0.0,0.0,0.0,0.0,0.0,0.0,0.0,0.0,0.0,0.0,0.0,0.0,0.0,0.0,0.0,0.0,0.0,0.0,0.0,0.0,0.0,0.0,0.0,0.0,0.0,0.0,0.0,0.0,0.0,0.0,0.0,0.0,0.0,0.0,0.0,0.0,0.0,0.0,0.0,0.0,0.0,0.0,0.0,0.0,0.0,0.0,0.0,0.0,0.0,0.0,0.0,0.0,0.0,0.0,0.0,0.0,0.0,0.0,0.0,0.0,0.0,0.0,0.0,0.0,0.0,0.0,0.0,0.0,0.0,0.0,0.0,0.0,0.0,0.0,0.0,0.0,0.0,0.0,0.0,0.0,0.0,0.0,0.0,0.0,0.0,0.0,0.0,0.0,0.0,0.0,0.0,0.0,0.0,0.0,0.0,0.0,0.0,0.0,0.0,0.0,0.0,0.0,0.0,0.0,0.0,0.0,0.0,0.0,0.0,0.0,-2.5936,-2.6366,-2.6968,-2.7002,-2.5764,-2.3198,0.0,0.0,0.0,0.0,0.0,0.0,0.0,0.0,0.0,0.0,0.0,0.0,0.0,0.0,0.0,0.0,0.0,0.0,0.0,0.0,0.0,0.0,0.0,0.0,0.0,0.0,0.0,0.0,0.0,0.0,0.0,0.0,0.0,0.0,0.0,0.0,0.0,0.0,0.0,0.0,0.0,0.0,0.0,0.0,0.0,0.0,0.0,0.0,0.0,0.0,0.0,0.0,0.0,0.0,0.0,0.0,0.0,0.0,0.0,0.0,0.0,0.0,0.0,0.0,0.0,0.0,0.0,0.0,0.0,0.0,0.0,0.0,0.0,0.0,0.0,0.0,0.0,0.0,0.0,0.0,0.0,0.0,0.0,0.0,0.0,0.0,0.0,0.0,0.0,0.0,0.0,0.0,0.0,0.0,0.0,0.0,0.0,0.0,0.0,0.0,0.0,0.0,0.0,0.0,0.0,0.0,0.0,0.0,-2.5664,-2.6503,-2.6971,-2.7009,-2.7016,-2.5772,0.0,0.0,0.0,0.0,0.0,0.0,0.0,0.0,0.0,0.0,0.0,0.0,0.0,0.0,0.0,0.0,0.0,0.0,0.0,0.0,0.0,0.0,0.0,0.0,0.0,0.0,0.0,0.0,0.0,0.0,0.0,0.0,0.0,0.0,0.0,0.0,0.0,0.0,0.0,0.0,0.0,0.0,0.0,0.0,0.0,0.0,0.0,0.0,0.0,0.0,0.0,0.0,0.0,0.0,0.0,0.0,0.0,0.0,0.0,0.0,0.0,0.0,0.0,0.0,0.0,0.0,0.0,0.0,0.0,0.0,0.0,0.0,0.0,0.0,0.0,0.0,0.0,0.0,0.0,0.0,0.0,0.0,0.0,0.0,0.0,0.0,0.0,0.0,0.0,0.0,0.0,0.0,0.0,0.0,0.0,0.0,0.0,0.0,0.0,0.0,0.0,0.0,0.0,0.0,0.0,0.0,0.0,0.0,0.0,-2.5643,-2.709,-2.7557,-2.7044,-2.7525,-2.6342,0.0,0.0,0.0,0.0,0.0,0.0,0.0,0.0,0.0,0.0,0.0,0.0,0.0,0.0,0.0,0.0,0.0,0.0,0.0,0.0,0.0,0.0,0.0,0.0,0.0,0.0,0.0,0.0,0.0,0.0,0.0,0.0,0.0,0.0,0.0,0.0,0.0,0.0,0.0,0.0,0.0,0.0,0.0,0.0,0.0,0.0,0.0,0.0,0.0,0.0,0.0,0.0,0.0,0.0,0.0,0.0,0.0,0.0,0.0,0.0,0.0,0.0,0.0,0.0,0.0,0.0,0.0,0.0,0.0,0.0,0.0,0.0,0.0,0.0,0.0,0.0,0.0,0.0,0.0,0.0,0.0,0.0,0.0,0.0,0.0,0.0,0.0,0.0,0.0,0.0,0.0,0.0,0.0,0.0,0.0,0.0,0.0,0.0,0.0,0.0,0.0,0.0,0.0,0.0,0.0,0.0,0.0,0.0,0.0,-2.6481,0.0,-2.8437,-2.7887,-2.8135,-2.6815,0.0,0.0,0.0,0.0,0.0,0.0,0.0,0.0,0.0,0.0,0.0,0.0,0.0,0.0,0.0,0.0,0.0,0.0,0.0,0.0,0.0,0.0,0.0,0.0,0.0,0.0,0.0,0.0,0.0,0.0,0.0,0.0,0.0,0.0,0.0,0.0,0.0,0.0,0.0,0.0,0.0,0.0,0.0,0.0,0.0,0.0,0.0,0.0,0.0,0.0,0.0,0.0,0.0,0.0,0.0,0.0,0.0,0.0,0.0,0.0,0.0,0.0,0.0,0.0,0.0,0.0,0.0,0.0,0.0,0.0,0.0,0.0,0.0,0.0,0.0,0.0,0.0,0.0,0.0,0.0,0.0,0.0,0.0,0.0,0.0,0.0,0.0,0.0,0.0,0.0,0.0,0.0,0.0,0.0,0.0,0.0,0.0,0.0,0.0,0.0,0.0,0.0,0.0,0.0,0.0,0.0,0.0,0.0,-2.4898,-2.8179,-2.9158,-2.9589,-2.957,-2.8783,-2.7095,0.0,0.0,0.0,0.0,0.0,0.0,0.0,0.0,0.0,0.0,0.0,0.0,0.0,0.0,0.0,0.0,0.0,0.0,0.0,0.0,0.0,0.0,0.0,0.0,0.0,0.0,0.0,0.0,0.0,0.0,0.0,0.0,0.0,0.0,0.0,0.0,0.0,0.0,0.0,0.0,0.0,0.0,0.0,0.0,0.0,0.0,0.0,0.0,0.0,0.0,0.0,0.0,0.0,0.0,0.0,0.0,0.0,0.0,0.0,0.0,0.0,0.0,0.0,0.0,0.0,0.0,0.0,0.0,0.0,0.0,0.0,0.0,0.0,0.0,0.0,0.0,0.0,0.0,0.0,0.0,0.0,0.0,0.0,0.0,0.0,0.0,0.0,0.0,0.0,0.0,0.0,0.0,0.0,0.0,0.0,0.0,0.0,0.0,0.0,0.0,0.0,0.0,0.0,0.0,0.0,0.0,0.0,0.0,0.0,-3.0035,-3.0348,-3.0487,-3.0468,-2.9647,-2.769,0.0,0.0,0.0,0.0,0.0,0.0,0.0,0.0,0.0,0.0,0.0,0.0,0.0,0.0,0.0,0.0,0.0,0.0,0.0,0.0,0.0,0.0,0.0,0.0,0.0,0.0,0.0,0.0,0.0,0.0,0.0,0.0,0.0,0.0,0.0,0.0,0.0,0.0,0.0,0.0,0.0,0.0,0.0,0.0,0.0,0.0,0.0,0.0,0.0,0.0,0.0,0.0,0.0,0.0,0.0,0.0,0.0,0.0,0.0,0.0,0.0,0.0,0.0,0.0,0.0,0.0,0.0,0.0,0.0,0.0,0.0,0.0,0.0,0.0,0.0,0.0,0.0,0.0,0.0,0.0,0.0,0.0,0.0,0.0,0.0,0.0,0.0,0.0,0.0,0.0,0.0,0.0,0.0,0.0,0.0,0.0,0.0,0.0,0.0,0.0,0.0,0.0,0.0,0.0,0.0,0.0,0.0,0.0,0.0,-3.2695,-3.2479,-3.2324,-3.2305,-3.1171,-2.906,-2.599,0.0,0.0,0.0,0.0,0.0,0.0,0.0,0.0,0.0,0.0,0.0,0.0,0.0,0.0,0.0,0.0,0.0,0.0,0.0,0.0,0.0,0.0,0.0,0.0,0.0,0.0,0.0,0.0,0.0,0.0,0.0,0.0,0.0,0.0,0.0,0.0,0.0,0.0,0.0,0.0,0.0,0.0,0.0,0.0,0.0,0.0,0.0,0.0,0.0,0.0,0.0,0.0,0.0,0.0,0.0,0.0,0.0,0.0,0.0,0.0,0.0,0.0,0.0,0.0,0.0,0.0,0.0,0.0,0.0,0.0,0.0,0.0,0.0,0.0,0.0,0.0,0.0,0.0,0.0,0.0,0.0,0.0,0.0,0.0,0.0,0.0,0.0,0.0,0.0,0.0,0.0,0.0,0.0,0.0,0.0,0.0,0.0,0.0,0.0,0.0,0.0,0.0,0.0,0.0,0.0,0.0,0.0,0.0,-3.6091,-3.5428,-3.4961,-3.4726,-3.3065,-3.0972,0.0,0.0,0.0,0.0,0.0,0.0,0.0,0.0,0.0,0.0,0.0,0.0,0.0,0.0,0.0,0.0,0.0,0.0,0.0,0.0,0.0,0.0,0.0,0.0,0.0,0.0,0.0,0.0,0.0,0.0,0.0,0.0,0.0,0.0,0.0,0.0,0.0,0.0,0.0,0.0,0.0,0.0,0.0,0.0,0.0,0.0,0.0,0.0,0.0,0.0,0.0,0.0,0.0,0.0,0.0,0.0,0.0,0.0,0.0,0.0,0.0,0.0,0.0,0.0,0.0,0.0,0.0,0.0,0.0,0.0,0.0,0.0,0.0,0.0,0.0,0.0,0.0,0.0,0.0,0.0,0.0,0.0,0.0,0.0,0.0,0.0,0.0,0.0,0.0,0.0,0.0,0.0,0.0,0.0,0.0,0.0,0.0,0.0,0.0,0.0,0.0,0.0,0.0,0.0,0.0,0.0,0.0,0.0,0.0,-3.7717,-3.8876,-3.824,-3.5739,-3.3979,-3.1556,0.0,0.0,0.0,0.0,0.0,0.0,0.0,0.0,0.0,0.0,0.0,0.0,0.0,0.0,0.0,0.0,0.0,0.0,0.0,0.0,0.0,0.0,0.0,0.0,0.0,0.0,0.0,0.0,0.0,0.0,0.0,0.0,0.0,0.0,0.0,0.0,0.0,0.0,0.0,0.0,0.0,0.0,0.0,0.0,0.0,0.0,0.0,0.0,0.0,0.0,0.0,0.0,0.0,0.0,0.0,0.0,0.0,0.0,0.0,0.0,0.0,0.0,0.0,0.0,0.0,0.0,0.0,0.0,0.0,0.0,0.0,0.0,0.0,0.0,0.0,0.0,0.0,0.0,0.0,0.0,0.0,0.0,0.0,0.0,0.0,0.0,0.0,0.0,0.0,0.0,0.0,0.0,0.0,0.0,0.0,0.0,0.0,0.0,0.0,0.0,0.0,0.0,0.0,0.0,0.0,0.0,0.0,0.0,-3.5612,-3.8978,-4.0713,-4.0482,-3.8167,-3.6088,-3.3382,0.0,0.0,0.0,0.0,0.0,0.0,0.0,0.0,0.0,0.0,0.0,0.0,0.0,0.0,0.0,0.0,0.0,0.0,0.0,0.0,0.0,0.0,0.0,0.0,0.0,0.0,0.0,0.0,0.0,0.0,0.0,0.0,0.0,0.0,0.0,0.0,0.0,0.0,0.0,0.0,0.0,0.0,0.0,0.0,0.0,0.0,0.0,0.0,0.0,0.0,0.0,0.0,0.0,0.0,0.0,0.0,0.0,0.0,0.0,0.0,0.0,0.0,0.0,0.0,0.0,0.0,0.0,0.0,0.0,0.0,0.0,0.0,0.0,0.0,0.0,0.0,0.0,0.0,0.0,0.0,0.0,0.0,0.0,0.0,0.0,0.0,0.0,0.0,0.0,0.0,0.0,0.0,0.0,0.0,0.0,0.0,0.0,0.0,0.0,0.0,0.0,0.0,0.0,0.0,0.0,0.0,0.0,0.0,-3.648,-3.9833,-4.1572,-4.2048,-4.1227,-3.87,-3.5685,0.0,0.0,0.0,0.0,0.0,0.0,0.0,0.0,0.0,0.0,0.0,0.0,0.0,0.0,0.0,0.0,0.0,0.0,0.0,0.0,0.0,0.0,0.0,0.0,0.0,0.0,0.0,0.0,0.0,0.0,0.0,0.0,0.0,0.0,0.0,0.0,0.0,0.0,0.0,0.0,0.0,0.0,0.0,0.0,0.0,0.0,0.0,0.0,0.0,0.0,0.0,0.0,0.0,0.0,0.0,0.0,0.0,0.0,0.0,0.0,0.0,0.0,0.0,0.0,0.0,0.0,0.0,0.0,0.0,0.0,0.0,0.0,0.0,0.0,0.0,0.0,0.0,0.0,0.0,0.0,0.0,0.0,0.0,0.0,0.0,0.0,0.0,0.0,0.0,0.0,0.0,0.0,0.0,0.0,0.0,0.0,0.0,0.0,0.0,0.0,0.0,0.0,0.0,0.0,0.0,0.0,0.0,0.0,-3.728,-4.0575,-4.2363,-4.315,-4.2956,-3.9903,-3.6297,0.0,0.0,0.0,0.0,0.0,0.0,0.0,0.0,0.0,0.0,0.0,0.0,0.0,0.0,0.0,0.0,0.0,0.0,0.0,0.0,0.0,0.0,0.0,0.0,0.0,0.0,0.0,0.0,0.0,0.0,0.0,0.0,0.0,0.0,0.0,0.0,0.0,0.0,0.0,0.0,0.0,0.0,0.0,0.0,0.0,0.0,0.0,0.0,-2.0117,0.0,0.0,0.0,0.0,0.0,0.0,0.0,0.0,0.0,0.0,0.0,0.0,0.0,0.0,0.0,0.0,0.0,0.0,0.0,0.0,0.0,0.0,0.0,0.0,0.0,0.0,0.0,0.0,0.0,0.0,0.0,0.0,0.0,0.0,0.0,0.0,0.0,0.0,0.0,0.0,0.0,0.0,0.0,0.0,0.0,0.0,0.0,0.0,0.0,0.0,0.0,0.0,0.0,0.0,0.0,0.0,0.0,0.0,0.0,-3.7443,-4.0747,-4.2124,-4.2787,-4.2673,-3.9912,-3.6565,0.0,0.0,0.0,0.0,0.0,0.0,0.0,0.0,0.0,0.0,0.0,0.0,0.0,0.0,0.0,0.0,0.0,0.0,0.0,0.0,0.0,0.0,0.0,0.0,0.0,0.0,0.0,0.0,0.0,0.0,0.0,0.0,0.0,0.0,0.0,0.0,0.0,0.0,0.0,0.0,0.0,0.0,0.0,0.0,0.0,0.0,0.0,0.0,0.0,0.0,0.0,0.0,0.0,0.0,0.0,0.0,0.0,0.0,0.0,0.0,0.0,0.0,0.0,0.0,0.0,0.0,0.0,0.0,0.0,0.0,0.0,0.0,0.0,0.0,0.0,0.0,0.0,0.0,0.0,0.0,0.0,0.0,0.0,0.0,0.0,0.0,0.0,0.0,0.0,0.0,0.0,0.0,0.0,0.0,0.0,0.0,0.0,0.0,0.0,0.0,0.0,0.0,0.0,0.0,0.0,0.0,0.0,-3.3986,-3.7274,-4.0432,-4.1479,-4.1919,-4.1751,-3.9437,-3.658,-3.3149,0.0,0.0,0.0,0.0,0.0,0.0,0.0,0.0,0.0,0.0,0.0,0.0,0.0,0.0,0.0,0.0,0.0,0.0,0.0,0.0,0.0,0.0,0.0,0.0,0.0,0.0,0.0,0.0,0.0,0.0,0.0,0.0,0.0,0.0,0.0,0.0,0.0,0.0,-2.0575,-2.2031,0.0,0.0,0.0,0.0,0.0,0.0,0.0,0.0,-2.0588,0.0,0.0,0.0,0.0,0.0,0.0,0.0,0.0,0.0,0.0,0.0,0.0,0.0,0.0,0.0,0.0,0.0,0.0,0.0,0.0,0.0,0.0,0.0,0.0,0.0,0.0,0.0,0.0,0.0,0.0,0.0,0.0,0.0,0.0,0.0,0.0,0.0,0.0,0.0,0.0,0.0,0.0,0.0,0.0,0.0,0.0,0.0,0.0,0.0,0.0,0.0,0.0,0.0,0.0,0.0,0.0,-3.0511,-3.3884,-3.6889,-3.9474,-4.1048,-4.1496,-4.0727,-3.8989,-3.6132,-3.211,0.0,0.0,0.0,0.0,0.0,0.0,0.0,0.0,0.0,0.0,0.0,0.0,0.0,0.0,0.0,0.0,0.0,0.0,0.0,0.0,0.0,0.0,0.0,0.0,0.0,0.0,0.0,0.0,0.0,0.0,0.0,0.0,0.0,0.0,0.0,0.0,0.0,0.0,0.0,-2.2448,-2.3069,0.0,0.0,0.0,0.0,0.0,0.0,0.0,0.0,-2.2361,0.0,0.0,0.0,0.0,0.0,0.0,0.0,0.0,0.0,0.0,0.0,0.0,0.0,0.0,0.0,0.0,0.0,0.0,0.0,0.0,0.0,0.0,0.0,0.0,0.0,0.0,0.0,0.0,0.0,0.0,0.0,0.0,0.0,0.0,0.0,0.0,0.0,0.0,0.0,0.0,0.0,0.0,0.0,0.0,0.0,0.0,0.0,0.0,0.0,0.0,0.0,0.0,0.0,0.0,0.0,-3.0369,-3.3725,-3.664,-3.9061,-3.9948,-4.0134,-3.9676,-3.7264,-3.4375,0.0,0.0,0.0,0.0,0.0,0.0,0.0,0.0,0.0,0.0,0.0,0.0,0.0,0.0,0.0,0.0,0.0,0.0,0.0,0.0,0.0,0.0,0.0,0.0,0.0,0.0,0.0,0.0,0.0,0.0,0.0,0.0,0.0,0.0,0.0,0.0,0.0,0.0,0.0,0.0,-2.3586,-2.4387,-2.434,0.0,0.0,0.0,0.0,0.0,0.0,-2.2917,-2.2914,0.0,0.0,0.0,0.0,0.0,0.0,0.0,0.0,0.0,0.0,0.0,0.0,0.0,0.0,0.0,0.0,0.0,0.0,0.0,0.0,0.0,0.0,0.0,0.0,0.0,0.0,0.0,0.0,0.0,0.0,0.0,0.0,0.0,0.0,0.0,0.0,0.0,0.0,0.0,0.0,0.0,0.0,0.0,0.0,0.0,0.0,0.0,0.0,0.0,0.0,0.0,0.0,0.0,0.0,0.0,-3.0202,-3.3364,-3.6179,-3.8542,-3.8687,-3.8593,-3.8402,-3.5534,-3.2718,0.0,0.0,0.0,0.0,0.0,0.0,0.0,0.0,0.0,0.0,0.0,0.0,0.0,0.0,0.0,0.0,0.0,0.0,0.0,0.0,0.0,0.0,0.0,0.0,0.0,0.0,0.0,0.0,0.0,0.0,0.0,0.0,0.0,0.0,0.0,0.0,0.0,0.0,0.0,0.0,0.0,-2.586,-2.5862,-2.5415,0.0,0.0,0.0,0.0,-2.3813,-2.3774,0.0,0.0,0.0,0.0,0.0,0.0,0.0,0.0,0.0,0.0,0.0,0.0,0.0,0.0,0.0,0.0,0.0,0.0,0.0,0.0,0.0,0.0,0.0,0.0,0.0,0.0,0.0,0.0,0.0,0.0,0.0,0.0,0.0,0.0,0.0,0.0,0.0,0.0,0.0,0.0,0.0,0.0,0.0,0.0,0.0,0.0,0.0,0.0,0.0,0.0,0.0,0.0,0.0,0.0,0.0,0.0,-2.9988,-3.2566,-3.5077,-3.7432,-3.7583,-3.7242,-3.653,-3.4764,-3.2287,0.0,0.0,0.0,0.0,0.0,0.0,0.0,0.0,0.0,0.0,0.0,0.0,0.0,0.0,0.0,0.0,0.0,0.0,0.0,0.0,0.0,0.0,0.0,0.0,0.0,0.0,0.0,0.0,0.0,0.0,0.0,0.0,0.0,0.0,0.0,0.0,0.0,0.0,0.0,0.0,0.0,-2.6758,-2.6748,-2.7327,-2.7762,0.0,0.0,-2.733,-2.6585,-2.6449,0.0,0.0,0.0,0.0,0.0,0.0,0.0,0.0,0.0,0.0,0.0,0.0,0.0,0.0,0.0,0.0,0.0,0.0,0.0,0.0,0.0,0.0,0.0,0.0,0.0,0.0,0.0,0.0,0.0,0.0,0.0,0.0,0.0,0.0,0.0,0.0,0.0,0.0,0.0,0.0,0.0,0.0,0.0,0.0,0.0,0.0,0.0,0.0,0.0,0.0,0.0,0.0,0.0,0.0,0.0,-2.6254,-2.9078,-3.2014,-3.4262,-3.5761,-3.626,-3.6119,-3.5366,-3.3299,-3.1128,0.0,0.0,0.0,0.0,0.0,0.0,0.0,0.0,0.0,0.0,0.0,0.0,0.0,0.0,0.0,0.0,0.0,0.0,0.0,0.0,0.0,0.0,0.0,0.0,0.0,0.0,0.0,0.0,0.0,0.0,0.0,0.0,0.0,0.0,0.0,0.0,0.0,0.0,0.0,0.0,0.0,0.0,-2.7562,-2.7964,0.0,0.0,0.0,-2.8129,-2.7759,0.0,0.0,0.0,0.0,0.0,0.0,0.0,0.0,0.0,0.0,0.0,0.0,0.0,0.0,0.0,0.0,0.0,0.0,0.0,0.0,0.0,0.0,0.0,0.0,0.0,0.0,0.0,0.0,0.0,0.0,0.0,0.0,0.0,0.0,0.0,0.0,0.0,0.0,0.0,0.0,0.0,0.0,0.0,0.0,0.0,0.0,0.0,0.0,0.0,0.0,0.0,0.0,0.0,0.0,0.0,0.0,0.0,-2.8351,-3.1446,-3.351,-3.4483,-3.5109,-3.5045,-3.4293,-3.2098,0.0,0.0,0.0,0.0,0.0,0.0,0.0,0.0,0.0,0.0,0.0,0.0,0.0,0.0,0.0,0.0,0.0,0.0,0.0,0.0,0.0,0.0,0.0,0.0,0.0,0.0,0.0,-1.5416,0.0,0.0,0.0,0.0,0.0,0.0,0.0,0.0,0.0,0.0,0.0,0.0,0.0,0.0,-2.7542,-2.8409,-2.8713,-2.8837,0.0,0.0,-2.8867,-2.8652,-2.789,-2.7246,0.0,0.0,0.0,0.0,0.0,0.0,0.0,0.0,0.0,0.0,0.0,0.0,0.0,0.0,0.0,0.0,0.0,0.0,0.0,0.0,0.0,0.0,0.0,0.0,0.0,0.0,0.0,0.0,0.0,0.0,0.0,0.0,0.0,0.0,0.0,0.0,0.0,0.0,0.0,0.0,0.0,0.0,0.0,0.0,0.0,0.0,0.0,0.0,0.0,0.0,0.0,0.0,0.0,0.0,0.0,-2.8184,-3.0719,-3.2758,-3.4242,-3.4313,-3.3941,-3.3209,-3.1592,-2.9626,0.0,0.0,0.0,0.0,0.0,0.0,0.0,0.0,0.0,0.0,0.0,0.0,0.0,0.0,0.0,0.0,0.0,0.0,0.0,0.0,0.0,0.0,0.0,0.0,0.0,0.0,0.0,0.0,0.0,0.0,0.0,0.0,0.0,0.0,0.0,0.0,0.0,0.0,0.0,0.0,0.0,-2.8409,-2.9286,-3.0095,-3.0625,0.0,0.0,-3.0383,-2.962,-2.8781,-2.7922,-2.7139,0.0,0.0,0.0,0.0,0.0,0.0,0.0,0.0,0.0,0.0,0.0,0.0,0.0,0.0,0.0,0.0,0.0,0.0,0.0,0.0,0.0,0.0,0.0,0.0,0.0,0.0,0.0,0.0,0.0,0.0,0.0,0.0,0.0,0.0,0.0,0.0,0.0,0.0,0.0,0.0,0.0,0.0,0.0,0.0,0.0,0.0,0.0,0.0,0.0,0.0,0.0,0.0,0.0,-2.582,-2.7284,-3.0157,-3.1959,-3.2588,-3.3506,-3.3438,-3.2203,-3.0627,-2.8918,0.0,0.0,0.0,0.0,0.0,0.0,0.0,0.0,0.0,0.0,0.0,0.0,0.0,0.0,0.0,0.0,0.0,0.0,0.0,0.0,0.0,0.0,0.0,0.0,0.0,0.0,0.0,0.0,-1.6992,-1.701,-1.7006,0.0,0.0,0.0,0.0,0.0,0.0,0.0,0.0,0.0,0.0,-2.8765,-3.0156,-3.0605,0.0,0.0,-3.08,-3.0687,-3.0395,-2.9161,-2.8122,-2.7791,-2.5866,0.0,0.0,0.0,0.0,0.0,0.0,0.0,0.0,0.0,0.0,0.0,0.0,0.0,0.0,0.0,0.0,0.0,0.0,0.0,0.0,0.0,0.0,0.0,0.0,0.0,0.0,0.0,0.0,0.0,0.0,0.0,0.0,0.0,0.0,0.0,0.0,0.0,0.0,0.0,0.0,0.0,0.0,0.0,0.0,0.0,0.0,0.0,0.0,0.0,0.0,0.0,0.0,-2.584,-2.6651,-2.9804,-3.1421,-3.1421,-3.2968,-3.3049,-3.1532,-3.0162,-2.8667,0.0,0.0,0.0,0.0,0.0,0.0,0.0,0.0,0.0,0.0,0.0,0.0,0.0,0.0,0.0,0.0,0.0,0.0,0.0,0.0,0.0,0.0,0.0,0.0,0.0,0.0,0.0,0.0,-1.7976,-1.7974,-1.8007,0.0,0.0,0.0,0.0,0.0,0.0,0.0,0.0,0.0,0.0,-2.9198,-3.0659,-3.0826,-3.0798,-3.0792,-3.0788,-3.0765,-3.0765,-2.9525,-2.854,-2.8571,0.0,0.0,0.0,0.0,0.0,0.0,0.0,0.0,0.0,0.0,0.0,0.0,0.0,0.0,0.0,0.0,0.0,0.0,0.0,0.0,0.0,0.0,0.0,0.0,0.0,0.0,0.0,0.0,0.0,0.0,0.0,0.0,0.0,0.0,0.0,0.0,0.0,0.0,0.0,0.0,0.0,0.0,0.0,0.0,0.0,0.0,0.0,0.0,0.0,0.0,0.0,0.0,0.0,-2.5724,-2.6538,-2.9618,-3.1198,-3.1235,-3.2716,-3.277,-3.1271,-3.0459,-2.8994,-2.674,0.0,0.0,0.0,0.0,0.0,0.0,0.0,0.0,0.0,0.0,0.0,0.0,0.0,0.0,0.0,0.0,0.0,0.0,0.0,0.0,0.0,0.0,0.0,0.0,0.0,0.0,-1.7969,-1.7944,-1.8022,0.0,0.0,0.0,0.0,0.0,0.0,0.0,0.0,0.0,0.0,-2.8969,-2.9802,-3.0657,-3.0798,-3.0802,-3.0802,-3.073,-3.0703,-3.07,-2.9946,-2.936,0.0,0.0,0.0,0.0,0.0,0.0,0.0,0.0,0.0,0.0,0.0,0.0,0.0,0.0,0.0,0.0,0.0,0.0,0.0,0.0,0.0,0.0,0.0,0.0,0.0,0.0,0.0,-1.9985,-1.9968,0.0,0.0,0.0,0.0,0.0,0.0,0.0,0.0,0.0,0.0,0.0,-2.5565,-2.6141,0.0,0.0,0.0,0.0,0.0,0.0,0.0,0.0,0.0,0.0,0.0,0.0,-2.6369,-2.722,-2.9595,-3.0852,-3.0906,-3.2408,-3.248,-3.0902,-3.0251,-2.8324,-2.4953,0.0,0.0,0.0,0.0,0.0,0.0,0.0,0.0,0.0,0.0,0.0,0.0,0.0,0.0,0.0,0.0,0.0,0.0,0.0,0.0,0.0,0.0,0.0,0.0,0.0,-1.9009,0.0,0.0,0.0,0.0,0.0,0.0,0.0,0.0,0.0,0.0,0.0,-2.6287,-2.8012,-2.8963,-2.9793,-3.0624,-3.0742,-3.0725,0.0,0.0,0.0,0.0,0.0,0.0,0.0,0.0,0.0,0.0,0.0,0.0,0.0,0.0,-2.7158,-2.7281,-2.7247,-2.7201,-2.7186,0.0,0.0,0.0,0.0,0.0,0.0,0.0,0.0,0.0,0.0,0.0,0.0,0.0,0.0,0.0,0.0,-2.1299,0.0,0.0,0.0,0.0,0.0,0.0,0.0,0.0,-2.6258,-2.6719,-2.6992,-2.757,-2.7876,0.0,-2.7556,-2.6764,0.0,0.0,0.0,0.0,0.0,0.0,0.0,0.0,-2.6977,-2.7819,-2.9659,-3.0742,-3.1047,-3.2315,-3.2225,-3.0635,-2.9494,-2.7681,-2.5135,-2.4384,-2.3533,0.0,0.0,0.0,0.0,0.0,0.0,0.0,0.0,0.0,0.0,0.0,0.0,0.0,0.0,0.0,0.0,0.0,0.0,0.0,0.0,0.0,0.0,0.0,-2.0712,0.0,0.0,0.0,0.0,0.0,0.0,0.0,0.0,0.0,-2.5257,-2.6154,-2.7272,-2.8437,-2.9305,-3.0037,-3.0551,0.0,0.0,0.0,0.0,0.0,0.0,0.0,-2.9517,-2.9416,-2.8943,-2.8529,-2.8485,-2.8453,-2.8447,-2.8517,0.0,0.0,-2.8023,-2.7946,-2.7892,-2.7864,-2.7866,-2.7935,-2.8244,-2.8077,-2.8105,0.0,0.0,0.0,0.0,0.0,0.0,0.0,0.0,-2.4448,-2.4475,0.0,-2.3731,0.0,0.0,0.0,0.0,0.0,0.0,0.0,0.0,-2.7845,-2.8579,-2.9227,-2.933,-2.9417,-2.9522,-2.9558,-2.923,-2.8517,-2.6554,0.0,0.0,0.0,0.0,0.0,0.0,-2.7503,-2.8349,-2.9724,-3.0805,-3.1566,-3.2364,-3.201,-3.0429,-2.8367,-2.7248,-2.7104,-2.5145,-2.3961,-2.38,-2.2384,0.0,0.0,0.0,0.0,0.0,0.0,0.0,0.0,0.0,0.0,0.0,0.0,0.0,0.0,0.0,0.0,0.0,0.0,0.0,0.0,-2.2346,0.0,0.0,0.0,0.0,0.0,0.0,0.0,0.0,0.0,0.0,-2.6912,-2.8161,-2.9211,-2.9261,0.0,0.0,0.0,0.0,-3.0472,-3.0402,-3.0375,-3.0349,-3.0203,-3.0157,-3.0122,-2.9988,0.0,0.0,-2.9856,-2.9799,-2.9744,-2.9859,-2.9791,-2.9433,-2.8031,-2.785,-2.7807,-2.7752,-2.7784,-2.7981,-2.8651,-2.8381,-2.8326,-2.7797,0.0,0.0,0.0,0.0,-2.5379,-2.5513,-2.5713,-2.5798,-2.5597,-2.5192,-2.5007,0.0,0.0,0.0,0.0,0.0,0.0,-2.7148,-2.8472,-2.9726,-3.0421,-3.0658,-3.1805,-3.2397,-3.2444,-3.1461,-3.0971,-3.0854,-2.9207,-2.7707,-2.6409,0.0,0.0,0.0,0.0,-2.8126,-2.8966,-3.0278,-3.1083,-3.1312,-3.2001,-3.17,-3.0278,-2.8703,-2.7571,-2.7058,-2.648,-2.5673,-2.4563,-2.3595,0.0,0.0,0.0,0.0,0.0,0.0,0.0,0.0,0.0,0.0,0.0,0.0,0.0,0.0,0.0,0.0,0.0,0.0,0.0,-2.2189,-2.2453,-2.288,0.0,0.0,0.0,0.0,0.0,0.0,0.0,0.0,0.0,-2.8134,-2.8568,-2.8949,0.0,0.0,-3.029,-3.0291,-3.0228,-3.019,-3.0117,0.0,0.0,0.0,-2.9813,-2.9754,-2.9651,-2.9561,-2.9504,-2.9465,-2.9416,-2.9407,-2.9513,-2.9551,-2.9392,-2.9043,-2.9039,-2.9074,-2.9042,-2.9028,-2.9106,-2.9303,-2.9228,-2.9262,-3.0858,-2.9254,-2.8243,-2.7668,-2.7479,-2.757,-2.7441,-2.7193,-2.7303,-2.7158,-2.6824,-2.6859,-2.6505,-2.5795,-2.5795,0.0,0.0,0.0,-2.8993,-2.9924,-3.1376,-3.207,-3.2138,-3.3062,-3.3552,-3.3608,-3.2818,-3.2509,-3.2662,-3.1857,-3.049,-2.8753,0.0,0.0,-2.8315,-2.8687,-2.9248,-2.9995,-3.0772,-3.1286,-3.155,-3.1375,-3.0901,-3.0069,-2.8741,-2.7816,-2.7364,-2.7152,-2.6438,-2.517,-2.4438,-2.3323,0.0,0.0,0.0,0.0,0.0,0.0,0.0,0.0,0.0,0.0,0.0,-1.9519,-1.9532,0.0,0.0,0.0,-2.2653,-2.3378,-2.3366,-2.3999,0.0,0.0,0.0,0.0,0.0,0.0,0.0,-2.7831,-2.8518,-2.9022,-2.8962,-2.9233,-2.9401,-2.9295,-2.9698,-3.0095,-3.0391,0.0,-3.0506,-3.0755,-3.0686,-3.0575,-3.0508,-3.041,-3.0319,-3.0193,-3.0057,-2.9996,-3.0042,-3.0021,-3.0051,-3.0117,-2.9939,-2.9717,-2.9698,-2.9576,-2.9456,-2.9467,-2.9476,-2.9475,-2.9484,-2.9523,-2.9598,-3.2934,-3.2746,-3.1351,-3.0344,-2.9682,-2.9779,-2.9473,-2.884,-2.8982,-2.9007,-2.896,-2.9021,-2.8652,-2.7993,-2.7976,0.0,0.0,-3.0685,-3.1309,-3.141,-3.2831,-3.3491,-3.3491,-3.3575,-3.3656,-3.376,-3.3779,-3.383,-3.3971,-3.4098,-3.3467,-3.2084,-3.0853,-3.0245,-3.0245,-3.0268,-3.0558,-3.1162,-3.1165,-3.1481,-3.2038,-3.0626,-2.9873,-2.9872,-2.8576,-2.7874,-2.7871,-2.7238,-2.6486,-2.5636,-2.4956,-2.3833,-2.2209,0.0,0.0,0.0,0.0,0.0,0.0,0.0,0.0,0.0,0.0,0.0,0.0,0.0,0.0,0.0,-2.3835,0.0,-2.4869,-2.632,0.0,0.0,0.0,-2.745,-2.747,-2.8204,-2.8687,-2.8549,0.0,0.0,0.0,0.0,-3.0293,-2.988,-2.9823,-3.0096,-3.077,-3.0921,-3.1173,-3.1725,-3.1781,-3.1704,-3.1462,-3.1394,-3.125,-3.1057,-3.1065,-3.0979,-3.1052,-3.1094,-3.1198,-3.1236,-3.0705,-3.0149,-3.0167,-2.9524,-2.9055,-2.923,-2.928,-2.9272,-2.9291,-2.9332,-2.9384,-3.4883,-3.4336,-3.3981,-3.3088,-3.1939,-3.1961,-3.1862,-3.1663,-3.1136,-3.0729,-3.0285,-2.9772,-2.9551,-2.9548,-2.9531,-3.0277,-3.1549,-3.1887,-3.2324,-3.2916,-3.3829,-3.4235,-3.4269,-3.4827,-3.5142,-3.5234,-3.4712,-3.4567,-3.4706,-3.4235,-3.3852,-3.3608,-3.2781,-3.1533,-2.9996,-3.0451,-3.0818,-3.0958,-3.1463,-3.1756,-3.1822,-3.0439,-2.9709,-2.9826,-2.8423,-2.7739,-2.7888,-2.7155,-2.6388,-2.5623,-2.4918,-2.3797,-2.2191,-2.1954,0.0,0.0,0.0,0.0,0.0,0.0,0.0,0.0,0.0,-2.1598,-2.1598,0.0,-2.309,0.0,-2.5273,-2.6293,-2.6302,-2.6712,0.0,0.0,-2.8435,-2.901,-2.9644,-3.0341,-3.0724,-3.0604,-3.074,-3.0821,-3.0723,-3.0788,-3.0817,-3.0693,-3.0974,-3.1225,-3.1388,-3.1346,-3.1332,-3.1464,-3.1384,-3.1203,-3.1237,-3.1141,-3.112,-3.0975,-3.0952,-3.0924,-3.091,-3.0934,-3.0989,-3.1034,-3.0483,-3.0043,-3.0051,-2.9442,-2.8995,-2.8991,-2.9026,-2.906,-2.9078,-2.9115,-2.9181,-3.6059,-3.5396,-3.5379,-3.4733,-3.3663,-3.3326,-3.3,-3.2685,-3.2343,-3.2014,-3.1721,-3.1428,-3.1385,-3.1543,-3.1562,-3.2019,-3.278,-3.3139,-3.3491,-3.3931,-3.4658,-3.4996,-3.5013,-3.5414,-3.5644,-3.5672,-3.5365,-3.5248,-3.5326,-3.5059,-3.4805,-3.4545,-3.4207,-3.3069,-3.1288,-3.1341,-3.1394,-3.1341,-3.1668,-3.1838,-3.1766,-3.0715,-3.0006,-2.9692,-2.8692,-2.8014,-2.7771,-2.7358,-2.6775,-2.6036,-2.5636,-2.4843,-2.3603,-2.3282,-2.2953,0.0,0.0,0.0,0.0,0.0,0.0,0.0,0.0,0.0,0.0,0.0,-2.4296,0.0,-2.6303,0.0,-2.7618,-2.8022,-2.8622,-2.9399,-2.9839,-3.0203,-3.0632,-3.101,-3.1183,-3.1056,-3.1025,-3.1016,-3.0939,-3.1173,-3.1365,-3.1365,-3.1819,-3.21,-3.1908,-3.1801,-3.1845,-3.2183,-3.2101,-3.1974,-3.1885,-3.1895,-3.1869,-3.1796,-3.1799,-3.1799,-3.1784,-3.181,-3.1869,-3.1935,-3.1409,-3.079,-3.0519,-2.9879,-2.929,-2.8966,-2.8947,-2.897,-2.8994,-2.9021,-2.9085,-3.682,-3.6141,-3.6042,-3.5628,-3.4982,-3.4237,-3.3574,-3.2967,-3.3023,-3.2968,-3.2907,-3.3129,-3.333,-3.352,-3.3537,-3.3609,-3.3728,-3.4336,-3.4624,-3.4692,-3.5295,-3.5616,-3.5616,-3.56,-3.5616,-3.5622,-3.5728,-3.5812,-3.5795,-3.6036,-3.5801,-3.5132,-3.517,-3.4505,-3.3195,-3.2641,-3.2192,-3.1893,-3.1838,-3.18,-3.1783,-3.113,-3.0422,-2.9626,-2.9046,-2.8392,-2.7622,-2.7539,-2.7204,-2.6516,-2.6436,-2.6083,-2.5341,-2.4822,-2.4518,0.0,-2.3991,0.0,0.0,0.0,0.0,0.0,0.0,0.0,0.0,-2.4896,-2.566,-2.6405,-2.723,-2.8063,-2.886,-2.965,-3.0342,-3.0965,-3.1134,-3.1134,-3.1024,-3.1101,-3.1102,-3.098,-3.0965,-3.0965,-3.1022,-3.1515,-3.1911,-3.1931,-3.2396,-3.2599,-3.2342,-3.2271,-3.252,-3.3243,-3.3292,-3.2988,-3.2865,-3.2923,-3.289,-3.2862,-3.2791,-3.2916,-3.2874,-3.2923,-3.3006,-3.309,-3.2519,-3.1837,-3.1202,-3.0412,-2.9677,-2.901,-2.8893,-2.8929,-2.8994,-2.8987,-2.9033,-3.7566,-3.6854,-3.6257,-3.5909,-3.5744,-3.4998,-3.4601,-3.4435,-3.3862,-3.3366,-3.2923,-3.3091,-3.354,-3.4122,-3.4242,-3.4624,-3.5177,-3.5329,-3.5397,-3.538,-3.5532,-3.5616,-3.5616,-3.5616,-3.5616,-3.5616,-3.5622,-3.5689,-3.5795,-3.5839,-3.5859,-3.5797,-3.5286,-3.4902,0.0,0.0,0.0,0.0,-3.1801,-3.18,-3.1765,-3.1076,-3.0369,-2.9626,-2.8914,0.0,-2.7529,-2.6899,-2.6496,-2.6342,-2.577,0.0,0.0,0.0,0.0,0.0,0.0,0.0,0.0,0.0,0.0,0.0,-2.5283,-2.5199,-2.5584,-2.629,-2.7043,-2.7843,-2.8591,-2.938,-3.0152,-3.0424,-3.0628,-3.0772,-3.1322,-3.1655,-3.1643,-3.2151,-3.2485,-3.2408,-3.2392,-3.2359,-3.2225,-3.237,-3.2441,-3.2423,-3.2565,-3.2617,-3.254,-3.2648,-3.2834,-3.2977,-3.3013,-3.2963,-3.2932,-3.2916,-3.2916,-3.29,-3.29,-3.2916,-3.2916,-3.2981,-3.2995,-3.3042,-3.252,-3.1867,-3.1096,-3.0364,-2.9712,-2.8894,-2.8834,-2.8917,-2.8994,-2.8987,-2.904,-3.8084,0.0,-3.7107,-3.6571,0.0,-3.557,-3.523,-3.4866,-3.4502,-3.4207,-3.3989,-3.4169,-3.4482,-3.4886,-3.5003,-3.525,-3.56,-3.5616,-3.5616,-3.5616,-3.5616,-3.5616,-3.5616,-3.5616,-3.5616,-3.5616,-3.5616,-3.5644,-3.5706,-3.5773,-3.5839,-3.5888,-3.5643,-3.5334,-3.4998,-3.4416,-3.3507,-3.2352,-3.199,-3.18,-3.1783,-3.142,-3.0886,-3.0162,0.0,0.0,0.0,0.0,0.0,0.0,0.0,0.0,0.0,0.0,0.0,-2.6414,-2.6528,-2.6585,-2.6599,-2.7035,-2.7335,-2.7335,-2.7646,-2.76,-2.7028,-2.7656,-2.8425,-2.9194,-2.9639,-3.0172,-3.0953,-3.109,-3.1232,-3.1604,-3.1965,-3.2183,-3.2188,-3.2474,-3.2657,-3.2626,-3.2609,-3.2592,-3.2507,-3.2507,-3.2507,-3.2507,-3.2489,-3.2507,-3.2506,-3.2657,-3.2771,-3.2854,-3.2854,-3.287,-3.29,-3.29,-3.29,-3.29,-3.29,-3.29,-3.29,-3.2932,-3.2981,-3.2977,-3.2732,-3.2307,-3.1618,-3.0893,-3.0165,-2.945,-2.9016,-2.8846,-2.8929,-2.8982,-2.9033,-3.839,-3.7877,-3.7939,-3.7268,-3.6148,-3.6142,-3.5835,-3.5263,0.0,0.0,0.0,-3.5198,-3.5337,-3.5469,-3.5549,-3.5577,-3.56,-3.5616,-3.5616,-3.5616,-3.5616,-3.5667,-3.5802,-3.5802,-3.5802,-3.5802,-3.5802,-3.5718,-3.5616,-3.5728,-3.5773,-3.5773,-3.5888,-3.5711,-3.5225,-3.4585,-3.3953,-3.3317,-3.2576,-3.2145,-3.2007,-3.199,-3.1576,-3.0731,-3.011,-2.9436,-2.8692,-2.8149,-2.7836,-2.7774,-2.7836,-2.7818,-2.779,-2.7836,-2.7881,-2.7896,-2.8019,-2.806,-2.8077,-2.8795,-2.9208,-2.9208,-2.973,-2.9556,-2.8426,-2.8885,-2.9591,-3.0368,-3.0441,-3.0774,-3.1584,-3.1654,-3.1902,-3.2503,-3.2556,-3.2539,-3.249,-3.249,-3.2473,-3.2423,-3.2423,-3.2406,-3.2423,-3.2423,-3.2406,-3.2406,-3.2423,-3.2406,-3.2423,-3.2524,-3.2622,-3.2722,-3.2755,-3.2771,-3.2852,-3.2884,-3.2884,-3.29,-3.29,-3.29,-3.29,-3.29,-3.2916,-3.2963,-3.2979,-3.2699,-3.2154,-3.1527,-3.0825,-3.0028,-2.9359,-2.8913,-2.8876,-2.8929,-2.9021,-3.8557,-3.8427,-3.7942,-3.7636,-3.739,-3.6955,-3.6786,-3.6688,-3.5446,-3.4899,-3.493,-3.5081,-3.5198,-3.5354,-3.5469,-3.5566,-3.56,-3.5616,-3.5616,0.0,-3.5616,-3.5977,-3.6626,-3.6643,-3.662,-3.6643,-3.6626,-3.6265,-3.5667,-3.5622,-3.5622,-3.5644,-3.5773,-3.5898,-3.5959,-3.5259,-3.4854,-3.4852,-3.4128,-3.3438,-3.2766,-3.2748,-3.2093,-3.0765,-3.061,-3.0162,-2.9403,-2.9247,-2.923,-2.9213,-2.923,-2.9229,-2.928,-2.9262,-2.9363,-2.9481,-2.9479,-2.9512,-2.9512,-2.9633,-2.9702,-2.9719,-2.979,-2.9787,-2.9722,-2.9761,-3.0148,-3.0967,-3.1038,-3.1337,-3.2142,-3.2229,-3.2264,-3.2422,-3.244,-3.2422,-3.2405,-3.2405,-3.2388,-3.2406,-3.2406,-3.2388,-3.2388,-3.2388,-3.2388,-3.2406,-3.2388,-3.2406,-3.2406,-3.2456,-3.254,-3.2606,-3.2622,-3.2672,-3.2789,-3.2805,-3.2838,-3.2884,-3.29,-3.29,-3.29,-3.29,-3.29,-3.2916,-3.2948,-3.2708,-3.2056,-3.1909,-3.1311,-3.0229,-2.9802,-2.9597,-2.9107,-2.9028,-2.903,-3.8132,-3.8185,-3.8003,-3.7741,-3.7433,-3.6954,-3.6772,-3.6774,-3.6224,-3.6018,-3.6108,-3.6255,-3.6159,-3.5911,-3.5994,-3.5874,-3.5616,-3.5616,-3.5616,-3.5633,-3.6062,-3.6417,-3.6812,-3.7195,-3.7398,-3.7364,-3.6981,-3.6586,-3.6231,-3.5819,-3.5616,-3.5616,-3.5711,-3.5878,-3.5954,-3.5698,-3.5629,-3.5738,-3.466,-3.3904,-3.3559,-3.3542,-3.3024,-3.1903,-3.1507,-3.092,-3.0179,-2.973,-2.9506,-2.9506,-2.9506,-2.9523,-2.954,-2.954,-2.9574,-2.9625,-2.9676,-2.9676,-2.9693,-3.0125,-3.0559,-3.0907,-3.0924,-3.0959,-3.0959,-3.0646,-3.0801,-3.1585,-3.1655,-3.1812,-3.2266,-3.2284,-3.2336,-3.2406,-3.2406,-3.2371,-3.2301,-3.2284,-3.2267,-3.2232,-3.2232,-3.2232,-3.2232,-3.2232,-3.2232,-3.2232,-3.2267,-3.2301,-3.2301,-3.2371,-3.2473,-3.254,-3.2522,-3.259,-3.2673,-3.269,-3.2722,-3.282,-3.2854,-3.2852,-3.2884,-3.29,-3.29,-3.29,-3.2932,-3.2822,-3.2442,-3.2209,-3.1722,-3.1325,-3.0668,-3.0363,-3.0083,-2.9832,-2.9524,-3.7626,-3.7743,-3.7931,-3.781,-3.7446,-3.7134,-3.7022,-3.7065,-3.7255,-3.7376,-3.7472,-3.7344,-3.6987,-3.6649,-3.6671,-3.6454,-3.6083,-3.6015,-3.6038,-3.6151,-3.6732,-3.7127,-3.7337,-3.7905,-3.8142,-3.8091,-3.7574,-3.7218,-3.6975,-3.6248,-3.5752,-3.5639,-3.5689,-3.5756,-3.5795,-3.5905,-3.6019,-3.6075,-3.5077,-3.4467,-3.4335,-3.4355,-3.3886,-3.2938,-3.2352,-3.1696,-3.0972,-3.0351,-3.0024,-3.0024,-3.0024,-3.0024,-3.0024,-3.0024,-3.0024,-3.0024,-3.0076,-3.0093,-3.0128,-3.0716,-3.1323,-3.1824,-3.1875,-3.1857,-3.1785,-3.1374,-3.1341,-3.195,-3.202,-3.2073,-3.2161,-3.2179,-3.2232,-3.2319,-3.2336,-3.2284,-3.2197,-3.2179,-3.2161,-3.2108,-3.209,-3.2108,-3.209,-3.209,-3.2126,-3.2126,-3.2144,-3.2179,-3.2196,-3.2284,-3.2336,-3.2422,-3.2439,-3.2489,-3.2556,-3.2573,-3.264,-3.274,-3.2789,-3.2821,-3.287,-3.2884,-3.29,-3.29,-3.29,-3.288,-3.291,-3.2611,-3.2221,-3.1935,-3.1516,-3.1202,-3.0957,-3.0708,-3.0222,-3.7254,-3.7314,-3.7612,-3.7841,-3.7971,-3.8137,-3.8244,-3.835,-3.8537,-3.8636,-3.8482,-3.7579,-3.7194,-3.722,-3.7245,-3.7211,-3.725,-3.7317,-3.734,-3.7444,-3.7586,-3.8046,-3.8659,-3.8853,-3.8903,-3.8886,-3.8751,-3.8345,-3.777,-3.7043,-3.6332,-3.5684,-3.5622,-3.5684,-3.5795,-3.5817,-3.5883,-3.6036,-3.5899,-3.5595,-3.5128,-3.5094,-3.4387,-3.2938,-3.2852,-3.2455,-3.1731,-3.1627,-3.1576,-3.1593,-3.1541,-3.1558,-3.1541,-3.1576,-3.1576,-3.1541,-3.1577,-3.1594,-3.1577,-3.1663,-3.1733,-3.1784,-3.1818,-3.1801,-3.18,-3.1749,-3.177,-3.1894,-3.1912,-3.2001,-3.209,-3.2108,-3.2108,-3.2144,-3.2161,-3.2108,-3.2126,-3.2108,-3.209,-3.2108,-3.2073,-3.209,-3.2073,-3.2073,-3.2073,-3.2055,-3.2073,-3.209,-3.2108,-3.2143,-3.2161,-3.2249,-3.2319,-3.244,-3.2507,-3.2506,-3.254,-3.2623,-3.2706,-3.2773,-3.2805,-3.287,-3.29,-3.2884,-3.29,-3.2916,-3.2932,-3.2856,-3.2683,-3.2322,-3.2036,-3.1852,-3.1325,-3.118,-3.0937,-3.7297,-3.7437,-3.7231,-3.7284,-3.7594,-3.786,-3.802,-3.8091,-3.8303,-3.8444,-3.8507,-3.8155,-3.7867,-3.7654,-3.7757,-3.7576,-3.7211,-3.727,-3.7361,-3.7468,-3.7836,-3.8296,-3.8757,-3.9236,-3.9472,-3.9472,-3.9101,-3.8762,-3.8439,-3.7804,-3.7043,-3.6366,-3.6299,-3.6101,-3.5718,-3.5667,-3.5711,-3.5778,-3.5844,-3.5774,-3.5604,-3.5638,-3.5166,-3.4171,-3.3619,-3.3059,-3.2412,-3.1931,-3.1709,-3.18,-3.18,-3.18,-3.18,-3.18,-3.18,-3.18,-3.18,-3.18,-3.18,-3.18,-3.18,-3.18,-3.18,-3.18,-3.18,-3.18,-3.1801,-3.182,-3.182,-3.1893,-3.1966,-3.1984,-3.2019,-3.2073,-3.209,-3.2073,-3.1984,-3.1966,-3.1966,-3.1929,-3.1911,-3.1911,-3.1928,-3.1928,-3.1911,-3.1929,-3.1947,-3.1984,-3.1984,-3.2037,-3.2108,-3.2161,-3.2232,-3.2319,-3.2422,-3.244,-3.2473,-3.2523,-3.2574,-3.2625,-3.269,-3.2789,-3.2838,-3.2838,-3.2868,-3.29,-3.2916,-3.2948,-3.2883,-3.2616,-3.2754,-3.2781,-3.2555,-3.2174,-3.1813,-3.7299,-3.7384,-3.6816,-3.6754,-3.7074,-3.7344,-3.7508,-3.7596,-3.7873,-3.8075,-3.8221,-3.8347,-3.8223,-3.797,-3.8179,-3.7972,-3.7501,-3.7555,-3.7632,-3.7698,-3.8247,-3.86,-3.8813,-3.9358,-3.9694,-3.9705,-3.9303,-3.9026,-3.8914,-3.8449,-3.779,-3.7195,-3.707,-3.6658,-3.5943,-3.5836,-3.5712,-3.5543,-3.5616,-3.5661,-3.5661,-3.5751,-3.5526,-3.4916,-3.4336,-3.3642,-3.2779,-3.2177,-3.1823,-3.1727,-3.1763,-3.1746,-3.18,-3.18,-3.18,-3.18,-3.18,-3.18,-3.18,-3.18,-3.18,-3.18,-3.18,-3.18,-3.18,-3.18,-3.18,-3.18,-3.18,-3.1819,-3.1857,-3.1875,-3.1912,-3.2001,-3.2036,-3.1965,-3.1893,-3.1875,-3.1857,-3.1818,-3.1818,-3.18,-3.18,-3.1818,-3.1818,-3.1818,-3.1856,-3.1875,-3.1875,-3.1948,-3.2019,-3.2037,-3.2126,-3.2232,-3.2319,-3.2406,-3.2422,-3.2456,-3.249,-3.2523,-3.2574,-3.2691,-3.2773,-3.2805,-3.2836,-3.2884,-3.29,-3.2948,-3.2977,-3.3086,-3.3208,-3.3342,-3.3252,-3.29,-3.2611,-3.7021,-3.6947,-3.6453,-3.6445,-3.6723,-3.6891,-3.7042,-3.7224,-3.7537,-3.77,-3.7759,-3.7876,-3.7931,-3.7924,-3.8414,-3.8624,-3.852,-3.8564,-3.8603,-3.8603,-3.881,-3.9022,-3.9199,-3.9415,-3.9484,-3.9511,-3.9542,-3.9319,-3.8866,-3.879,-3.8452,-3.7882,-3.7735,-3.7275,-3.6602,-3.6367,-3.6018,-3.5442,-3.5331,-3.5314,-3.5314,-3.5337,-3.5211,-3.4934,-3.4831,-3.4076,-3.2849,-3.2576,-3.2256,-3.1632,-3.1634,-3.1671,-3.1781,-3.18,-3.18,-3.18,-3.18,-3.18,-3.18,-3.18,-3.18,-3.18,-3.18,-3.18,-3.18,-3.18,-3.18,-3.18,-3.18,-3.18,-3.1818,-3.1819,-3.1801,-3.1837,-3.1837,-3.1818,-3.1818,-3.1818,-3.18,-3.18,-3.18,-3.18,-3.18,-3.18,-3.18,-3.18,-3.1818,-3.1801,-3.1818,-3.1837,-3.1856,-3.193,-3.2002,-3.2126,-3.2197,-3.2336,-3.2406,-3.2422,-3.2474,-3.249,-3.2523,-3.2574,-3.2657,-3.2756,-3.2789,-3.282,-3.2884,-3.2932,-3.2979,-3.3073,-3.3198,-3.3337,-3.3411,-3.3466,-3.3201,-3.7447,-3.6826,-3.6732,-3.6543,-3.6273,-3.6383,-3.6569,-3.6785,-3.6952,-3.718,-3.7373,-3.7433,-3.7492,-3.761,-3.7799,-3.8001,-3.816,-3.8286,-3.8327,-3.8371,-3.8399,-3.8567,-3.8816,-3.8887,-3.904,-3.9175,-3.9362,-3.943,-3.9403,-3.9386,-3.9026,-3.8463,-3.8321,-3.7861,-3.7059,-3.6493,-3.603,-3.5643,-3.526,-3.4994,-3.4947,-3.5011,-3.5001,-3.4895,-3.4617,-3.4023,-3.3138,-3.2662,-3.2148,-3.1572,-3.1521,-3.1578,-3.1671,-3.1746,-3.18,-3.18,-3.18,-3.18,-3.18,-3.18,-3.18,-3.18,-3.18,-3.18,-3.18,-3.18,-3.18,-3.18,-3.18,-3.18,-3.18,-3.18,-3.18,-3.18,-3.18,-3.18,-3.18,-3.18,-3.18,-3.18,-3.18,-3.18,-3.18,-3.18,-3.18,-3.18,-3.18,-3.18,-3.18,-3.18,-3.1801,-3.1838,-3.1929,-3.202,-3.2126,-3.2301,-3.2406,-3.2423,-3.2422,-3.244,-3.2457,-3.2489,-3.2591,-3.2623,-3.2691,-3.2773,-3.282,-3.29,-3.2948,-3.3026,-3.3152,-3.3247,-3.3322,-3.3378,-3.331,-3.7698,-3.6733,-3.6776,-3.6481,-3.5972,-3.5975,-3.6148,-3.632,-3.6476,-3.6677,-3.6846,-3.6952,-3.7013,-3.7088,-3.7134,-3.7224,-3.7478,-3.774,-3.7841,-3.7812,-3.7857,-3.803,-3.8274,-3.8343,-3.8483,-3.8706,-3.8942,-3.9212,-3.9425,-3.9451,-3.9228,-3.8829,-3.8761,-3.8301,-3.7484,-3.6886,-3.6363,-3.5728,-3.5227,-3.4833,-3.457,-3.4578,-3.4643,-3.4601,-3.4372,-3.4045,-3.3602,-3.2879,-3.2242,-3.1746,-3.1519,-3.1443,-3.1576,-3.1651,-3.1709,-3.1727,-3.1746,-3.1763,-3.18,-3.18,-3.18,-3.18,-3.18,-3.18,-3.18,-3.18,-3.18,-3.18,-3.18,-3.18,-3.18,-3.18,-3.18,-3.18,-3.18,-3.18,-3.18,-3.18,-3.18,-3.18,-3.18,-3.18,-3.18,-3.18,-3.18,-3.18,-3.18,-3.18,-3.18,-3.18,-3.18,-3.1818,-3.1857,-3.1948,-3.2037,-3.2196,-3.2371,-3.2388,-3.2406,-3.2406,-3.2423,-3.2457,-3.249,-3.2506,-3.2574,-3.2707,-3.2789,-3.287,-3.2934,-3.2997,-3.306,-3.317,-3.3229,-3.3304,-3.3258,-3.7689,-3.6645,-3.6492,-3.625,-3.5748,-3.572,-3.5831,-3.6005,-3.6148,-3.6242,-3.6336,-3.6414,-3.6507,-3.6523,-3.6538,-3.6523,-3.6662,-3.7104,-3.7298,-3.7254,-3.7358,-3.7522,-3.7743,-3.7844,-3.8001,-3.8173,-3.8427,-3.875,-3.8996,-3.9023,-3.9011,-3.9092,-3.8951,-3.8508,-3.7867,-3.748,-3.6759,-3.5747,-3.5253,-3.4755,-3.4214,-3.4158,-3.4126,-3.4126,-3.4202,-3.4152,-3.397,-3.3301,-3.2644,-3.2047,-3.1533,-3.1303,-3.1457,-3.1498,-3.1536,-3.1579,-3.1598,-3.1654,-3.1746,-3.1781,-3.1763,-3.1763,-3.1781,-3.1763,-3.1763,-3.1763,-3.1763,-3.1763,-3.1763,-3.1781,-3.1781,-3.1763,-3.1781,-3.18,-3.18,-3.18,-3.18,-3.18,-3.18,-3.18,-3.18,-3.18,-3.18,-3.18,-3.18,-3.18,-3.18,-3.18,-3.18,-3.18,-3.18,-3.1818,-3.1856,-3.1893,-3.1984,-3.2055,-3.2232,-3.2371,-3.2388,-3.2406,-3.2406,-3.2422,-3.2457,-3.2491,-3.2524,-3.2625,-3.274,-3.2805,-3.287,-3.2934,-3.2997,-3.306,-3.3137,-3.3198,-3.3244,-3.8332,-3.718,-3.7135,-3.651,-3.5614,-3.5572,-3.5668,-3.5784,-3.5847,-3.5958,-3.6068,-3.6132,-3.6163,-3.6163,-3.6163,-3.6178,-3.6178,-3.6367,-3.6585,-3.6831,-3.6892,-3.7074,-3.7314,-3.7387,-3.7623,-3.7943,-3.8059,-3.8274,-3.8516,-3.8572,-3.86,-3.8611,-3.86,-3.8402,-3.801,-3.7494,-3.6878,-3.641,-3.5364,-3.4701,-3.4471,-3.4037,-3.3822,-3.3822,-3.3873,-3.3887,-3.3909,-3.3576,-3.285,-3.1848,-3.1675,-3.1472,-3.1249,-3.1249,-3.1346,-3.1372,-3.1372,-3.1447,-3.1557,-3.1612,-3.1612,-3.1612,-3.1593,-3.1593,-3.1595,-3.1612,-3.1595,-3.1595,-3.1595,-3.1595,-3.1612,-3.1593,-3.1651,-3.1799,-3.18,-3.18,-3.18,-3.18,-3.18,-3.18,-3.18,-3.18,-3.18,-3.18,-3.18,-3.18,-3.18,-3.18,-3.18,-3.18,-3.18,-3.1818,-3.1838,-3.1857,-3.1912,-3.1966,-3.209,-3.2232,-3.2301,-3.2371,-3.2371,-3.2406,-3.2423,-3.244,-3.2473,-3.2541,-3.2658,-3.274,-3.2789,-3.287,-3.2918,-3.2981,-3.3044,-3.3091,-3.3137,-3.8781,-3.7778,-3.7509,-3.6821,-3.5878,-3.5639,-3.5554,-3.5621,-3.5621,-3.5686,-3.5797,-3.5797,-3.5829,-3.5829,-3.5829,-3.5829,-3.5812,-3.5797,-3.6005,-3.6305,-3.6414,-3.6616,-3.6922,-3.7089,-3.73,-3.7565,-3.7623,-3.7786,-3.8033,-3.8107,-3.8135,-3.8151,-3.8193,-3.8148,-3.7985,-3.747,-3.708,-3.6628,-3.5677,-3.4897,-3.4433,-3.399,-3.3652,-3.3446,-3.345,-3.3555,-3.3636,-3.3589,-3.3012,-3.1972,-3.1489,-3.1116,-3.0864,-3.0895,-3.0978,-3.11,-3.1123,-3.1179,-3.1346,-3.1402,-3.1404,-3.1423,-3.1426,-3.1462,-3.1479,-3.1481,-3.1481,-3.1481,-3.15,-3.1481,-3.1517,-3.1498,-3.1574,-3.1687,-3.1726,-3.1763,-3.1781,-3.18,-3.18,-3.18,-3.18,-3.18,-3.18,-3.18,-3.18,-3.18,-3.18,-3.18,-3.18,-3.18,-3.18,-3.18,-3.1818,-3.1838,-3.1857,-3.1893,-3.1948,-3.2073,-3.2196,-3.2249,-3.2301,-3.2371,-3.2423,-3.2423,-3.244,-3.2473,-3.2574,-3.2625,-3.2657,-3.2739,-3.2804,-3.2836,-3.2884,-3.2963,-3.3026,-3.902,-3.8332,-3.7719,-3.7135,-3.6507,-3.5953,-3.5714,-3.5594,-3.5594,-3.5612,-3.5567,-3.5554,-3.5537,-3.5522,-3.5569,-3.5554,-3.5489,-3.5537,-3.5604,-3.5767,-3.591,-3.6163,-3.6476,-3.6739,-3.6938,-3.7134,-3.7164,-3.7254,-3.7462,-3.7596,-3.7671,-3.7687,-3.7759,-3.7847,-3.7727,-3.749,-3.7056,-3.654,-3.6054,-3.5234,-3.422,-3.3939,-3.3642,-3.3076,-3.309,-3.3176,-3.3293,-3.3286,-3.2944,-3.2057,-3.1112,-3.0573,-3.0459,-3.0464,-3.0572,-3.0744,-3.0747,-3.0902,-3.1095,-3.1151,-3.1173,-3.1215,-3.1254,-3.1312,-3.1385,-3.1385,-3.1385,-3.1404,-3.144,-3.1443,-3.1443,-3.146,-3.1479,-3.1498,-3.1559,-3.167,-3.1763,-3.1763,-3.1763,-3.1764,-3.1781,-3.18,-3.18,-3.18,-3.18,-3.18,-3.18,-3.18,-3.18,-3.18,-3.18,-3.18,-3.18,-3.1818,-3.1838,-3.1856,-3.1893,-3.1947,-3.2073,-3.2144,-3.2249,-3.2336,-3.2406,-3.2406,-3.2423,-3.2457,-3.2473,-3.2524,-3.2557,-3.2606,-3.2655,-3.2655,-3.2721,-3.2818,-3.2884,-3.902,-3.8377,-3.8197,-3.7764,-3.7195,-3.6956,-3.6626,-3.6267,-3.6222,-3.5983,-3.5624,-3.5489,-3.5579,-3.5504,-3.5534,-3.5489,-3.5534,-3.5534,-3.5489,-3.5554,-3.5587,-3.5797,-3.6068,-3.6226,-3.6414,-3.6662,-3.6708,-3.6816,-3.7075,-3.7165,-3.7181,-3.7181,-3.7241,-3.7271,-3.7211,-3.7181,-3.7042,-3.6762,-3.6187,-3.5784,-3.5286,-3.4366,-3.3836,-3.3661,-3.3205,-3.2998,-3.2942,-3.2594,-3.2282,-3.1878,-3.1092,-3.0427,-3.0082,-3.0114,-3.0243,-3.0342,-3.0447,-3.0551,-3.0671,-3.0773,-3.0834,-3.0875,-3.0955,-3.1015,-3.1035,-3.1095,-3.1131,-3.1151,-3.121,-3.1269,-3.1269,-3.1269,-3.1291,-3.1351,-3.1445,-3.1538,-3.1576,-3.1576,-3.1595,-3.1653,-3.1671,-3.1709,-3.1763,-3.1781,-3.1781,-3.18,-3.18,-3.18,-3.18,-3.18,-3.18,-3.18,-3.18,-3.18,-3.1818,-3.1818,-3.1855,-3.1838,-3.1947,-3.2037,-3.2179,-3.2319,-3.2388,-3.2406,-3.2406,-3.2422,-3.2457,-3.2473,-3.2489,-3.2506,-3.2556,-3.2607,-3.2622,-3.2688,-3.2688,-3.9185,-3.8796,-3.8512,-3.8167,-3.7793,-3.7539,-3.7195,-3.6926,-3.6866,-3.6671,-3.6357,-3.6297,-3.6312,-3.6312,-3.6312,-3.6148,-3.5938,-3.5923,-3.5774,-3.5564,-3.5804,-3.5907,-3.5937,-3.5941,-3.61,-3.6258,-3.6352,-3.6476,-3.6677,-3.68,-3.6877,-3.6892,-3.6938,-3.6999,-3.7015,-3.6908,-3.6862,-3.6784,-3.6366,-3.6041,-3.5669,-3.5002,-3.4242,-3.3839,-3.328,-3.306,-3.2773,-3.2518,-3.2237,-3.1847,-3.1262,-3.0599,-3.0073,-3.0077,-3.0083,-3.0033,-3.0055,-3.0146,-3.0274,-3.038,-3.0464,-3.0547,-3.0651,-3.0712,-3.081,-3.0855,-3.0875,-3.0995,-3.1092,-3.1131,-3.119,-3.119,-3.1213,-3.1271,-3.1327,-3.1421,-3.1479,-3.15,-3.1519,-3.154,-3.1559,-3.1578,-3.167,-3.1707,-3.1709,-3.1727,-3.1781,-3.1781,-3.18,-3.18,-3.18,-3.18,-3.18,-3.18,-3.18,-3.1818,-3.1818,-3.1837,-3.1857,-3.1984,-3.2126,-3.2267,-3.2354,-3.2388,-3.2406,-3.2406,-3.2422,-3.244,-3.2439,-3.2473,-3.2489,-3.2523,-3.2557,-3.2556,-3.2556,-3.9388,-3.9364,-3.8751,-3.8497,-3.8422,-3.7883,-3.7659,-3.7509,-3.7509,-3.7434,-3.7315,-3.736,-3.721,-3.7404,-3.715,-3.706,-3.6582,-3.6582,-3.6267,-3.6148,-3.6267,-3.6427,-3.6122,-3.6101,-3.6046,-3.6035,-3.6116,-3.6179,-3.6305,-3.6492,-3.6616,-3.6662,-3.6847,-3.6938,-3.6877,-3.677,-3.6693,-3.6662,-3.6538,-3.6199,-3.5829,-3.5428,-3.4842,-3.4056,-3.3486,-3.3082,-3.2791,-3.2652,-3.2538,-3.2071,-3.1473,-3.093,-3.0458,-3.0371,-3.0274,-3.0067,-3.0093,-3.0119,-3.007,-3.0185,-3.0141,-3.0302,-3.0316,-3.0422,-3.0547,-3.0609,-3.0733,-3.0875,-3.0955,-3.1015,-3.1131,-3.1171,-3.119,-3.1193,-3.121,-3.1305,-3.1421,-3.1479,-3.1479,-3.1479,-3.1462,-3.1481,-3.15,-3.154,-3.1596,-3.1614,-3.167,-3.1707,-3.1726,-3.1727,-3.1763,-3.18,-3.18,-3.18,-3.18,-3.18,-3.18,-3.1818,-3.1857,-3.1948,-3.2055,-3.2197,-3.2301,-3.2354,-3.2388,-3.2388,-3.2406,-3.2423,-3.2405,-3.2405,-3.2457,-3.2474,-3.2473,-3.249,-3.249,-3.9388,-3.9373,-3.926,-3.92,-3.9185,-3.9035,-3.8661,-3.8182,-3.8182,-3.7928,-3.7524,-3.7434,-3.7464,-3.7449,-3.7524,-3.733,-3.7225,-3.718,-3.7105,-3.7075,-3.7105,-3.7165,-3.6918,-3.667,-3.6213,-3.5948,-3.5799,-3.5879,-3.6053,-3.6211,-3.6305,-3.6336,-3.6507,-3.6585,-3.6585,-3.6585,-3.6554,-3.6554,-3.6523,-3.6415,-3.6184,-3.5753,-3.5383,-3.4845,-3.3983,-3.3106,-3.2579,-3.248,-3.2446,-3.2265,-3.1882,-3.1352,-3.0886,-3.0804,-3.0786,-3.0774,-3.0863,-3.0791,-3.05,-3.0454,-3.0335,-2.9988,-3.0071,-3.0103,-3.0146,-3.0359,-3.0485,-3.0609,-3.0712,-3.0838,-3.1015,-3.1134,-3.1171,-3.1171,-3.1241,-3.1278,-3.1266,-3.1286,-3.1308,-3.1349,-3.1351,-3.137,-3.1479,-3.1481,-3.1519,-3.1519,-3.1538,-3.1578,-3.1615,-3.1653,-3.169,-3.1744,-3.1763,-3.1763,-3.18,-3.18,-3.18,-3.18,-3.1839,-3.1876,-3.2002,-3.2091,-3.2179,-3.2267,-3.2354,-3.2371,-3.2336,-3.2371,-3.2354,-3.2388,-3.2388,-3.2371,-3.2371,-3.2405,-3.2405,-3.925,-3.9265,-3.9352,-3.9388,-3.9388,-3.9388,-3.9215,-3.8916,-3.8871,-3.8676,-3.8407,-3.8347,-3.8362,-3.8347,-3.8332,-3.8227,-3.7838,-3.7539,-3.7584,-3.7764,-3.7853,-3.7868,-3.7838,-3.7479,-3.6978,-3.6207,-3.5823,-3.5782,-3.5894,-3.6022,-3.6116,-3.6116,-3.6289,-3.6352,-3.6383,-3.646,-3.6492,-3.6492,-3.6492,-3.6492,-3.6399,-3.6168,-3.5722,-3.5429,-3.4489,-3.3583,-3.2967,-3.2875,-3.269,-3.2425,-3.218,-3.1807,-3.1316,-3.1213,-3.1201,-3.1061,-3.1049,-3.1047,-3.0806,-3.0752,-3.0593,-3.0023,-3.008,-2.9984,-2.9933,-3.0038,-3.0194,-3.0342,-3.051,-3.0695,-3.0915,-3.1012,-3.1069,-3.1156,-3.1432,-3.1601,-3.1587,-3.1371,-3.121,-3.1252,-3.1252,-3.1291,-3.1329,-3.1489,-3.1423,-3.1423,-3.1481,-3.1519,-3.1538,-3.1576,-3.1632,-3.167,-3.1671,-3.1709,-3.1781,-3.18,-3.18,-3.18,-3.1819,-3.182,-3.1875,-3.1966,-3.2073,-3.2144,-3.2232,-3.2232,-3.2214,-3.2249,-3.2284,-3.2249,-3.2232,-3.2249,-3.2249,-3.2249,-3.2249,-3.9053,-3.909,-3.9301,-3.9388,-3.9388,-3.9388,-3.9373,-3.9373,-3.9388,-3.9269,-3.9373,-3.9388,-3.9194,-3.9328,-3.9284,-3.902,-3.8556,-3.8138,-3.8182,-3.8512,-3.8542,-3.8542,-3.8497,-3.8242,-3.7798,-3.6795,-3.6207,-3.5911,-3.5748,-3.5831,-3.5926,-3.5973,-3.6116,-3.6179,-3.6211,-3.6352,-3.6429,-3.6429,-3.646,-3.6492,-3.6492,-3.6415,-3.6091,-3.5491,-3.5028,-3.4305,-3.369,-3.3398,-3.3121,-3.2598,-3.2444,-3.216,-3.1886,-3.1696,-3.1564,-3.1151,-3.1254,-3.1263,-3.1193,-3.1134,-3.0941,-3.0434,-3.0267,-3.0107,-2.9884,-2.9806,-2.9892,-3.0146,-3.0338,-3.0634,-3.0924,-3.1139,-3.1189,-3.1361,-3.1892,-3.2169,-3.2139,-3.1766,-3.1668,-3.1701,-3.1887,-3.1975,-3.169,-3.1627,-3.146,-3.1327,-3.1421,-3.1477,-3.1496,-3.1481,-3.1538,-3.1576,-3.1595,-3.1596,-3.167,-3.1709,-3.1744,-3.1763,-3.1764,-3.1783,-3.1783,-3.1857,-3.1948,-3.202,-3.209,-3.2108,-3.2126,-3.2161,-3.2161,-3.2108,-3.2126,-3.2161,-3.2161,-3.2108,-3.2108,-3.8943,-3.909,-3.9141,-3.9265,-3.9373,-3.9388,-3.9388,-3.9388,-3.9388,-3.9388,-3.9388,-3.9388,-3.9388,-3.9388,-3.9388,-3.9298,-3.911,-3.8931,-3.9005,-3.9134,-3.917,-3.9119,-3.9065,-3.8706,-3.8272,-3.7873,-3.7038,-3.6229,-3.5797,-3.5686,-3.5976,-3.5874,-3.5987,-3.6098,-3.6129,-3.6179,-3.6289,-3.632,-3.6383,-3.646,-3.6492,-3.6461,-3.623,-3.5675,-3.5429,-3.4998,-3.4321,-3.3737,-3.3336,-3.3198,-3.2705,-3.2425,-3.2299,-3.2268,-3.2183,-3.2141,-3.209,-3.1927,-3.169,-3.1649,-3.1332,-3.0814,-3.0452,-3.0211,-3.0022,-2.9842,-2.9965,-3.0086,-3.038,-3.0698,-3.1259,-3.148,-3.1886,-3.2295,-3.2589,-3.2825,-3.2792,-3.2785,-3.2769,-3.293,-3.2921,-3.2726,-3.2357,-3.2053,-3.1992,-3.1808,-3.1644,-3.1635,-3.1604,-3.1487,-3.1406,-3.1445,-3.15,-3.1519,-3.1519,-3.1578,-3.1634,-3.1653,-3.169,-3.1727,-3.1746,-3.1783,-3.1856,-3.1911,-3.1983,-3.2037,-3.2055,-3.2055,-3.2072,-3.2036,-3.2072,-3.209,-3.2055,-3.2036,-3.2055,-3.8686,-3.8811,-3.8995,-3.9141,-3.9265,-3.9388,-3.9388,-3.9388,-3.9388,-3.9388,-3.9388,-3.9388,-3.9388,-3.9388,-3.9388,-3.9388,-3.9388,-3.9388,-3.9388,-3.9388,-3.9388,-3.9388,-3.9388,-3.9035,-3.8706,-3.8332,-3.7704,-3.7105,-3.6552,-3.6607,-3.652,-3.6553,-3.6474,-3.6375,-3.6286,-3.6172,-3.6193,-3.6241,-3.6336,-3.6429,-3.6492,-3.6492,-3.6261,-3.6107,-3.5953,-3.5645,-3.5076,-3.4752,-3.4306,-3.395,-3.329,-3.2982,-3.2829,-3.2625,-3.2441,-3.2511,-3.2523,-3.2415,-3.2156,-3.2106,-3.1827,-3.1301,-3.0937,-3.0717,-3.0544,-3.0449,-3.0433,-3.0712,-3.0888,-3.1244,-3.171,-3.19,-3.2132,-3.2518,-3.2972,-3.3271,-3.3394,-3.3705,-3.3907,-3.3979,-3.3448,-3.3072,-3.2913,-3.2697,-3.26,-3.2337,-3.1968,-3.1836,-3.1791,-3.1695,-3.1596,-3.164,-3.173,-3.1698,-3.1681,-3.1688,-3.1591,-3.1559,-3.1596,-3.1651,-3.167,-3.1688,-3.169,-3.1728,-3.182,-3.1929,-3.1929,-3.1928,-3.1946,-3.1964,-3.1946,-3.1946,-3.1946,-3.1946,-3.1965,-3.8418,-3.8478,-3.8811,-3.9031,-3.9104,-3.925,-3.9373,-3.9388,-3.9388,-3.9388,-3.9388,-3.9388,-3.9388,-3.9388,-3.9388,-3.9388,-3.9388,-3.9388,-3.9388,-3.9388,-3.9388,-3.9388,-3.9388,-3.9328,-3.9125,-3.8766,-3.8586,-3.8182,-3.7375,-3.724,-3.7345,-3.7199,-3.694,-3.6857,-3.677,-3.663,-3.6415,-3.6298,-3.6394,-3.6489,-3.6491,-3.6492,-3.6492,-3.6492,-3.6492,-3.6199,-3.5737,-3.5414,-3.5136,-3.4643,-3.406,-3.3614,-3.3506,-3.2967,-3.2613,-3.2567,-3.2475,-3.2413,-3.241,-3.2364,-3.2156,-3.1789,-3.1661,-3.1342,-3.1099,-3.1008,-3.1154,-3.1534,-3.1574,-3.1734,-3.2069,-3.2228,-3.2413,-3.2784,-3.331,-3.3716,-3.3862,-3.4107,-3.44,-3.422,-3.3705,-3.3495,-3.3388,-3.3345,-3.3249,-3.2812,-3.2446,-3.2395,-3.2319,-3.2165,-3.207,-3.2035,-3.2026,-3.1964,-3.1932,-3.1901,-3.1701,-3.1481,-3.1519,-3.1557,-3.1538,-3.1519,-3.154,-3.1579,-3.1653,-3.1744,-3.1744,-3.18,-3.1855,-3.1855,-3.1818,-3.1818,-3.1855,-3.1855,-3.1873,-3.8066,-3.824,-3.8464,-3.8775,-3.9068,-3.9104,-3.9265,-3.9373,-3.9388,-3.9388,-3.9388,-3.9388,-3.9388,-3.9388,-3.9388,-3.9388,-3.9388,-3.9388,-3.9388,-3.9388,-3.9388,-3.9388,-3.9388,-3.9388,-3.9328,-3.9155,-3.9215,-3.8542,-3.7883,-3.7614,-3.7475,-3.7509,-3.7499,-3.7319,-3.7372,-3.7218,-3.7213,-3.6796,-3.6921,-3.6871,-3.6537,-3.646,-3.646,-3.646,-3.6445,-3.6399,-3.6153,-3.583,-3.5476,-3.5323,-3.4706,-3.4397,-3.4258,-3.3675,-3.3352,-3.3106,-3.2798,-3.2398,-3.2413,-3.2398,-3.2367,-3.2129,-3.189,-3.163,-3.1518,-3.1332,-3.1294,-3.1207,-3.1426,-3.1851,-3.2439,-3.2618,-3.3013,-3.3345,-3.3655,-3.3891,-3.4038,-3.3982,-3.4366,-3.444,-3.3897,-3.3965,-3.3966,-3.3929,-3.3835,-3.3349,-3.2981,-3.2952,-3.2823,-3.2656,-3.2534,-3.2499,-3.2455,-3.2412,-3.231,-3.2249,-3.195,-3.1582,-3.1516,-3.154,-3.1366,-3.1346,-3.1443,-3.1481,-3.1519,-3.1612,-3.1688,-3.1744,-3.1781,-3.18,-3.1764,-3.1781,-3.18,-3.18,-3.18,-3.7534,-3.8028,-3.824,-3.8501,-3.8775,-3.8995,-3.9156,-3.9228,-3.9352,-3.9388,-3.9388,-3.9388,-3.9388,-3.9388,-3.9388,-3.9388,-3.9388,-3.9388,-3.9388,-3.9388,-3.9388,-3.9388,-3.9388,-3.9388,-3.9388,-3.9388,-3.9358,-3.9194,-3.8616,-3.8497,-3.8542,-3.8402,-3.8153,-3.7958,-3.7913,-3.7668,-3.747,-3.7258,-3.7124,-3.677,-3.6378,-3.621,-3.621,-3.6226,-3.621,-3.6226,-3.615,-3.6106,-3.586,-3.5707,-3.5202,-3.491,-3.4756,-3.4266,-3.3729,-3.3367,-3.3167,-3.2813,-3.2502,-3.2413,-3.2398,-3.2382,-3.2175,-3.2122,-3.2095,-3.2,-3.193,-3.2181,-3.2217,-3.2447,-3.2734,-3.2923,-3.3159,-3.3459,-3.3684,-3.372,-3.3771,-3.3899,-3.3975,-3.405,-3.4109,-3.4064,-3.4109,-3.4145,-3.4147,-3.4054,-3.3677,-3.35,-3.3317,-3.3076,-3.299,-3.2949,-3.292,-3.2891,-3.279,-3.2711,-3.2362,-3.2032,-3.1796,-3.1685,-3.1213,-3.1131,-3.123,-3.1288,-3.1327,-3.1443,-3.1595,-3.167,-3.1688,-3.1709,-3.1746,-3.1746,-3.1744,-3.1781,-3.1781,-3.662,-3.7519,-3.7863,-3.8179,-3.8427,-3.8775,-3.8943,-3.9068,-3.9192,-3.9228,-3.9265,-3.9228,-3.9228,-3.9228,-3.9228,-3.9192,-3.9213,-3.925,-3.9265,-3.9265,-3.9265,-3.9213,-3.9213,-3.9265,-3.9301,-3.9337,-3.9388,-3.9298,-3.9328,-3.9298,-3.9239,-3.9373,-3.8856,-3.8676,-3.8512,-3.8272,-3.8027,-3.7831,-3.7345,-3.6811,-3.6284,-3.6148,-3.6044,-3.5923,-3.5863,-3.5863,-3.5863,-3.5959,-3.5991,-3.5728,-3.5597,-3.54,-3.5232,-3.4729,-3.4286,-3.3885,-3.3533,-3.3054,-3.2698,-3.2539,-3.2444,-3.2398,-3.2398,-3.236,-3.2461,-3.2566,-3.2605,-3.2671,-3.2687,-3.2799,-3.2989,-3.3038,-3.3076,-3.3198,-3.3309,-3.3319,-3.3356,-3.3487,-3.3581,-3.3607,-3.3684,-3.3787,-3.3871,-3.4161,-3.4342,-3.4552,-3.44,-3.4084,-3.3829,-3.3538,-3.3639,-3.3645,-3.3751,-3.3634,-3.3333,-3.3172,-3.2804,-3.2453,-3.224,-3.1909,-3.1536,-3.1157,-3.1032,-3.1072,-3.1142,-3.1171,-3.1288,-3.1426,-3.1578,-3.1596,-3.1632,-3.167,-3.1707,-3.1726,-3.1744,-3.5043,-3.6466,-3.7081,-3.7672,-3.8202,-3.824,-3.8501,-3.876,-3.8833,-3.8819,-3.8833,-3.8833,-3.8833,-3.8833,-3.8833,-3.8833,-3.8819,-3.8833,-3.8833,-3.8819,-3.8819,-3.8819,-3.887,-3.898,-3.9104,-3.9104,-3.9228,-3.9301,-3.9388,-3.9301,-3.9352,-3.9343,-3.9143,-3.9269,-3.9194,-3.8919,-3.851,-3.8157,-3.7594,-3.6996,-3.6488,-3.6219,-3.5995,-3.5564,-3.5462,-3.5432,-3.5432,-3.5576,-3.5576,-3.54,-3.5552,-3.5619,-3.5358,-3.5074,-3.4728,-3.4395,-3.3802,-3.3313,-3.2972,-3.2578,-3.2413,-3.2398,-3.2398,-3.2398,-3.2468,-3.2425,-3.2496,-3.2621,-3.2648,-3.2703,-3.2827,-3.2897,-3.2881,-3.2908,-3.2962,-3.3,-3.3054,-3.315,-3.3203,-3.3176,-3.3256,-3.3388,-3.3424,-3.3684,-3.3949,-3.4152,-3.4366,-3.4055,-3.4242,-3.4107,-3.4334,-3.4495,-3.4662,-3.4492,-3.4016,-3.3733,-3.3461,-3.2995,-3.2596,-3.2279,-3.1947,-3.155,-3.1037,-3.0965,-3.1035,-3.0996,-3.0972,-3.1114,-3.1271,-3.1443,-3.15,-3.1519,-3.1519,-3.1519,-3.154,-3.4915,-3.5777,-3.6151,-3.6808,-3.7672,-3.7886,-3.8113,-3.8263,-3.8389,-3.8427,-3.8427,-3.8427,-3.8412,-3.8412,-3.8427,-3.8427,-3.8412,-3.8464,-3.8427,-3.8427,-3.8412,-3.8427,-3.8501,-3.8575,-3.8701,-3.8775,-3.8922,-3.9017,-3.9031,-3.9031,-3.9031,-3.9068,-3.9104,-3.9177,-3.9177,-3.906,-3.8646,-3.813,-3.7644,-3.7116,-3.6492,-3.5918,-3.559,-3.5385,-3.489,-3.4817,-3.482,-3.4909,-3.489,-3.4938,-3.5151,-3.5216,-3.5249,-3.5081,-3.4955,-3.4719,-3.4074,-3.3668,-3.297,-3.2564,-3.2318,-3.2398,-3.2398,-3.2398,-3.237,-3.2398,-3.2425,-3.2468,-3.2496,-3.2551,-3.2551,-3.2594,-3.2578,-3.2605,-3.2633,-3.2703,-3.2757,-3.2866,-3.2935,-3.2962,-3.2989,-3.3085,-3.3112,-3.3123,-3.3424,-3.372,-3.3924,-3.4117,-3.4201,-3.43,-3.4399,-3.4497,-3.4618,-3.4691,-3.4213,-3.4112,-3.406,-3.3532,-3.2954,-3.2613,-3.2277,-3.1616,-3.1181,-3.1064,-3.0949,-3.0921,-3.0883,-3.084,-3.0935,-3.1128,-3.1247,-3.1308,-3.1308,-3.137,-3.1565,-3.4558,-3.51,-3.5399,-3.6071,-3.7017,-3.739,-3.7582,-3.7658,-3.7787,-3.7825,-3.7863,-3.7863,-3.7863,-3.7863,-3.7825,-3.7825,-3.7825,-3.781,-3.7825,-3.781,-3.781,-3.7863,-3.7938,-3.8066,-3.8179,-3.8292,-3.8501,-3.8612,-3.8612,-3.8612,-3.8649,-3.8649,-3.8686,-3.876,-3.8848,-3.8679,-3.8348,-3.7916,-3.7572,-3.715,-3.6454,-3.5913,-3.5203,-3.503,-3.4577,-3.4261,-3.42,-3.4187,-3.4221,-3.4269,-3.4419,-3.4587,-3.4687,-3.4743,-3.4717,-3.4555,-3.4267,-3.3901,-3.3216,-3.2472,-3.2239,-3.2247,-3.2262,-3.2274,-3.2302,-3.2287,-3.2315,-3.2358,-3.2385,-3.2398,-3.2398,-3.2425,-3.2468,-3.2496,-3.2508,-3.2535,-3.2578,-3.2633,-3.2676,-3.273,-3.2746,-3.2773,-3.28,-3.2812,-3.3081,-3.3356,-3.3555,-3.3736,-3.3838,-3.3899,-3.3975,-3.4075,-3.4176,-3.425,-3.4251,-3.4146,-3.3998,-3.3843,-3.3319,-3.2969,-3.2504,-3.1854,-3.1501,-3.1487,-3.1308,-3.0991,-3.1057,-3.1341,-3.1136,-3.0861,-3.1076,-3.1388,-3.1536,-3.1666,-3.192,-3.3721,-3.4454,-3.4908,-3.5575,-3.6229,-3.6626,-3.6822,-3.6978,-3.7017,-3.7031,-3.7017,-3.7017,-3.7017,-3.7017,-3.7017,-3.7017,-3.7017,-3.7017,-3.7017,-3.7017,-3.7003,-3.7003,-3.7134,-3.7327,-3.7519,-3.7687,-3.7915,-3.8089,-3.815,-3.8127,-3.8127,-3.8075,-3.8,-3.8075,-3.8441,-3.8315,-3.8098,-3.7895,-3.7625,-3.7035,-3.65,-3.5991,-3.531,-3.4716,-3.4345,-3.405,-3.3649,-3.3628,-3.3585,-3.3423,-3.3791,-3.3914,-3.3874,-3.4196,-3.4308,-3.4317,-3.3959,-3.3815,-3.3709,-3.2646,-3.2201,-3.2118,-3.2118,-3.201,-3.2038,-3.2079,-3.2163,-3.2135,-3.2302,-3.237,-3.2398,-3.2398,-3.2398,-3.2425,-3.2425,-3.2453,-3.248,-3.248,-3.2551,-3.2594,-3.2496,-3.2425,-3.2496,-3.2551,-3.2784,-3.3,-3.3203,-3.3361,-3.3466,-3.3503,-3.3581,-3.3642,-3.3745,-3.3822,-3.3899,-3.4025,-3.3962,-3.3833,-3.3614,-3.3193,-3.2805,-3.2248,-3.1982,-3.1916,-3.1639,-3.1274,-3.1586,-3.2004,-3.1559,-3.1134,-3.1368,-3.1631,-3.178,-3.1923,-3.2109,-3.3559,-3.3966,-3.4285,-3.4605,-3.4964,-3.5696,-3.6071,-3.6111,-3.6165,-3.6151,-3.6151,-3.6151,-3.6151,-3.6151,-3.6151,-3.6151,-3.6151,-3.6151,-3.6111,-3.6151,-3.6151,-3.6111,-3.627,-3.6494,-3.6716,-3.6872,-3.7159,-3.7404,-3.739,-3.739,-3.7404,-3.7366,-3.7236,-3.7327,-3.7519,-3.7519,-3.7366,-3.7275,-3.7067,-3.6799,-3.6497,-3.593,-3.5335,-3.4723,-3.4379,-3.3872,-3.3207,-3.3247,-3.3018,-3.2707,-3.3065,-3.3164,-3.3164,-3.3444,-3.3667,-3.3736,-3.3579,-3.3681,-3.3431,-3.2748,-3.2316,-3.2198,-3.1999,-3.1819,-3.1697,-3.1796,-3.1853,-3.2014,-3.229,-3.2372,-3.2259,-3.2373,-3.2401,-3.2398,-3.2425,-3.2425,-3.2425,-3.2425,-3.2468,-3.2468,-3.2398,-3.2536,-3.2582,-3.2813,-3.3027,-3.306,-3.3283,-3.3141,-3.3154,-3.3139,-3.315,-3.324,-3.3319,-3.3398,-3.3519,-3.3607,-3.3658,-3.3521,-3.3453,-3.3306,-3.2892,-3.2497,-3.2347,-3.2212,-3.1894,-3.1614,-3.1919,-3.2088,-3.1709,-3.1505,-3.1767,-3.188,-3.1942,-3.2043,-3.2134,-3.3398,-3.3598,-3.3781,-3.3791,-3.3859,-3.4802,-3.5263,-3.5263,-3.5263,-3.5263,-3.5263,-3.5263,-3.5263,-3.5263,-3.5263,-3.525,-3.5263,-3.5223,-3.5263,-3.5263,-3.5263,-3.5263,-3.5372,-3.5642,-3.5857,-3.6004,-3.6296,-3.6547,-3.6533,-3.6547,-3.6547,-3.6508,-3.635,-3.6389,-3.6533,-3.6587,-3.6665,-3.6573,-3.6375,-3.6177,-3.6,-3.5635,-3.5124,-3.4733,-3.4316,-3.3858,-3.3282,-3.2893,-3.2651,-3.2361,-3.2314,-3.2472,-3.2552,-3.2739,-3.2988,-3.3094,-3.3262,-3.3425,-3.325,-3.2725,-3.2428,-3.2455,-3.2091,-3.1961,-3.1976,-3.2243,-3.2317,-3.2405,-3.2488,-3.2619,-3.2676,-3.2774,-3.2813,-3.2857,-3.2944,-3.2946,-3.2962,-3.3008,-3.2964,-3.2887,-3.2841,-3.2885,-3.2913,-3.3111,-3.337,-3.3375,-3.3367,-3.3184,-3.2987,-3.2924,-3.2917,-3.2935,-3.3,-3.3096,-3.315,-3.3219,-3.3219,-3.3192,-3.315,-3.3134,-3.3082,-3.2709,-3.2615,-3.252,-3.2351,-3.2196,-3.2178,-3.2142,-3.2103,-3.2119,-3.2272,-3.2277,-3.2184,-3.2305,-3.2465,-3.3172,-3.3373,-3.3386,-3.3195,-3.3075,-3.3825,-3.4212,-3.4293,-3.4293,-3.4267,-3.4321,-3.4282,-3.435,-3.4361,-3.4358,-3.4439,-3.4439,-3.4439,-3.4439,-3.4439,-3.4481,-3.4468,-3.4592,-3.4853,-3.5059,-3.5223,-3.5426,-3.5669,-3.5669,-3.571,-3.571,-3.571,-3.5629,-3.5629,-3.571,-3.5831,-3.5951,-3.5911,-3.575,-3.5629,-3.5494,-3.5291,-3.4915,-3.4594,-3.4313,-3.3953,-3.3408,-3.2917,-3.2663,-3.2379,-3.2168,-3.2028,-3.204,-3.2228,-3.2322,-3.2525,-3.281,-3.3003,-3.3087,-3.2587,-3.2495,-3.2582,-3.2638,-3.2664,-3.2547,-3.2544,-3.2608,-3.2806,-3.296,-3.3276,-3.3502,-3.3577,-3.3651,-3.3755,-3.383,-3.389,-3.3905,-3.3875,-3.3786,-3.374,-3.3665,-3.3664,-3.3721,-3.3826,-3.3793,-3.3833,-3.384,-3.3666,-3.3426,-3.2962,-3.2924,-3.2773,-3.2827,-3.2854,-3.287,-3.2944,-3.2881,-3.2866,-3.2866,-3.2866,-3.2823,-3.2834,-3.269,-3.2638,-3.2799,-3.2801,-3.2615,-3.2688,-3.2867,-3.284,-3.2657,-3.2609,-3.2492,-3.2905,-3.315,-3.2495,-3.2588,-3.2978,-3.2912,-3.2424,-3.2295,-3.2439,-3.2737,-3.2765,-3.2778,-3.2778,-3.315,-3.3343,-3.3356,-3.3743,-3.3843,-3.3894,-3.3894,-3.3937,-3.3894,-3.3937,-3.3882,-3.4008,-3.423,-3.4369,-3.4494,-3.466,-3.4853,-3.4853,-3.4895,-3.5141,-3.5236,-3.5195,-3.5154,-3.5154,-3.5154,-3.5277,-3.5318,-3.5195,-3.5195,-3.5154,-3.5072,-3.4776,-3.4602,-3.4549,-3.415,-3.3607,-3.3317,-3.3028,-3.2646,-3.2273,-3.2071,-3.2082,-3.196,-3.189,-3.2241,-3.2408,-3.2538,-3.2769,-3.268,-3.2576,-3.2653,-3.279,-3.2525,-3.2409,-3.2471,-3.2707,-3.3001,-3.3237,-3.3454,-3.3609,-3.3735,-3.386,-3.3999,-3.4075,-3.4106,-3.4121,-3.4106,-3.4044,-3.4059,-3.3999,-3.4152,-3.4228,-3.4273,-3.4226,-3.4329,-3.434,-3.4214,-3.3933,-3.3486,-3.3218,-3.3085,-3.2977,-3.3113,-3.2795,-3.2764,-3.2628,-3.2551,-3.2671,-3.2698,-3.2605,-3.259,-3.2621,-3.2648,-3.2746,-3.2843,-3.2888,-3.2951,-3.2908,-3.2935,-3.279,-3.2812,-3.2881,-3.315,-3.3319,-3.1888,-3.1938,-3.2252,-3.2089,-3.1549,-3.0997,-3.0958,-3.122,-3.1642,-3.1833,-3.1884,-3.2148,-3.2415,-3.2682,-3.2988,-3.3229,-3.3471,-3.3471,-3.3484,-3.3484,-3.3484,-3.3484,-3.3569,-3.3696,-3.3823,-3.3907,-3.4021,-3.4189,-3.4189,-3.4356,-3.4564,-3.4784,-3.4825,-3.4825,-3.4784,-3.4743,-3.4743,-3.4784,-3.4812,-3.4825,-3.4867,-3.4867,-3.4743,-3.466,-3.466,-3.4299,-3.3955,-3.3783,-3.3391,-3.3012,-3.2646,-3.2344,-3.2278,-3.2048,-3.1755,-3.2034,-3.2059,-3.2169,-3.2359,-3.2453,-3.2475,-3.2596,-3.2704,-3.2577,-3.2601,-3.2729,-3.293,-3.3144,-3.3307,-3.3463,-3.3577,-3.3738,-3.3898,-3.404,-3.4072,-3.4118,-3.4118,-3.4103,-3.4133,-3.4163,-3.4273,-3.443,-3.4541,-3.4606,-3.482,-3.5064,-3.5126,-3.4972,-3.4663,-3.4198,-3.3919,-3.373,-3.3591,-3.3501,-3.318,-3.3026,-3.3057,-3.3069,-3.2977,-3.2915,-3.2582,-3.2425,-3.2496,-3.2551,-3.2621,-3.2676,-3.2746,-3.2718,-3.2676,-3.2718,-3.2746,-3.2668,-3.2718,-3.2888,-3.3016,-3.1323,-3.1323,-3.1323,-3.1122,-3.0583,-3.0105,-2.9906,-2.9892,-3.0823,-3.1289,-3.1238,-3.1339,-3.1615,-3.1933,-3.2261,-3.2626,-3.2958,-3.3109,-3.3197,-3.3111,-3.3197,-3.3197,-3.324,-3.3283,-3.3441,-3.3484,-3.3569,-3.3725,-3.3768,-3.3979,-3.423,-3.4356,-3.4439,-3.4481,-3.4481,-3.4481,-3.4494,-3.4548,-3.4627,-3.4706,-3.4559,-3.4478,-3.445,-3.4397,-3.4397,-3.4345,-3.4254,-3.4005,-3.3652,-3.3456,-3.3169,-3.2843,-3.2529,-3.2344,-3.2061,-3.1841,-3.1957,-3.1934,-3.204,-3.2132,-3.2228,-3.2322,-3.2381,-3.2442,-3.2533,-3.28,-3.3,-3.3138,-3.3325,-3.3446,-3.3566,-3.3681,-3.3815,-3.3981,-3.408,-3.4145,-3.4226,-3.4226,-3.4193,-3.4255,-3.4386,-3.4549,-3.4773,-3.4827,-3.4911,-3.5542,-3.5653,-3.5458,-3.5262,-3.4804,-3.451,-3.4294,-3.4091,-3.3967,-3.4027,-3.3889,-3.3858,-3.3781,-3.3567,-3.3198,-3.2906,-3.2644,-3.2398,-3.2468,-3.2523,-3.2468,-3.2496,-3.2511,-3.2554,-3.2523,-3.2523,-3.2453,-3.2523,-3.2734,-3.273,-3.0809,-3.0796,-3.0796,-3.0708,-3.0545,-3.0018,-2.9779,-2.9792,-3.003,-3.0218,-3.0256,-3.0608,-3.0896,-3.116,-3.1876,-3.2303,-3.2478,-3.293,-3.3099,-3.3124,-3.3124,-3.3124,-3.3124,-3.3167,-3.3197,-3.3197,-3.324,-3.3356,-3.3526,-3.3725,-3.3937,-3.416,-3.4285,-3.4356,-3.4397,-3.4397,-3.441,-3.4424,-3.4868,-3.4763,-3.445,-3.4763,-3.4933,-3.4593,-3.4397,-3.4397,-3.4345,-3.4293,-3.4188,-3.411,-3.3652,-3.3195,-3.2698,-3.2594,-3.2344,-3.2064,-3.2006,-3.1907,-3.1843,-3.1894,-3.2,-3.2059,-3.2132,-3.2241,-3.2431,-3.2753,-3.2952,-3.3108,-3.3248,-3.3388,-3.3479,-3.3597,-3.3701,-3.3825,-3.3997,-3.4099,-3.4249,-3.4216,-3.4216,-3.4298,-3.4399,-3.4616,-3.4831,-3.503,-3.518,-3.5299,-3.5449,-3.5426,-3.5524,-3.5242,-3.4881,-3.4652,-3.4523,-3.4445,-3.4614,-3.4646,-3.4541,-3.4401,-3.4186,-3.3741,-3.3247,-3.3003,-3.2747,-3.2493,-3.2425,-3.2659,-3.2736,-3.2502,-3.2487,-3.2552,-3.2567,-3.2628,-3.2567,-3.2705,-3.2585,-3.0244,-3.0256,-3.0256,-3.0256,-3.0193,-2.9917,-2.9779,-2.9779,-2.9779,-2.9779,-2.9804,-3.0118,-3.0382,-3.0658,-3.1486,-3.2064,-3.2265,-3.286,-3.3061,-3.3124,-3.3124,-3.3124,-3.3124,-3.3124,-3.3124,-3.3124,-3.3111,-3.3197,-3.3398,-3.3526,-3.3738,-3.4034,-3.4243,-3.4314,-3.4356,-3.4397,-3.4397,-3.4437,-3.5182,-3.509,-3.458,-3.4881,-3.4959,-3.4593,-3.4397,-3.4397,-3.4397,-3.4397,-3.4397,-3.4371,-3.4071,-3.3679,-3.3287,-3.3144,-3.2817,-3.2463,-3.2198,-3.1998,-3.1858,-3.1819,-3.1797,-3.183,-3.1927,-3.2073,-3.2109,-3.2408,-3.2561,-3.2717,-3.2881,-3.3023,-3.3058,-3.3129,-3.3129,-3.322,-3.329,-3.3339,-3.3479,-3.3583,-3.3548,-3.3583,-3.377,-3.4074,-3.4278,-3.4433,-3.4587,-3.4783,-3.4938,-3.5088,-3.5234,-3.5365,-3.5112,-3.4969,-3.4775,-3.5019,-3.5324,-3.5294,-3.5141,-3.4972,-3.4712,-3.4239,-3.3707,-3.3369,-3.3093,-3.3027,-3.3084,-3.3356,-3.3326,-3.3049,-3.2936,-3.3044,-3.2982,-3.2921,-3.2844,-3.2875,-3.3041,-2.9804,-2.9779,-2.9804,-2.9792,-2.9792,-2.9792,-2.9779,-2.9779,-2.9779,-2.9779,-2.9779,-2.9804,-3.0131,-3.0633,-3.116,-3.17,-3.2252,-3.2817,-3.3074,-3.3124,-3.3124,-3.3124,-3.3124,-3.3124,-3.3124,-3.3124,-3.3124,-3.3197,-3.3313,-3.3484,-3.3696,-3.3992,-3.416,-3.423,-3.4356,-3.4397,-3.4397,-3.4646,-3.5038,-3.5195,-3.5077,-3.4999,-3.4907,-3.4685,-3.4397,-3.4397,-3.4397,-3.4397,-3.4397,-3.4384,-3.4345,-3.4084,-3.3862,-3.3666,-3.3313,-3.2974,-3.2673,-3.2357,-3.2026,-3.1834,-3.1721,-3.1636,-3.1793,-3.1853,-3.1927,-3.2023,-3.2191,-3.2322,-3.2503,-3.2596,-3.2596,-3.2561,-3.2596,-3.2632,-3.2632,-3.2668,-3.281,-3.2952,-3.2952,-3.2952,-3.3178,-3.3507,-3.3716,-3.3874,-3.4011,-3.4196,-3.438,-3.4534,-3.4668,-3.4787,-3.475,-3.4827,-3.4855,-3.5244,-3.5695,-3.5591,-3.5334,-3.5258,-3.4955,-3.4576,-3.4122,-3.3668,-3.3485,-3.3786,-3.3891,-3.3844,-3.3947,-3.3824,-3.3729,-3.3499,-3.351,-3.3451,-3.3495,-3.3556,-3.3829,-2.9779,-2.9779,-2.9779,-2.9779,-2.9779,-2.9779,-2.9779,-2.9779,-2.9779,-2.9779,-2.9779,-2.9829,-3.0093,-3.0645,-3.116,-3.165,-3.2114,-3.2742,-3.3074,-3.3124,-3.3124,-3.3124,-3.3124,-3.3124,-3.3124,-3.3124,-3.3111,-3.3154,-3.3356,-3.3556,-3.3683,-3.3852,-3.423,-3.4314,-3.4356,-3.4397,-3.4437,-3.4672,-3.492,-3.5129,-3.4999,-3.4986,-3.5155,-3.4855,-3.4397,-3.4397,-3.4397,-3.4397,-3.4397,-3.4397,-3.4397,-3.4319,-3.4241,-3.4123,-3.3835,-3.3509,-3.321,-3.2686,-3.2331,-3.2013,-3.1812,-3.1424,-3.1508,-3.1633,-3.1669,-3.1706,-3.1803,-3.184,-3.1986,-3.2096,-3.2096,-3.1986,-3.1963,-3.2132,-3.2155,-3.2214,-3.2322,-3.2359,-3.2395,-3.2467,-3.261,-3.286,-3.3094,-3.3234,-3.3339,-3.3528,-3.3681,-3.3839,-3.3997,-3.4182,-3.4332,-3.4501,-3.4687,-3.507,-3.5337,-3.537,-3.5237,-3.5254,-3.5164,-3.4694,-3.4246,-3.3785,-3.3741,-3.412,-3.4045,-3.3925,-3.4076,-3.4455,-3.4106,-3.3893,-3.3995,-3.4039,-3.4069,-3.4175,-3.4404]},{"header":{"parameterUnit":"m.s-1","parameterCategory":1,"la1":31.0,"la2":29.5877,"lo1":-88.7671,"lo2":-86.6584,"dy":0.0162,"dx":0.0185,"nx":115,"ny":88,"refTime":"2023-06-05T18:00:00:Z","depth":0,"parameterNumber":3,"parameterNumberName":"V-component_of_WINDS"},"data":[0.0,0.0,0.0,0.0,0.0,0.0,0.0,0.0,0.0,0.0,0.0,0.0,0.0,0.0,0.0,0.0,0.0,0.0,0.0,0.0,0.0,0.0,0.0,0.0,0.0,0.0,0.0,0.0,0.0,0.0,0.0,0.0,0.0,0.0,0.0,0.0,0.0,0.0,0.0,0.0,0.0,0.0,0.0,0.0,0.0,0.0,0.0,0.0,0.0,0.0,0.0,0.0,0.0,0.0,0.0,0.0,0.0,0.0,0.0,0.0,0.0,0.0,0.0,0.0,0.0,0.0,0.0,0.0,0.0,0.0,0.0,0.0,0.0,0.0,0.0,0.0,0.0,0.0,0.0,0.0,0.0,0.0,0.0,0.0,0.0,0.0,0.0,0.0,0.0,0.0,0.0,0.0,0.0,0.0,0.0,0.0,0.0,0.0,0.0,0.0,0.0,0.0,0.0,0.0,0.0,0.0,0.0,0.0,0.0,0.0,0.0,0.0,0.0,0.0,0.0,0.0,0.0,0.0,0.0,0.0,0.0,0.0,0.0,0.0,0.0,0.0,0.0,0.0,0.0,0.0,0.0,0.0,0.0,0.0,0.0,0.0,0.0,0.0,0.0,0.0,0.0,0.0,0.0,0.0,0.0,0.0,0.0,0.0,0.0,0.0,0.0,0.0,0.0,0.0,0.0,0.0,0.0,0.0,0.0,0.0,0.0,0.0,0.0,0.0,0.0,0.0,0.0,0.0,0.0,0.0,0.0,0.0,0.0,0.0,0.0,0.0,0.0,0.0,0.0,0.0,0.0,0.0,0.0,0.0,0.0,0.0,0.0,0.0,0.0,0.0,0.0,0.0,0.0,0.0,0.0,0.0,0.0,0.0,0.0,0.0,0.0,0.0,0.0,0.0,0.0,0.0,0.0,0.0,0.0,0.0,0.0,0.0,0.0,0.0,0.0,0.0,0.0,0.0,0.0,0.0,0.0,0.0,0.0,0.0,0.0,0.0,0.0,0.0,0.0,0.0,0.0,0.0,0.0,0.0,0.0,0.0,0.0,0.0,0.0,0.0,0.0,0.0,0.0,0.0,0.0,0.0,0.0,0.0,0.0,0.0,0.0,0.0,0.0,0.0,0.0,0.0,0.0,0.0,0.0,0.0,0.0,0.0,0.0,0.0,0.0,0.0,0.0,0.0,0.0,0.0,0.0,0.0,0.0,0.0,0.0,0.0,0.0,0.0,0.0,0.0,0.0,0.0,0.0,0.0,0.0,0.0,0.0,0.0,0.0,0.0,0.0,0.0,0.0,0.0,0.0,0.0,0.0,0.0,0.0,0.0,0.0,0.0,0.0,0.0,0.0,0.0,0.0,0.0,0.0,0.0,0.0,0.0,0.0,0.0,0.0,0.0,0.0,0.0,0.0,0.0,0.0,0.0,0.0,0.0,0.0,0.0,0.0,0.0,0.0,0.0,0.0,0.0,0.0,0.0,0.0,0.0,0.0,0.0,0.0,0.0,0.0,0.0,0.0,0.0,0.0,0.0,0.0,0.0,0.0,0.0,0.0,0.0,0.0,0.0,0.0,0.0,0.0,0.0,0.0,0.0,0.0,0.0,0.0,0.0,0.0,0.0,0.0,0.0,0.0,0.0,0.0,0.0,0.0,0.0,0.0,0.0,0.0,0.0,0.0,0.0,0.0,0.0,0.0,0.0,0.0,0.0,0.0,0.0,0.0,0.0,0.0,0.0,0.0,0.0,0.0,0.0,0.0,0.0,0.0,0.0,0.0,0.0,0.0,0.0,0.0,0.0,0.0,0.0,0.0,0.0,0.0,0.0,0.0,0.0,0.0,0.0,0.0,0.0,0.0,0.0,0.0,0.0,0.0,0.0,0.0,0.0,0.0,0.0,0.0,0.0,0.0,0.0,0.0,0.0,0.0,0.0,0.0,0.0,0.0,0.0,0.0,0.0,0.0,0.0,0.0,0.0,0.0,0.0,0.0,0.0,0.0,0.0,0.0,0.0,0.0,0.0,0.0,0.0,0.0,0.0,0.0,0.0,0.0,0.0,0.0,0.0,0.0,0.0,0.0,0.0,0.0,0.0,0.0,0.0,0.0,0.0,0.0,0.0,0.0,0.0,0.0,0.0,0.0,0.0,0.0,0.0,0.0,0.0,0.0,0.0,0.0,0.0,0.0,0.0,0.0,0.0,0.0,0.0,0.0,0.0,0.0,0.0,0.0,0.0,0.0,0.0,0.0,0.0,0.0,0.0,0.0,0.0,0.0,0.0,0.0,0.0,0.0,0.0,0.0,0.0,0.0,0.0,0.0,0.0,0.0,0.0,0.0,0.0,0.0,0.0,0.0,0.0,0.0,0.0,0.0,0.0,0.0,0.0,0.0,0.0,0.0,0.0,0.0,0.0,0.0,0.0,0.0,0.0,0.0,0.0,0.0,0.0,0.0,0.0,0.0,0.0,0.0,0.0,0.0,0.0,0.0,0.0,0.0,0.0,0.0,0.0,0.0,0.0,0.0,0.0,0.0,0.0,0.0,0.0,0.0,0.0,0.0,0.0,0.0,0.0,0.0,0.0,0.0,0.0,0.0,0.0,0.0,0.0,0.0,0.0,0.0,0.0,0.0,0.0,0.0,0.0,0.0,0.0,0.0,0.0,0.0,0.0,0.0,0.0,0.0,0.0,0.0,0.0,0.0,0.0,0.0,0.0,0.0,0.0,0.0,0.0,0.0,0.0,0.0,0.0,0.0,0.0,0.0,0.0,0.0,0.0,0.0,0.0,0.0,0.0,0.0,0.0,0.0,0.0,0.0,0.0,0.0,0.0,0.0,0.0,0.0,0.0,0.0,0.0,0.0,0.0,0.0,0.0,0.0,0.0,0.0,0.0,0.0,0.0,0.0,0.0,0.0,0.0,0.0,0.0,0.0,0.0,0.0,0.0,0.0,0.0,0.0,0.0,0.0,0.0,0.0,0.0,0.0,0.0,0.0,0.0,0.0,0.0,0.0,0.0,0.0,0.0,0.0,0.0,0.0,0.0,0.0,0.0,0.0,0.0,0.0,0.0,0.0,0.0,0.0,0.0,0.0,0.0,0.0,0.0,0.0,0.0,0.0,0.0,0.0,0.0,0.0,0.0,0.0,0.0,0.0,0.0,0.0,0.0,0.0,0.0,0.0,0.0,0.0,0.0,0.0,0.0,0.0,0.0,0.0,0.0,0.0,0.0,0.0,0.0,0.0,0.0,0.0,0.0,0.0,0.0,0.0,0.0,0.0,0.0,0.0,0.0,0.0,0.0,0.0,0.0,0.0,0.0,0.0,0.0,0.0,0.0,0.0,0.0,0.0,0.0,0.0,0.0,0.0,0.0,0.0,0.0,0.0,0.0,0.0,0.0,0.0,0.0,0.0,0.0,0.0,0.0,0.0,0.0,0.0,0.0,0.0,0.0,0.0,0.0,0.0,0.0,0.0,0.0,0.0,0.0,0.0,0.0,0.0,0.0,0.0,0.0,0.0,0.0,0.0,0.0,0.0,0.0,0.0,0.0,0.0,0.0,0.0,0.0,0.0,0.0,0.0,0.0,0.0,0.0,0.0,0.0,0.0,0.0,0.0,0.0,0.0,0.0,0.0,0.0,0.0,0.0,0.0,0.0,0.0,0.0,0.0,0.0,0.0,0.0,0.0,0.0,0.0,0.0,0.0,0.0,0.0,0.0,0.0,0.0,0.0,0.0,0.0,0.0,0.0,0.0,0.0,0.0,0.0,0.0,0.0,0.0,0.0,0.0,0.0,0.0,0.0,0.0,0.0,0.0,0.0,0.0,0.0,0.0,0.0,0.0,0.0,0.0,0.0,0.0,0.0,0.0,0.0,0.0,0.0,0.0,0.0,0.0,0.0,0.0,0.0,0.0,0.0,0.0,0.0,0.0,0.0,0.0,0.0,0.0,0.0,0.0,0.0,0.0,0.0,0.0,0.0,0.0,0.0,0.0,0.0,0.0,0.0,0.0,0.0,0.0,0.0,0.0,0.0,0.0,0.0,0.0,0.0,0.0,0.0,0.0,0.0,0.0,0.0,0.0,0.0,0.0,0.0,0.0,0.0,0.0,0.0,0.0,0.0,0.0,0.0,0.0,0.0,0.0,0.0,0.0,0.0,0.0,0.0,0.0,0.0,0.0,0.0,0.0,0.0,0.0,0.0,0.0,0.0,0.0,0.0,0.0,0.0,0.0,0.0,0.0,0.0,0.0,0.0,0.0,0.0,0.0,0.0,0.0,0.0,0.0,-0.2497,0.0,0.0,0.0,0.0,0.0,0.0,0.0,0.0,0.0,0.0,0.0,0.0,0.0,0.0,0.0,0.0,0.0,0.0,0.0,0.0,0.0,0.0,0.0,0.0,0.0,0.0,0.0,0.0,0.0,0.0,0.0,0.0,0.0,0.0,0.0,0.0,0.0,0.0,0.0,0.0,0.0,0.0,0.0,0.0,0.0,0.0,0.0,0.0,0.0,0.0,0.0,0.0,0.0,0.0,0.0,0.0,0.0,0.0,0.0,0.0,0.0,0.0,0.0,0.0,0.0,0.0,0.0,0.0,0.0,0.0,0.0,0.0,0.0,0.0,0.0,0.0,0.0,0.0,0.0,0.0,0.0,0.0,0.0,0.0,0.0,0.0,0.0,0.0,0.0,0.0,0.0,0.0,0.0,0.0,0.0,0.0,0.0,0.0,0.0,0.0,0.0,0.0,0.0,0.0,0.0,0.0,0.0,0.0,0.0,0.0,-0.0252,-0.0655,-0.1091,-0.1474,-0.1765,0.0,0.0,0.0,0.0,0.0,0.0,0.0,0.0,0.0,0.0,0.0,0.0,0.0,0.0,0.0,0.0,0.0,0.0,0.0,0.0,0.0,0.0,0.0,0.0,0.0,0.0,0.0,0.0,0.0,0.0,0.0,0.0,0.0,0.0,0.0,0.0,0.0,0.0,0.0,0.0,0.0,0.0,0.0,0.0,0.0,0.0,0.0,0.0,0.0,0.0,0.0,0.0,0.0,0.0,0.0,0.0,0.0,0.0,0.0,0.0,0.0,0.0,0.0,0.0,0.0,0.0,0.0,0.0,0.0,0.0,0.0,0.0,0.0,0.0,0.0,0.0,0.0,0.0,0.0,0.0,0.0,0.0,0.0,0.0,0.0,0.0,0.0,0.0,0.0,0.0,0.0,0.0,0.0,0.0,0.0,0.0,0.0,0.0,0.0,0.0,0.0,0.0,0.0,0.0,0.0,0.0,0.0,0.0,0.0,0.0,0.0,0.0,-0.0589,-0.0861,-0.0996,0.0,0.0,0.0,0.0,0.0,0.0,0.0,0.0,0.0,0.0,0.0,0.0,0.0,0.0,0.0,0.0,0.0,0.0,0.0,0.0,0.0,0.0,0.0,0.0,0.0,0.0,0.0,0.0,0.0,0.0,0.0,0.0,0.0,0.0,0.0,0.0,0.0,0.0,0.0,0.0,0.0,0.0,0.0,0.0,0.0,0.0,0.0,0.0,0.0,0.0,0.0,0.0,0.0,0.0,0.0,0.0,0.0,0.0,0.0,0.0,0.0,0.0,0.0,0.0,0.0,0.0,0.0,0.0,0.0,0.0,0.0,0.0,0.0,0.0,0.0,0.0,0.0,0.0,0.0,0.0,0.0,0.0,0.0,0.0,0.0,0.0,0.0,0.0,0.0,0.0,0.0,0.0,0.0,0.0,0.0,0.0,0.0,0.0,0.0,0.0,0.0,0.0,0.0,0.0,0.0,0.0,0.0,0.0,0.0,0.0,0.0111,-0.0028,-0.0296,0.0,-0.012,0.0,0.0,0.0,0.0,0.0,0.0,0.0,0.0,0.0,0.0,0.0,0.0,0.0,0.0,0.0,0.0,0.0,0.0,0.0,0.0,0.0,0.0,0.0,0.0,0.0,0.0,0.0,0.0,0.0,0.0,0.0,0.0,0.0,0.0,0.0,0.0,0.0,0.0,0.0,0.0,0.0,0.0,0.0,0.0,0.0,0.0,0.0,0.0,0.0,0.0,0.0,0.0,0.0,0.0,0.0,0.0,0.0,0.0,0.0,0.0,0.0,0.0,0.0,0.0,0.0,0.0,0.0,0.0,0.0,0.0,0.0,0.0,0.0,0.0,0.0,0.0,0.0,0.0,0.0,0.0,0.0,0.0,0.0,0.0,0.0,0.0,0.0,0.0,0.0,0.0,0.0,0.0,0.0,0.0,0.0,0.0,0.0,0.0,0.0,0.0,0.0,0.0,0.0,0.0,0.0,0.0,0.0,0.0,0.0,0.0,0.0226,0.0289,0.0257,0.038,0.0,0.0,0.0,0.0,0.0,0.0,0.0,0.0,0.0,0.0,0.0,0.0,0.0,0.0,0.0,0.0,0.0,0.0,0.0,0.0,0.0,0.0,0.0,0.0,0.0,0.0,0.0,0.0,0.0,0.0,0.0,0.0,0.0,0.0,0.0,0.0,0.0,0.0,0.0,0.0,0.0,0.0,0.0,0.0,0.0,0.0,0.0,0.0,0.0,0.0,0.0,0.0,0.0,0.0,0.0,0.0,0.0,0.0,0.0,0.0,0.0,0.0,0.0,0.0,0.0,0.0,0.0,0.0,0.0,0.0,0.0,0.0,0.0,0.0,0.0,0.0,0.0,0.0,0.0,0.0,0.0,0.0,0.0,0.0,0.0,0.0,0.0,0.0,0.0,0.0,0.0,0.0,0.0,0.0,0.0,0.0,0.0,0.0,0.0,0.0,0.0,0.0,0.0,0.0,0.0,0.0,0.0,0.0,0.0,0.0,0.0311,0.0288,0.0471,0.0707,0.0928,0.1064,0.0,0.0,0.0,0.0,0.0,0.0,0.0,0.0,0.0,0.0,0.0,0.0,0.0,0.0,0.0,0.0,0.0,0.0,0.0,0.0,0.0,0.0,0.0,0.0,0.0,0.0,0.0,0.0,0.0,0.0,0.0,0.0,0.0,0.0,0.0,0.0,0.0,0.0,0.0,0.0,0.0,0.0,0.0,0.0,0.0,0.0,0.0,0.0,0.0,0.0,0.0,0.0,0.0,0.0,0.0,0.0,0.0,0.0,0.0,0.0,0.0,0.0,0.0,0.0,0.0,0.0,0.0,0.0,0.0,0.0,0.0,0.0,0.0,0.0,0.0,0.0,0.0,0.0,0.0,0.0,0.0,0.0,0.0,0.0,0.0,0.0,0.0,0.0,0.0,0.0,0.0,0.0,0.0,0.0,0.0,0.0,0.0,0.0,0.0,0.0,0.0,0.0,0.0,0.0,0.0,0.0,0.0,0.0,0.0056,0.0145,0.0265,0.0412,0.0914,0.121,0.0,0.0,0.0,0.0,0.0,0.0,0.0,0.0,0.0,0.0,0.0,0.0,0.0,0.0,0.0,0.0,0.0,0.0,0.0,0.0,0.0,0.0,0.0,0.0,0.0,0.0,0.0,0.0,0.0,0.0,0.0,0.0,0.0,0.0,0.0,0.0,0.0,0.0,0.0,0.0,0.0,0.0,0.0,0.0,0.0,0.0,0.0,0.0,0.0,0.0,0.0,0.0,0.0,0.0,0.0,0.0,0.0,0.0,0.0,0.0,0.0,0.0,0.0,0.0,0.0,0.0,0.0,0.0,0.0,0.0,0.0,0.0,0.0,0.0,0.0,0.0,0.0,0.0,0.0,0.0,0.0,0.0,0.0,0.0,0.0,0.0,0.0,0.0,0.0,0.0,0.0,0.0,0.0,0.0,0.0,0.0,0.0,0.0,0.0,0.0,0.0,0.0,0.0,0.0,0.0,0.0,0.0,0.0,0.0,-0.0224,-0.0059,0.024,0.059,0.0871,0.115,0.0,0.0,0.0,0.0,0.0,0.0,0.0,0.0,0.0,0.0,0.0,0.0,0.0,0.0,0.0,0.0,0.0,0.0,0.0,0.0,0.0,0.0,0.0,0.0,0.0,0.0,0.0,0.0,0.0,0.0,0.0,0.0,0.0,0.0,0.0,0.0,0.0,0.0,0.0,0.0,0.0,0.0,0.0,0.0,0.0,0.0,0.0,0.0,0.0,0.0,0.0,0.0,0.0,0.0,0.0,0.0,0.0,0.0,0.0,0.0,0.0,0.0,0.0,0.0,0.0,0.0,0.0,0.0,0.0,0.0,0.0,0.0,0.0,0.0,0.0,0.0,0.0,0.0,0.0,0.0,0.0,0.0,0.0,0.0,0.0,0.0,0.0,0.0,0.0,0.0,0.0,0.0,0.0,0.0,0.0,0.0,0.0,0.0,0.0,0.0,0.0,0.0,0.0,0.0,0.0,0.0,0.0,0.0,0.0,-0.0404,0.0,0.0124,0.0456,0.0737,0.1054,0.0,0.0,0.0,0.0,0.0,0.0,0.0,0.0,0.0,0.0,0.0,0.0,0.0,0.0,0.0,0.0,0.0,0.0,0.0,0.0,0.0,0.0,0.0,0.0,0.0,0.0,0.0,0.0,0.0,0.0,0.0,0.0,0.0,0.0,0.0,0.0,0.0,0.0,0.0,0.0,0.0,0.0,0.0,0.0,0.0,0.0,0.0,0.0,0.0,0.0,0.0,0.0,0.0,0.0,0.0,0.0,0.0,0.0,0.0,0.0,0.0,0.0,0.0,0.0,0.0,0.0,0.0,0.0,0.0,0.0,0.0,0.0,0.0,0.0,0.0,0.0,0.0,0.0,0.0,0.0,0.0,0.0,0.0,0.0,0.0,0.0,0.0,0.0,0.0,0.0,0.0,0.0,0.0,0.0,0.0,0.0,0.0,0.0,0.0,0.0,0.0,0.0,0.0,0.0,0.0,0.0,0.0,0.0,-0.0435,-0.0492,-0.0318,-0.0129,0.0,0.0565,0.0887,0.0,0.0,0.0,0.0,0.0,0.0,0.0,0.0,0.0,0.0,0.0,0.0,0.0,0.0,0.0,0.0,0.0,0.0,0.0,0.0,0.0,0.0,0.0,0.0,0.0,0.0,0.0,0.0,0.0,0.0,0.0,0.0,0.0,0.0,0.0,0.0,0.0,0.0,0.0,0.0,0.0,0.0,0.0,0.0,0.0,0.0,0.0,0.0,0.0,0.0,0.0,0.0,0.0,0.0,0.0,0.0,0.0,0.0,0.0,0.0,0.0,0.0,0.0,0.0,0.0,0.0,0.0,0.0,0.0,0.0,0.0,0.0,0.0,0.0,0.0,0.0,0.0,0.0,0.0,0.0,0.0,0.0,0.0,0.0,0.0,0.0,0.0,0.0,0.0,0.0,0.0,0.0,0.0,0.0,0.0,0.0,0.0,0.0,0.0,0.0,0.0,0.0,0.0,0.0,0.0,0.0,0.0,0.0,0.0,-0.0491,-0.043,-0.0233,0.0133,0.0323,0.0544,0.0,0.0,0.0,0.0,0.0,0.0,0.0,0.0,0.0,0.0,0.0,0.0,0.0,0.0,0.0,0.0,0.0,0.0,0.0,0.0,0.0,0.0,0.0,0.0,0.0,0.0,0.0,0.0,0.0,0.0,0.0,0.0,0.0,0.0,0.0,0.0,0.0,0.0,0.0,0.0,0.0,0.0,0.0,0.0,0.0,0.0,0.0,0.0,0.0,0.0,0.0,0.0,0.0,0.0,0.0,0.0,0.0,0.0,0.0,0.0,0.0,0.0,0.0,0.0,0.0,0.0,0.0,0.0,0.0,0.0,0.0,0.0,0.0,0.0,0.0,0.0,0.0,0.0,0.0,0.0,0.0,0.0,0.0,0.0,0.0,0.0,0.0,0.0,0.0,0.0,0.0,0.0,0.0,0.0,0.0,0.0,0.0,0.0,0.0,0.0,0.0,0.0,0.0,0.0,0.0,0.0,0.0,0.0,0.0,-0.0178,-0.0248,-0.0176,0.0,0.0238,0.0412,0.0567,0.0,0.0,0.0,0.0,0.0,0.0,0.0,0.0,0.0,0.0,0.0,0.0,0.0,0.0,0.0,0.0,0.0,0.0,0.0,0.0,0.0,0.0,0.0,0.0,0.0,0.0,0.0,0.0,0.0,0.0,0.0,0.0,0.0,0.0,0.0,0.0,0.0,0.0,0.0,0.0,0.0,0.0,0.0,0.0,0.0,0.0,0.0,0.0,0.0,0.0,0.0,0.0,0.0,0.0,0.0,0.0,0.0,0.0,0.0,0.0,0.0,0.0,0.0,0.0,0.0,0.0,0.0,0.0,0.0,0.0,0.0,0.0,0.0,0.0,0.0,0.0,0.0,0.0,0.0,0.0,0.0,0.0,0.0,0.0,0.0,0.0,0.0,0.0,0.0,0.0,0.0,0.0,0.0,0.0,0.0,0.0,0.0,0.0,0.0,0.0,0.0,0.0,0.0,0.0,0.0,0.0,0.0,0.0,0.0472,0.0309,0.0076,-0.0227,0.0325,0.0507,0.0,0.0,0.0,0.0,0.0,0.0,0.0,0.0,0.0,0.0,0.0,0.0,0.0,0.0,0.0,0.0,0.0,0.0,0.0,0.0,0.0,0.0,0.0,0.0,0.0,0.0,0.0,0.0,0.0,0.0,0.0,0.0,0.0,0.0,0.0,0.0,0.0,0.0,0.0,0.0,0.0,0.0,0.0,0.0,0.0,0.0,0.0,0.0,0.0,0.0,0.0,0.0,0.0,0.0,0.0,0.0,0.0,0.0,0.0,0.0,0.0,0.0,0.0,0.0,0.0,0.0,0.0,0.0,0.0,0.0,0.0,0.0,0.0,0.0,0.0,0.0,0.0,0.0,0.0,0.0,0.0,0.0,0.0,0.0,0.0,0.0,0.0,0.0,0.0,0.0,0.0,0.0,0.0,0.0,0.0,0.0,0.0,0.0,0.0,0.0,0.0,0.0,0.0,0.0,0.0,0.0,0.0,0.0,0.0,0.1152,0.1527,0.1294,0.0507,0.0593,0.062,0.0,0.0,0.0,0.0,0.0,0.0,0.0,0.0,0.0,0.0,0.0,0.0,0.0,0.0,0.0,0.0,0.0,0.0,0.0,0.0,0.0,0.0,0.0,0.0,0.0,0.0,0.0,0.0,0.0,0.0,0.0,0.0,0.0,0.0,0.0,0.0,0.0,0.0,0.0,0.0,0.0,0.0,0.0,0.0,0.0,0.0,0.0,0.0,0.0,0.0,0.0,0.0,0.0,0.0,0.0,0.0,0.0,0.0,0.0,0.0,0.0,0.0,0.0,0.0,0.0,0.0,0.0,0.0,0.0,0.0,0.0,0.0,0.0,0.0,0.0,0.0,0.0,0.0,0.0,0.0,0.0,0.0,0.0,0.0,0.0,0.0,0.0,0.0,0.0,0.0,0.0,0.0,0.0,0.0,0.0,0.0,0.0,0.0,0.0,0.0,0.0,0.0,0.0,0.0,0.0,0.0,0.0,0.0,0.1516,0.1872,0.2356,0.2299,0.1666,0.1339,0.1056,0.0,0.0,0.0,0.0,0.0,0.0,0.0,0.0,0.0,0.0,0.0,0.0,0.0,0.0,0.0,0.0,0.0,0.0,0.0,0.0,0.0,0.0,0.0,0.0,0.0,0.0,0.0,0.0,0.0,0.0,0.0,0.0,0.0,0.0,0.0,0.0,0.0,0.0,0.0,0.0,0.0,0.0,0.0,0.0,0.0,0.0,0.0,0.0,0.0,0.0,0.0,0.0,0.0,0.0,0.0,0.0,0.0,0.0,0.0,0.0,0.0,0.0,0.0,0.0,0.0,0.0,0.0,0.0,0.0,0.0,0.0,0.0,0.0,0.0,0.0,0.0,0.0,0.0,0.0,0.0,0.0,0.0,0.0,0.0,0.0,0.0,0.0,0.0,0.0,0.0,0.0,0.0,0.0,0.0,0.0,0.0,0.0,0.0,0.0,0.0,0.0,0.0,0.0,0.0,0.0,0.0,0.0,0.0,0.2151,0.2654,0.2998,0.3171,0.3154,0.2325,0.1636,0.0,0.0,0.0,0.0,0.0,0.0,0.0,0.0,0.0,0.0,0.0,0.0,0.0,0.0,0.0,0.0,0.0,0.0,0.0,0.0,0.0,0.0,0.0,0.0,0.0,0.0,0.0,0.0,0.0,0.0,0.0,0.0,0.0,0.0,0.0,0.0,0.0,0.0,0.0,0.0,0.0,0.0,0.0,0.0,0.0,0.0,0.0,0.0,0.0,0.0,0.0,0.0,0.0,0.0,0.0,0.0,0.0,0.0,0.0,0.0,0.0,0.0,0.0,0.0,0.0,0.0,0.0,0.0,0.0,0.0,0.0,0.0,0.0,0.0,0.0,0.0,0.0,0.0,0.0,0.0,0.0,0.0,0.0,0.0,0.0,0.0,0.0,0.0,0.0,0.0,0.0,0.0,0.0,0.0,0.0,0.0,0.0,0.0,0.0,0.0,0.0,0.0,0.0,0.0,0.0,0.0,0.0,0.0,0.3016,0.3684,0.4079,0.425,0.4231,0.3053,0.226,0.0,0.0,0.0,0.0,0.0,0.0,0.0,0.0,0.0,0.0,0.0,0.0,0.0,0.0,0.0,0.0,0.0,0.0,0.0,0.0,0.0,0.0,0.0,0.0,0.0,0.0,0.0,0.0,0.0,0.0,0.0,0.0,0.0,0.0,0.0,0.0,0.0,0.0,0.0,0.0,0.0,0.0,0.0,0.0,0.0,0.0,0.0,0.0,-0.4276,0.0,0.0,0.0,0.0,0.0,0.0,0.0,0.0,0.0,0.0,0.0,0.0,0.0,0.0,0.0,0.0,0.0,0.0,0.0,0.0,0.0,0.0,0.0,0.0,0.0,0.0,0.0,0.0,0.0,0.0,0.0,0.0,0.0,0.0,0.0,0.0,0.0,0.0,0.0,0.0,0.0,0.0,0.0,0.0,0.0,0.0,0.0,0.0,0.0,0.0,0.0,0.0,0.0,0.0,0.0,0.0,0.0,0.0,0.0,0.3812,0.4508,0.4846,0.5064,0.5192,0.4239,0.336,0.0,0.0,0.0,0.0,0.0,0.0,0.0,0.0,0.0,0.0,0.0,0.0,0.0,0.0,0.0,0.0,0.0,0.0,0.0,0.0,0.0,0.0,0.0,0.0,0.0,0.0,0.0,0.0,0.0,0.0,0.0,0.0,0.0,0.0,0.0,0.0,0.0,0.0,0.0,0.0,0.0,0.0,0.0,0.0,0.0,0.0,0.0,0.0,0.0,0.0,0.0,0.0,0.0,0.0,0.0,0.0,0.0,0.0,0.0,0.0,0.0,0.0,0.0,0.0,0.0,0.0,0.0,0.0,0.0,0.0,0.0,0.0,0.0,0.0,0.0,0.0,0.0,0.0,0.0,0.0,0.0,0.0,0.0,0.0,0.0,0.0,0.0,0.0,0.0,0.0,0.0,0.0,0.0,0.0,0.0,0.0,0.0,0.0,0.0,0.0,0.0,0.0,0.0,0.0,0.0,0.0,0.0,0.3985,0.4618,0.5323,0.5599,0.5845,0.6054,0.5542,0.4654,0.3374,0.0,0.0,0.0,0.0,0.0,0.0,0.0,0.0,0.0,0.0,0.0,0.0,0.0,0.0,0.0,0.0,0.0,0.0,0.0,0.0,0.0,0.0,0.0,0.0,0.0,0.0,0.0,0.0,0.0,0.0,0.0,0.0,0.0,0.0,0.0,0.0,0.0,0.0,-0.1439,-0.1855,0.0,0.0,0.0,0.0,0.0,0.0,0.0,0.0,-0.37,0.0,0.0,0.0,0.0,0.0,0.0,0.0,0.0,0.0,0.0,0.0,0.0,0.0,0.0,0.0,0.0,0.0,0.0,0.0,0.0,0.0,0.0,0.0,0.0,0.0,0.0,0.0,0.0,0.0,0.0,0.0,0.0,0.0,0.0,0.0,0.0,0.0,0.0,0.0,0.0,0.0,0.0,0.0,0.0,0.0,0.0,0.0,0.0,0.0,0.0,0.0,0.0,0.0,0.0,0.0,0.0,0.4356,0.4913,0.5554,0.634,0.6639,0.6805,0.6907,0.6525,0.5844,0.4763,0.0,0.0,0.0,0.0,0.0,0.0,0.0,0.0,0.0,0.0,0.0,0.0,0.0,0.0,0.0,0.0,0.0,0.0,0.0,0.0,0.0,0.0,0.0,0.0,0.0,0.0,0.0,0.0,0.0,0.0,0.0,0.0,0.0,0.0,0.0,0.0,0.0,0.0,0.0,-0.1791,-0.2094,0.0,0.0,0.0,0.0,0.0,0.0,0.0,0.0,-0.3767,0.0,0.0,0.0,0.0,0.0,0.0,0.0,0.0,0.0,0.0,0.0,0.0,0.0,0.0,0.0,0.0,0.0,0.0,0.0,0.0,0.0,0.0,0.0,0.0,0.0,0.0,0.0,0.0,0.0,0.0,0.0,0.0,0.0,0.0,0.0,0.0,0.0,0.0,0.0,0.0,0.0,0.0,0.0,0.0,0.0,0.0,0.0,0.0,0.0,0.0,0.0,0.0,0.0,0.0,0.0,0.5253,0.5909,0.6584,0.724,0.7494,0.7665,0.7667,0.7075,0.6371,0.0,0.0,0.0,0.0,0.0,0.0,0.0,0.0,0.0,0.0,0.0,0.0,0.0,0.0,0.0,0.0,0.0,0.0,0.0,0.0,0.0,0.0,0.0,0.0,0.0,0.0,0.0,0.0,0.0,0.0,0.0,0.0,0.0,0.0,0.0,0.0,0.0,0.0,0.0,0.0,-0.2012,-0.2268,-0.2344,0.0,0.0,0.0,0.0,0.0,0.0,-0.3093,-0.3118,0.0,0.0,0.0,0.0,0.0,0.0,0.0,0.0,0.0,0.0,0.0,0.0,0.0,0.0,0.0,0.0,0.0,0.0,0.0,0.0,0.0,0.0,0.0,0.0,0.0,0.0,0.0,0.0,0.0,0.0,0.0,0.0,0.0,0.0,0.0,0.0,0.0,0.0,0.0,0.0,0.0,0.0,0.0,0.0,0.0,0.0,0.0,0.0,0.0,0.0,0.0,0.0,0.0,0.0,0.0,0.6145,0.6864,0.7525,0.8149,0.8312,0.8379,0.8338,0.7553,0.6805,0.0,0.0,0.0,0.0,0.0,0.0,0.0,0.0,0.0,0.0,0.0,0.0,0.0,0.0,0.0,0.0,0.0,0.0,0.0,0.0,0.0,0.0,0.0,0.0,0.0,0.0,0.0,0.0,0.0,0.0,0.0,0.0,0.0,0.0,0.0,0.0,0.0,0.0,0.0,0.0,0.0,-0.2462,-0.2433,-0.2391,0.0,0.0,0.0,0.0,-0.2319,-0.2315,0.0,0.0,0.0,0.0,0.0,0.0,0.0,0.0,0.0,0.0,0.0,0.0,0.0,0.0,0.0,0.0,0.0,0.0,0.0,0.0,0.0,0.0,0.0,0.0,0.0,0.0,0.0,0.0,0.0,0.0,0.0,0.0,0.0,0.0,0.0,0.0,0.0,0.0,0.0,0.0,0.0,0.0,0.0,0.0,0.0,0.0,0.0,0.0,0.0,0.0,0.0,0.0,0.0,0.0,0.0,0.0,0.7027,0.7668,0.834,0.9073,0.911,0.9027,0.8897,0.8306,0.7491,0.0,0.0,0.0,0.0,0.0,0.0,0.0,0.0,0.0,0.0,0.0,0.0,0.0,0.0,0.0,0.0,0.0,0.0,0.0,0.0,0.0,0.0,0.0,0.0,0.0,0.0,0.0,0.0,0.0,0.0,0.0,0.0,0.0,0.0,0.0,0.0,0.0,0.0,0.0,0.0,0.0,-0.2282,-0.2164,-0.2031,-0.1972,0.0,0.0,-0.1701,-0.1713,-0.1705,0.0,0.0,0.0,0.0,0.0,0.0,0.0,0.0,0.0,0.0,0.0,0.0,0.0,0.0,0.0,0.0,0.0,0.0,0.0,0.0,0.0,0.0,0.0,0.0,0.0,0.0,0.0,0.0,0.0,0.0,0.0,0.0,0.0,0.0,0.0,0.0,0.0,0.0,0.0,0.0,0.0,0.0,0.0,0.0,0.0,0.0,0.0,0.0,0.0,0.0,0.0,0.0,0.0,0.0,0.0,0.6912,0.769,0.8429,0.902,0.954,0.9716,0.9636,0.9352,0.8612,0.7797,0.0,0.0,0.0,0.0,0.0,0.0,0.0,0.0,0.0,0.0,0.0,0.0,0.0,0.0,0.0,0.0,0.0,0.0,0.0,0.0,0.0,0.0,0.0,0.0,0.0,0.0,0.0,0.0,0.0,0.0,0.0,0.0,0.0,0.0,0.0,0.0,0.0,0.0,0.0,0.0,0.0,0.0,-0.1746,-0.1557,0.0,0.0,0.0,-0.0921,-0.0909,0.0,0.0,0.0,0.0,0.0,0.0,0.0,0.0,0.0,0.0,0.0,0.0,0.0,0.0,0.0,0.0,0.0,0.0,0.0,0.0,0.0,0.0,0.0,0.0,0.0,0.0,0.0,0.0,0.0,0.0,0.0,0.0,0.0,0.0,0.0,0.0,0.0,0.0,0.0,0.0,0.0,0.0,0.0,0.0,0.0,0.0,0.0,0.0,0.0,0.0,0.0,0.0,0.0,0.0,0.0,0.0,0.0,0.8264,0.9091,0.9688,1.0051,1.0275,1.0215,0.9793,0.9015,0.0,0.0,0.0,0.0,0.0,0.0,0.0,0.0,0.0,0.0,0.0,0.0,0.0,0.0,0.0,0.0,0.0,0.0,0.0,0.0,0.0,0.0,0.0,0.0,0.0,0.0,0.0,-0.0656,0.0,0.0,0.0,0.0,0.0,0.0,0.0,0.0,0.0,0.0,0.0,0.0,0.0,0.0,-0.1745,-0.1271,-0.1003,-0.0787,0.0,0.0,-0.0094,-0.0094,-0.0122,-0.0119,0.0,0.0,0.0,0.0,0.0,0.0,0.0,0.0,0.0,0.0,0.0,0.0,0.0,0.0,0.0,0.0,0.0,0.0,0.0,0.0,0.0,0.0,0.0,0.0,0.0,0.0,0.0,0.0,0.0,0.0,0.0,0.0,0.0,0.0,0.0,0.0,0.0,0.0,0.0,0.0,0.0,0.0,0.0,0.0,0.0,0.0,0.0,0.0,0.0,0.0,0.0,0.0,0.0,0.0,0.0,0.8751,0.9612,1.0289,1.0714,1.0942,1.0824,1.0351,0.9696,0.8776,0.0,0.0,0.0,0.0,0.0,0.0,0.0,0.0,0.0,0.0,0.0,0.0,0.0,0.0,0.0,0.0,0.0,0.0,0.0,0.0,0.0,0.0,0.0,0.0,0.0,0.0,0.0,0.0,0.0,0.0,0.0,0.0,0.0,0.0,0.0,0.0,0.0,0.0,0.0,0.0,0.0,-0.1271,-0.0799,-0.0361,-0.0067,0.0,0.0,0.0696,0.0743,0.0659,0.064,0.0711,0.0,0.0,0.0,0.0,0.0,0.0,0.0,0.0,0.0,0.0,0.0,0.0,0.0,0.0,0.0,0.0,0.0,0.0,0.0,0.0,0.0,0.0,0.0,0.0,0.0,0.0,0.0,0.0,0.0,0.0,0.0,0.0,0.0,0.0,0.0,0.0,0.0,0.0,0.0,0.0,0.0,0.0,0.0,0.0,0.0,0.0,0.0,0.0,0.0,0.0,0.0,0.0,0.0,0.8639,0.9063,1.02,1.0849,1.1062,1.1455,1.1351,1.0736,1.0025,0.9153,0.0,0.0,0.0,0.0,0.0,0.0,0.0,0.0,0.0,0.0,0.0,0.0,0.0,0.0,0.0,0.0,0.0,0.0,0.0,0.0,0.0,0.0,0.0,0.0,0.0,0.0,0.0,0.0,0.013,0.0204,0.0445,0.0,0.0,0.0,0.0,0.0,0.0,0.0,0.0,0.0,0.0,-0.0502,-0.0132,0.0234,0.0,0.0,0.1109,0.1474,0.146,0.1496,0.1535,0.1517,0.1299,0.0,0.0,0.0,0.0,0.0,0.0,0.0,0.0,0.0,0.0,0.0,0.0,0.0,0.0,0.0,0.0,0.0,0.0,0.0,0.0,0.0,0.0,0.0,0.0,0.0,0.0,0.0,0.0,0.0,0.0,0.0,0.0,0.0,0.0,0.0,0.0,0.0,0.0,0.0,0.0,0.0,0.0,0.0,0.0,0.0,0.0,0.0,0.0,0.0,0.0,0.0,0.0,0.9119,0.9405,1.0738,1.1436,1.1436,1.204,1.1988,1.1243,1.0607,0.9731,0.0,0.0,0.0,0.0,0.0,0.0,0.0,0.0,0.0,0.0,0.0,0.0,0.0,0.0,0.0,0.0,0.0,0.0,0.0,0.0,0.0,0.0,0.0,0.0,0.0,0.0,0.0,0.0,0.0667,0.0706,0.0845,0.0,0.0,0.0,0.0,0.0,0.0,0.0,0.0,0.0,0.0,0.0287,0.0569,0.0908,0.1176,0.1311,0.1782,0.2151,0.2151,0.2227,0.2309,0.2405,0.0,0.0,0.0,0.0,0.0,0.0,0.0,0.0,0.0,0.0,0.0,0.0,0.0,0.0,0.0,0.0,0.0,0.0,0.0,0.0,0.0,0.0,0.0,0.0,0.0,0.0,0.0,0.0,0.0,0.0,0.0,0.0,0.0,0.0,0.0,0.0,0.0,0.0,0.0,0.0,0.0,0.0,0.0,0.0,0.0,0.0,0.0,0.0,0.0,0.0,0.0,0.0,0.0,0.9554,0.9889,1.1295,1.1976,1.199,1.2763,1.2785,1.2004,1.1502,1.0624,0.9207,0.0,0.0,0.0,0.0,0.0,0.0,0.0,0.0,0.0,0.0,0.0,0.0,0.0,0.0,0.0,0.0,0.0,0.0,0.0,0.0,0.0,0.0,0.0,0.0,0.0,0.0,0.1178,0.1255,0.126,0.0,0.0,0.0,0.0,0.0,0.0,0.0,0.0,0.0,0.0,0.0948,0.1138,0.1272,0.1614,0.1884,0.1884,0.2351,0.2686,0.272,0.2818,0.2989,0.0,0.0,0.0,0.0,0.0,0.0,0.0,0.0,0.0,0.0,0.0,0.0,0.0,0.0,0.0,0.0,0.0,0.0,0.0,0.0,0.0,0.0,0.0,0.0,0.0,0.0,0.0,1.1596,1.1587,0.0,0.0,0.0,0.0,0.0,0.0,0.0,0.0,0.0,0.0,0.0,1.4026,1.4194,0.0,0.0,0.0,0.0,0.0,0.0,0.0,0.0,0.0,0.0,0.0,0.0,1.0221,1.062,1.1995,1.274,1.2762,1.3424,1.3454,1.2721,1.2145,1.1015,0.933,0.0,0.0,0.0,0.0,0.0,0.0,0.0,0.0,0.0,0.0,0.0,0.0,0.0,0.0,0.0,0.0,0.0,0.0,0.0,0.0,0.0,0.0,0.0,0.0,0.0,0.1663,0.0,0.0,0.0,0.0,0.0,0.0,0.0,0.0,0.0,0.0,0.0,0.1781,0.1744,0.1867,0.2051,0.2209,0.2453,0.2654,0.0,0.0,0.0,0.0,0.0,0.0,0.0,0.0,0.0,0.0,0.0,0.0,0.0,0.0,0.3184,0.2117,0.2055,0.2141,0.208,0.0,0.0,0.0,0.0,0.0,0.0,0.0,0.0,0.0,0.0,0.0,0.0,0.0,0.0,0.0,0.0,1.2328,0.0,0.0,0.0,0.0,0.0,0.0,0.0,0.0,1.463,1.4887,1.5039,1.5204,1.5214,0.0,1.4613,1.3895,0.0,0.0,0.0,0.0,0.0,0.0,0.0,0.0,1.1071,1.1488,1.2704,1.3447,1.358,1.4093,1.4054,1.34,1.2444,1.136,1.0155,0.9452,0.8945,0.0,0.0,0.0,0.0,0.0,0.0,0.0,0.0,0.0,0.0,0.0,0.0,0.0,0.0,0.0,0.0,0.0,0.0,0.0,0.0,0.0,0.0,0.0,0.2474,0.0,0.0,0.0,0.0,0.0,0.0,0.0,0.0,0.0,0.2404,0.2662,0.2866,0.2801,0.2951,0.3091,0.3245,0.0,0.0,0.0,0.0,0.0,0.0,0.0,0.5138,0.5585,0.5561,0.5642,0.5957,0.6015,0.5949,0.5802,0.0,0.0,0.3814,0.3648,0.3765,0.3823,0.3947,0.4019,0.4064,0.3852,0.3638,0.0,0.0,0.0,0.0,0.0,0.0,0.0,0.0,1.4294,1.4131,0.0,1.3701,0.0,0.0,0.0,0.0,0.0,0.0,0.0,0.0,1.5514,1.5882,1.6243,1.63,1.6222,1.6071,1.5841,1.546,1.4885,1.3275,0.0,0.0,0.0,0.0,0.0,0.0,1.203,1.2437,1.3429,1.412,1.4427,1.4749,1.463,1.3908,1.2445,1.1636,1.1575,1.0287,0.962,0.9706,0.8987,0.0,0.0,0.0,0.0,0.0,0.0,0.0,0.0,0.0,0.0,0.0,0.0,0.0,0.0,0.0,0.0,0.0,0.0,0.0,0.0,0.3614,0.0,0.0,0.0,0.0,0.0,0.0,0.0,0.0,0.0,0.0,0.3722,0.3958,0.4203,0.3982,0.0,0.0,0.0,0.0,0.4486,0.4815,0.5219,0.5591,0.5939,0.6067,0.6334,0.6854,0.0,0.0,0.7409,0.7637,0.7692,0.7479,0.7428,0.6998,0.5544,0.535,0.5468,0.5646,0.5684,0.5693,0.5732,0.5485,0.525,1.8052,0.0,0.0,0.0,0.0,1.5628,1.5634,1.5718,1.554,1.5229,1.4802,1.4693,0.0,0.0,0.0,0.0,0.0,0.0,1.5516,1.6232,1.699,1.7387,1.7523,1.7995,1.8097,1.7892,1.7126,1.6554,1.6147,1.5123,1.3852,1.2455,0.0,0.0,0.0,0.0,1.2744,1.3162,1.428,1.4951,1.5061,1.5521,1.529,1.428,1.3081,1.2312,1.1976,1.1445,1.0898,1.0363,0.9894,0.0,0.0,0.0,0.0,0.0,0.0,0.0,0.0,0.0,0.0,0.0,0.0,0.0,0.0,0.0,0.0,0.0,0.0,0.0,0.4767,0.4747,0.4707,0.0,0.0,0.0,0.0,0.0,0.0,0.0,0.0,0.0,0.6108,0.5845,0.5529,0.0,0.0,0.5477,0.558,0.5705,0.5903,0.6264,0.0,0.0,0.0,0.7502,0.773,0.8118,0.8511,0.8775,0.8903,0.9064,0.9096,0.8812,0.8753,0.8602,0.8191,0.7611,0.7316,0.7443,0.7575,0.7663,0.7681,0.7423,0.7126,1.9611,1.8458,1.7863,1.7457,1.7171,1.7061,1.6898,1.6705,1.6486,1.6197,1.584,1.5782,1.5419,1.4893,1.4893,0.0,0.0,0.0,1.6697,1.7233,1.8115,1.8516,1.8555,1.8945,1.9031,1.8773,1.8145,1.7651,1.7367,1.6716,1.5704,1.4336,0.0,0.0,1.2941,1.3301,1.3716,1.4147,1.4967,1.5471,1.5687,1.5643,1.5281,1.4625,1.3555,1.286,1.2579,1.2196,1.1736,1.1174,1.0753,1.0232,0.0,0.0,0.0,0.0,0.0,0.0,0.0,0.0,0.0,0.0,0.0,0.5551,0.5578,0.0,0.0,0.0,0.5938,0.6019,0.5907,0.5956,0.0,0.0,0.0,0.0,0.0,0.0,0.0,0.7133,0.7442,0.7675,0.7896,0.7867,0.7535,0.673,0.672,0.6913,0.7191,0.0,0.7465,0.7918,0.833,0.8659,0.8892,0.9152,0.9451,0.9847,1.0313,1.0549,1.0418,1.0594,1.0568,1.026,1.0054,0.9979,0.9973,0.9467,0.8935,0.8763,0.8801,0.8871,0.8909,0.871,0.8452,2.0529,2.0462,1.9781,1.9145,1.8547,1.8428,1.8105,1.7717,1.7371,1.7214,1.7102,1.6882,1.6584,1.6202,1.6193,0.0,0.0,1.7672,1.8076,1.8135,1.8955,1.9336,1.9336,1.9385,1.9284,1.9101,1.8869,1.8656,1.8397,1.8035,1.7515,1.6746,1.5551,1.4711,1.4305,1.4437,1.4781,1.5325,1.5496,1.5825,1.6324,1.5437,1.4935,1.4894,1.3899,1.3333,1.3294,1.2665,1.2245,1.1988,1.1505,1.0956,1.0327,0.0,0.0,0.0,0.0,0.0,0.0,0.0,0.0,0.0,0.0,0.0,0.0,0.0,0.0,0.0,0.7145,0.0,0.716,0.7268,0.0,0.0,0.0,0.7355,0.765,0.7855,0.8158,0.8694,0.0,0.0,0.0,0.0,0.9916,0.8533,0.8376,0.8559,0.8969,0.894,0.9123,0.9662,0.9944,1.0187,1.0489,1.081,1.122,1.1689,1.2158,1.2164,1.192,1.1975,1.1976,1.1601,1.129,1.1048,1.1055,1.0709,1.0396,0.9709,0.962,0.9582,0.9588,0.946,0.93,2.1797,2.1455,2.1286,2.0726,1.991,1.9875,1.9813,1.9689,1.9315,1.8785,1.8197,1.78,1.7407,1.7103,1.7093,1.748,1.8169,1.8364,1.8662,1.9004,1.9531,1.9766,1.9785,2.0107,2.0187,1.9985,1.9639,1.9259,1.8844,1.8443,1.7999,1.7542,1.6929,1.6067,1.5037,1.5307,1.5534,1.5689,1.6118,1.6487,1.6698,1.5846,1.5301,1.5115,1.421,1.3567,1.3302,1.2843,1.241,1.2016,1.1587,1.1034,1.0318,1.0179,0.0,0.0,0.0,0.0,0.0,0.0,0.0,0.0,0.0,0.7463,0.7463,0.0,0.781,0.0,0.8426,0.8638,0.861,0.8486,0.0,0.0,0.8931,0.9251,0.9382,0.9895,1.0355,1.0762,1.0848,1.1028,1.1296,1.1626,1.1714,1.1323,1.059,1.0146,1.0274,1.0526,1.075,1.1026,1.1423,1.1744,1.1874,1.2071,1.2337,1.2593,1.2702,1.277,1.2803,1.2695,1.256,1.2342,1.1931,1.1608,1.1423,1.1044,1.0733,1.0516,1.0421,1.0326,1.0333,1.0168,0.9977,2.2532,2.2118,2.2108,2.1704,2.0984,2.0824,2.0571,2.0374,2.0112,1.9715,1.9296,1.8837,1.8487,1.8257,1.8223,1.8486,1.8926,1.9085,1.9336,1.959,2.001,2.0205,2.0215,2.0498,2.0527,2.044,2.0111,1.9841,1.9582,1.9135,1.8702,1.8319,1.7997,1.7307,1.6244,1.6099,1.6082,1.6142,1.6529,1.6795,1.6846,1.616,1.562,1.5334,1.4501,1.3891,1.3545,1.3233,1.2915,1.2558,1.2262,1.1883,1.1353,1.1074,1.0856,0.0,0.0,0.0,0.0,0.0,0.0,0.0,0.0,0.0,0.0,0.0,0.9024,0.0,0.9736,0.0,1.012,1.0095,1.01,1.0303,1.064,1.0956,1.1149,1.1479,1.1853,1.2233,1.226,1.2335,1.2579,1.2833,1.3032,1.3032,1.2694,1.2242,1.1811,1.1929,1.2144,1.2354,1.2726,1.304,1.3207,1.3334,1.3446,1.3619,1.3662,1.3662,1.3696,1.3585,1.3446,1.3187,1.277,1.2323,1.1945,1.1544,1.117,1.0866,1.0751,1.0688,1.0624,1.0491,1.0371,2.3008,2.2584,2.2522,2.2263,2.1859,2.1393,2.0979,2.055,2.0386,2.0252,2.0165,1.9759,1.9535,1.9402,1.9412,1.9404,1.9473,1.9824,1.999,2.0029,2.0429,2.0615,2.0615,2.0605,2.0615,2.0566,2.042,2.0313,2.0303,1.9872,1.9489,1.9125,1.8848,1.8395,1.7696,1.6902,1.658,1.6647,1.6795,1.6908,1.6899,1.6378,1.5921,1.5504,1.484,1.4272,1.3847,1.3618,1.3415,1.322,1.3073,1.2863,1.26,1.2107,1.1793,0.0,1.1219,0.0,0.0,0.0,0.0,0.0,0.0,0.0,0.0,0.9964,1.0368,1.087,1.1071,1.1303,1.1624,1.1754,1.1914,1.2198,1.2303,1.2461,1.2732,1.2803,1.3002,1.339,1.3424,1.3424,1.3489,1.3826,1.4041,1.4092,1.4297,1.4174,1.3479,1.3244,1.3304,1.36,1.379,1.396,1.4247,1.4358,1.4386,1.4545,1.4514,1.4569,1.4422,1.4358,1.4266,1.3918,1.3512,1.3066,1.2448,1.2056,1.1578,1.1027,1.0839,1.0744,1.0624,1.0586,1.046,2.3474,2.3029,2.2656,2.2439,2.2335,2.1869,2.1621,2.1518,2.1108,2.0648,2.0175,1.9785,1.9756,1.9999,1.987,1.999,2.0361,2.0449,2.0488,2.0478,2.0566,2.0615,2.0615,2.0615,2.0615,2.0615,2.0566,2.045,2.0303,2.0225,2.0031,1.974,1.9209,1.8852,0.0,0.0,0.0,0.0,1.6864,1.6908,1.689,1.648,1.602,1.5504,1.5052,0.0,1.3989,1.3632,1.3391,1.3349,1.3095,0.0,0.0,0.0,0.0,0.0,0.0,0.0,0.0,0.0,0.0,0.0,1.1589,1.1252,1.086,1.1193,1.1619,1.2034,1.2321,1.2661,1.2993,1.2953,1.2922,1.2983,1.3336,1.36,1.3677,1.398,1.4336,1.4556,1.4592,1.4619,1.4771,1.4923,1.4956,1.4947,1.5013,1.4994,1.4787,1.4451,1.4319,1.4382,1.4397,1.4461,1.4533,1.4569,1.4569,1.4605,1.4605,1.4569,1.4569,1.4469,1.4389,1.4281,1.3762,1.32,1.2762,1.2229,1.1704,1.1273,1.0996,1.0776,1.0624,1.0586,1.0498,2.4262,0.0,2.3469,2.3075,0.0,2.2281,2.2014,2.1787,2.1559,2.1219,2.0828,2.0531,2.0464,2.0549,2.0311,2.0352,2.0605,2.0615,2.0615,2.0615,2.0615,2.0615,2.0615,2.0615,2.0615,2.0615,2.0615,2.0527,2.0459,2.0342,2.0225,2.0098,1.9656,1.9285,1.9002,1.8395,1.7816,1.7202,1.7009,1.6908,1.6899,1.6707,1.6379,1.5911,0.0,0.0,0.0,0.0,0.0,0.0,0.0,0.0,0.0,0.0,0.0,1.3206,1.2975,1.2859,1.283,1.2823,1.2783,1.2783,1.3039,1.2907,1.214,1.2458,1.2842,1.3228,1.3429,1.3671,1.3984,1.3964,1.4028,1.4154,1.4399,1.4582,1.4711,1.4885,1.5141,1.53,1.5336,1.5371,1.5505,1.5505,1.5505,1.5505,1.5497,1.5505,1.5461,1.5141,1.4892,1.4756,1.4756,1.4721,1.4605,1.4605,1.4605,1.4605,1.4605,1.4605,1.4605,1.4533,1.4469,1.4382,1.4063,1.3714,1.3137,1.2639,1.2149,1.1675,1.1284,1.0965,1.0744,1.0656,1.046,2.505,2.4656,2.4345,2.3799,2.3085,2.2804,2.2447,2.2035,0.0,0.0,0.0,2.1359,2.1128,2.0945,2.0731,2.0644,2.0605,2.0615,2.0615,2.0615,2.0615,2.0644,2.0723,2.0723,2.0723,2.0723,2.0723,2.0674,2.0615,2.042,2.0342,2.0342,2.0098,1.9693,1.9076,1.8534,1.8101,1.7715,1.7321,1.7092,1.7018,1.7009,1.6789,1.6297,1.5884,1.5446,1.5056,1.4576,1.4375,1.4535,1.4375,1.4366,1.4505,1.4375,1.4244,1.4214,1.397,1.38,1.3808,1.385,1.3892,1.3892,1.434,1.4296,1.3445,1.3662,1.3996,1.4363,1.4438,1.4555,1.4854,1.4887,1.5003,1.5286,1.5311,1.5346,1.5541,1.5541,1.5576,1.577,1.577,1.5805,1.577,1.577,1.5805,1.5805,1.577,1.5805,1.577,1.547,1.5169,1.4999,1.4927,1.4892,1.4713,1.4641,1.4641,1.4605,1.4605,1.4605,1.4605,1.4605,1.4569,1.4461,1.4425,1.4091,1.3525,1.3099,1.265,1.2018,1.1639,1.128,1.094,1.0744,1.0491,2.54,2.5314,2.4699,2.4383,2.4223,2.36,2.321,2.2925,2.2149,2.1807,2.1721,2.155,2.1359,2.1138,2.0945,2.0741,2.0605,2.0615,2.0615,0.0,2.0615,2.0771,2.1093,2.1103,2.1143,2.1103,2.1093,2.0937,2.0644,2.0566,2.0566,2.0527,2.0342,2.0001,1.9524,1.9094,1.8777,1.8531,1.8146,1.7779,1.7422,1.7413,1.7064,1.6358,1.6233,1.5995,1.5593,1.551,1.546,1.5492,1.546,1.5419,1.5323,1.5273,1.5204,1.5062,1.498,1.4956,1.4956,1.4977,1.4971,1.498,1.5056,1.4932,1.4536,1.4677,1.4908,1.5146,1.5222,1.5411,1.5633,1.5632,1.5649,1.5682,1.5691,1.5726,1.5761,1.5761,1.5797,1.5805,1.5805,1.5797,1.5841,1.5841,1.5841,1.5805,1.5841,1.5805,1.5805,1.5611,1.539,1.5204,1.5169,1.5062,1.49,1.4864,1.4792,1.4641,1.4605,1.4605,1.4605,1.4605,1.4605,1.4569,1.4497,1.4264,1.3855,1.3503,1.3009,1.2406,1.2003,1.1621,1.121,1.0925,1.0638,2.6207,2.606,2.5633,2.5218,2.4835,2.3998,2.3596,2.3484,2.2966,2.2671,2.2563,2.2326,2.1996,2.1577,2.1361,2.1026,2.0615,2.0615,2.0615,2.0625,2.082,2.1025,2.12,2.1475,2.1592,2.1572,2.1298,2.1123,2.0918,2.0732,2.0615,2.0615,2.0411,2.0196,1.9981,1.9635,1.9395,1.9153,1.8477,1.8027,1.7844,1.7834,1.7559,1.6963,1.6752,1.6441,1.6046,1.5808,1.5689,1.5689,1.5689,1.5657,1.5624,1.5624,1.556,1.5463,1.5407,1.5366,1.5375,1.5474,1.5655,1.5918,1.597,1.5945,1.5902,1.5615,1.5525,1.5834,1.5912,1.5948,1.5956,1.5964,1.5903,1.5805,1.5805,1.5832,1.5929,1.5964,1.6,1.607,1.607,1.607,1.607,1.607,1.607,1.607,1.6,1.5973,1.5973,1.5788,1.5576,1.539,1.5382,1.5284,1.5106,1.507,1.4999,1.4784,1.4756,1.4713,1.4641,1.4605,1.4605,1.4605,1.4533,1.4442,1.4191,1.3796,1.3343,1.2975,1.2468,1.2075,1.1774,1.1339,1.0709,2.6962,2.6798,2.6498,2.5986,2.5376,2.4578,2.4215,2.4185,2.3963,2.3811,2.3586,2.3165,2.2665,2.213,2.198,2.1581,2.1096,2.1056,2.1017,2.0977,2.1261,2.1435,2.1502,2.1885,2.2021,2.1992,2.1639,2.1434,2.1348,2.0928,2.0693,2.0576,2.045,2.0333,2.0303,2.0108,1.9863,1.9638,1.8897,1.8423,1.8256,1.8219,1.8018,1.7513,1.7202,1.6853,1.6468,1.6138,1.5964,1.5964,1.5964,1.5964,1.5964,1.5964,1.5964,1.5964,1.5865,1.5833,1.5809,1.5947,1.6219,1.6611,1.6682,1.6716,1.6811,1.6376,1.6142,1.6324,1.6359,1.6298,1.6167,1.6132,1.607,1.5938,1.5903,1.5964,1.6096,1.6132,1.6167,1.6272,1.6307,1.6272,1.6307,1.6307,1.6281,1.6281,1.6202,1.6132,1.614,1.6008,1.5859,1.5682,1.5603,1.5497,1.5311,1.5275,1.5177,1.5007,1.49,1.4828,1.4721,1.4641,1.4605,1.4605,1.4605,1.4553,1.4438,1.4095,1.3718,1.3391,1.2974,1.2606,1.2272,1.1672,1.0962,2.7441,2.736,2.7015,2.6558,2.6097,2.5784,2.5554,2.5324,2.5146,2.503,2.4872,2.371,2.3073,2.2808,2.2768,2.2636,2.2382,2.2422,2.227,2.2056,2.2084,2.2188,2.2376,2.2432,2.2461,2.2451,2.2373,2.2139,2.1807,2.1387,2.0977,2.0654,2.0566,2.0498,2.0303,2.0264,2.0147,1.9872,1.9797,1.9377,1.8678,1.866,1.8284,1.7513,1.7468,1.7257,1.6872,1.6817,1.6789,1.6798,1.6771,1.678,1.6771,1.6789,1.6789,1.6771,1.6745,1.6755,1.6745,1.6791,1.6784,1.6855,1.6874,1.6864,1.6908,1.6837,1.6715,1.6603,1.6568,1.6482,1.6307,1.6272,1.6272,1.6202,1.6211,1.6272,1.6281,1.6272,1.6307,1.6272,1.6342,1.6307,1.6342,1.6342,1.6342,1.6377,1.6342,1.6307,1.6272,1.6246,1.6167,1.6035,1.5894,1.5691,1.5505,1.5461,1.539,1.5213,1.5034,1.4935,1.4864,1.4721,1.4605,1.4641,1.4605,1.4569,1.4533,1.4414,1.4126,1.3678,1.3352,1.3031,1.2458,1.1969,1.1452,2.8619,2.8339,2.7865,2.74,2.694,2.6633,2.6437,2.6302,2.5957,2.5748,2.5547,2.4838,2.424,2.3701,2.3536,2.3309,2.2971,2.2839,2.2727,2.2625,2.2847,2.2954,2.2944,2.3169,2.3193,2.3077,2.286,2.2549,2.2249,2.1826,2.1387,2.0996,2.0957,2.0791,2.0518,2.0489,2.0411,2.0294,2.0177,1.9983,1.9685,1.9501,1.9143,1.8602,1.8349,1.7949,1.7461,1.7202,1.7038,1.6908,1.6908,1.6908,1.6908,1.6908,1.6908,1.6908,1.6908,1.6908,1.6908,1.6908,1.6908,1.6908,1.6908,1.6908,1.6908,1.6908,1.6864,1.6786,1.6786,1.6691,1.6508,1.6473,1.6447,1.6342,1.6307,1.6342,1.6473,1.6464,1.6508,1.6621,1.6656,1.6656,1.6665,1.6665,1.6656,1.6621,1.6586,1.6473,1.6473,1.6368,1.6272,1.6211,1.607,1.5894,1.5726,1.5691,1.5576,1.5426,1.5319,1.5256,1.507,1.49,1.4792,1.4792,1.4677,1.4605,1.4569,1.4497,1.4255,1.3887,1.3609,1.3286,1.2906,1.2593,1.2172,2.9537,2.9208,2.8635,2.8075,2.7684,2.7319,2.7126,2.7003,2.658,2.629,2.6146,2.5926,2.548,2.4835,2.444,2.4075,2.3833,2.3638,2.3515,2.3557,2.3784,2.377,2.361,2.3766,2.3851,2.3681,2.3325,2.2988,2.2637,2.231,2.1928,2.1475,2.1456,2.1271,2.0909,2.0899,2.0879,2.078,2.0615,2.0537,2.0537,2.0381,1.9946,1.9354,1.9033,1.8552,1.789,1.7607,1.7278,1.7003,1.6978,1.6968,1.6908,1.6908,1.6908,1.6908,1.6908,1.6908,1.6908,1.6908,1.6908,1.6908,1.6908,1.6908,1.6908,1.6908,1.6908,1.6908,1.6908,1.683,1.6716,1.6682,1.6612,1.6482,1.6456,1.6551,1.6647,1.6682,1.6716,1.6874,1.6874,1.6908,1.6908,1.6874,1.6874,1.6874,1.676,1.6682,1.6682,1.6542,1.6447,1.6368,1.6237,1.607,1.5938,1.5805,1.5726,1.5611,1.5541,1.5426,1.5319,1.5114,1.4935,1.4864,1.4748,1.4641,1.4605,1.4497,1.4382,1.4129,1.384,1.3513,1.3266,1.3042,1.2764,2.9979,2.9852,2.9126,2.8538,2.8179,2.7862,2.7661,2.7482,2.7085,2.6891,2.6809,2.6644,2.6498,2.637,2.5546,2.5263,2.5315,2.5104,2.5009,2.5009,2.4904,2.4681,2.4435,2.4272,2.4196,2.4153,2.3877,2.345,2.2951,2.2849,2.2537,2.1926,2.2062,2.1957,2.156,2.169,2.1588,2.1296,2.1177,2.1167,2.1167,2.1128,2.0535,1.9564,1.9307,1.8937,1.8209,1.8057,1.7788,1.722,1.7176,1.7107,1.6943,1.6908,1.6908,1.6908,1.6908,1.6908,1.6908,1.6908,1.6908,1.6908,1.6908,1.6908,1.6908,1.6908,1.6908,1.6908,1.6908,1.6908,1.6874,1.683,1.6864,1.6839,1.6839,1.6874,1.6874,1.6874,1.6908,1.6908,1.6908,1.6908,1.6908,1.6908,1.6908,1.6908,1.6874,1.6864,1.6874,1.6839,1.676,1.6577,1.6438,1.6237,1.6096,1.5903,1.5805,1.5726,1.562,1.5541,1.5426,1.5319,1.5141,1.4971,1.49,1.4784,1.4641,1.4533,1.4425,1.4209,1.3964,1.3681,1.3499,1.3309,1.3078,3.0938,3.0155,2.9745,2.9264,2.8788,2.8554,2.8315,2.8099,2.7846,2.7574,2.7278,2.7196,2.7115,2.6951,2.6652,2.6362,2.6166,2.5946,2.5852,2.5821,2.5779,2.5527,2.5147,2.5073,2.4871,2.4658,2.4358,2.3986,2.3501,2.3491,2.3218,2.2826,2.2798,2.2693,2.2433,2.2199,2.2133,2.2164,2.1819,2.1655,2.1731,2.1665,2.1344,2.0916,2.0391,1.9742,1.8892,1.8621,1.8142,1.7411,1.7382,1.7279,1.7107,1.6968,1.6908,1.6908,1.6908,1.6908,1.6908,1.6908,1.6908,1.6908,1.6908,1.6908,1.6908,1.6908,1.6908,1.6908,1.6908,1.6908,1.6908,1.6908,1.6908,1.6908,1.6908,1.6908,1.6908,1.6908,1.6908,1.6908,1.6908,1.6908,1.6908,1.6908,1.6908,1.6908,1.6908,1.6908,1.6908,1.6908,1.6864,1.6795,1.6621,1.6403,1.6237,1.5973,1.5805,1.577,1.5726,1.5691,1.5655,1.5497,1.5328,1.5213,1.5114,1.4935,1.4784,1.4605,1.4497,1.4317,1.4072,1.3899,1.3717,1.3528,1.3332,3.1492,3.0483,3.0248,2.9806,2.9194,2.9067,2.8882,2.8697,2.8498,2.8207,2.7955,2.7846,2.7765,2.7632,2.7603,2.7482,2.7167,2.6734,2.6558,2.6599,2.6569,2.6321,2.5999,2.5863,2.5653,2.5316,2.4988,2.4562,2.4219,2.4176,2.398,2.362,2.3695,2.3586,2.3309,2.3161,2.311,2.2981,2.2604,2.2459,2.2397,2.2241,2.2176,2.2096,2.1582,2.0812,1.9843,1.9415,1.8803,1.8099,1.7787,1.7564,1.7323,1.7185,1.7038,1.7003,1.6968,1.6978,1.6908,1.6908,1.6908,1.6908,1.6908,1.6908,1.6908,1.6908,1.6908,1.6908,1.6908,1.6908,1.6908,1.6908,1.6908,1.6908,1.6908,1.6908,1.6908,1.6908,1.6908,1.6908,1.6908,1.6908,1.6908,1.6908,1.6908,1.6908,1.6908,1.6908,1.6908,1.6908,1.6908,1.6874,1.6716,1.6542,1.6368,1.614,1.5876,1.5841,1.5805,1.5805,1.577,1.5655,1.5541,1.5461,1.5319,1.5078,1.49,1.4721,1.4577,1.4433,1.4289,1.408,1.3891,1.371,1.3564,3.1625,3.0681,3.062,3.0148,2.9468,2.938,2.9275,2.9091,2.8882,2.8764,2.8645,2.8578,2.8459,2.8471,2.8419,2.8471,2.8259,2.7644,2.7348,2.7441,2.7267,2.7074,2.6798,2.6622,2.6362,2.6113,2.5737,2.5285,2.4903,2.4861,2.4734,2.4606,2.4755,2.4651,2.424,2.4514,2.433,2.3772,2.3667,2.3498,2.3078,2.2986,2.2964,2.2964,2.2745,2.2073,2.097,2.0457,1.9809,1.9019,1.839,1.7891,1.7617,1.7505,1.7436,1.7235,1.7201,1.7097,1.6968,1.6943,1.6978,1.6978,1.6943,1.6978,1.6978,1.6978,1.6978,1.6978,1.6978,1.6943,1.6943,1.6978,1.6943,1.6908,1.6908,1.6908,1.6908,1.6908,1.6908,1.6908,1.6908,1.6908,1.6908,1.6908,1.6908,1.6908,1.6908,1.6908,1.6908,1.6908,1.6908,1.6874,1.676,1.6647,1.6473,1.6333,1.607,1.5876,1.5841,1.5805,1.5805,1.5726,1.5655,1.5584,1.547,1.5256,1.5007,1.4864,1.4721,1.4577,1.4433,1.4289,1.4109,1.3964,1.3855,3.2164,3.1198,3.116,3.0568,2.9752,2.965,2.9534,2.9302,2.9223,2.9118,2.9013,2.8934,2.8895,2.8895,2.8895,2.8907,2.8907,2.8605,2.8327,2.8007,2.7926,2.7684,2.736,2.7226,2.6899,2.6445,2.6279,2.5999,2.5675,2.5591,2.5549,2.5496,2.5549,2.5599,2.5518,2.5409,2.5169,2.5024,2.4476,2.4129,2.3913,2.3613,2.3409,2.3409,2.3335,2.3073,2.255,2.1597,2.0627,1.9612,1.9221,1.8724,1.8178,1.7906,1.7735,1.7569,1.7569,1.7476,1.7358,1.7298,1.7298,1.7298,1.7332,1.7332,1.7289,1.7298,1.7289,1.7289,1.7289,1.7289,1.7298,1.7332,1.7185,1.6952,1.6908,1.6908,1.6908,1.6908,1.6908,1.6908,1.6908,1.6908,1.6908,1.6908,1.6908,1.6908,1.6908,1.6908,1.6908,1.6908,1.6908,1.6874,1.6795,1.6716,1.6612,1.6508,1.6307,1.607,1.5973,1.5876,1.5876,1.5805,1.577,1.5691,1.5576,1.5434,1.5185,1.5007,1.49,1.4721,1.4613,1.4469,1.4325,1.4217,1.4109,3.2541,3.17,3.1474,3.0896,3.0105,2.9905,2.9702,2.956,2.956,2.9482,2.9378,2.9378,2.9339,2.9339,2.9339,2.9339,2.939,2.9378,2.9091,2.8685,2.8578,2.8287,2.7886,2.7696,2.7412,2.6981,2.6899,2.6704,2.6385,2.6313,2.6271,2.6282,2.6188,2.6218,2.6351,2.6237,2.6145,2.6006,2.5625,2.5238,2.4845,2.4525,2.4226,2.4077,2.397,2.3824,2.3607,2.2816,2.1747,2.0516,1.982,1.9162,1.8637,1.8472,1.8293,1.8046,1.7969,1.791,1.7735,1.7676,1.7632,1.7598,1.7554,1.7529,1.7539,1.7495,1.7495,1.7495,1.7461,1.7495,1.747,1.7505,1.7367,1.716,1.7047,1.6978,1.6943,1.6908,1.6908,1.6908,1.6908,1.6908,1.6908,1.6908,1.6908,1.6908,1.6908,1.6908,1.6908,1.6908,1.6908,1.6908,1.6874,1.6795,1.6716,1.6647,1.6542,1.6342,1.614,1.6035,1.5973,1.5876,1.577,1.577,1.5691,1.5576,1.5363,1.5256,1.5141,1.4963,1.482,1.4748,1.4641,1.4461,1.4317,3.2742,3.2164,3.165,3.116,3.0633,3.0168,2.9967,2.9867,2.9867,2.9816,2.9778,2.9702,2.9753,2.974,2.9714,2.9702,2.9779,2.9753,2.9611,2.9353,2.9209,2.8895,2.8498,2.8191,2.7898,2.7603,2.7563,2.7441,2.7156,2.7003,2.6933,2.6944,2.6809,2.6685,2.6787,2.7051,2.6984,2.6731,2.6862,2.6491,2.5728,2.5517,2.5294,2.4811,2.4597,2.4381,2.4189,2.3797,2.2961,2.142,2.0156,1.9477,1.9218,1.9175,1.8965,1.861,1.8566,1.8385,1.8134,1.8076,1.7998,1.7886,1.7818,1.7716,1.7666,1.7666,1.7666,1.7632,1.7608,1.7564,1.7564,1.7573,1.7539,1.7505,1.7314,1.7151,1.6978,1.6978,1.6978,1.6934,1.6943,1.6908,1.6908,1.6908,1.6908,1.6908,1.6908,1.6908,1.6908,1.6908,1.6908,1.6908,1.6908,1.6874,1.6795,1.676,1.6691,1.6586,1.6342,1.6202,1.6035,1.5903,1.5805,1.5805,1.577,1.5655,1.5576,1.547,1.5355,1.5204,1.5098,1.5098,1.4955,1.474,1.4641,3.2742,3.2202,3.2051,3.1687,3.121,3.1009,3.0733,3.0432,3.0394,3.0193,2.9892,2.9779,2.9854,2.9792,2.9817,2.9779,2.9817,2.9817,2.9779,2.9702,2.9663,2.9378,2.9013,2.8816,2.8578,2.8259,2.8167,2.8059,2.7748,2.7626,2.7638,2.7638,2.7557,2.7516,2.7598,2.7638,2.7661,2.7514,2.7207,2.7027,2.665,2.5955,2.5555,2.5366,2.4965,2.4753,2.4599,2.4118,2.3186,2.1858,2.107,2.0379,1.9911,1.9791,1.9593,1.933,1.9164,1.8998,1.8841,1.8674,1.8573,1.8506,1.8371,1.8269,1.8236,1.8134,1.811,1.8076,1.7974,1.7872,1.7872,1.7872,1.7794,1.7647,1.752,1.7392,1.7323,1.7323,1.7289,1.7141,1.7107,1.7038,1.6978,1.6943,1.6943,1.6908,1.6908,1.6908,1.6908,1.6908,1.6908,1.6908,1.6908,1.6908,1.6874,1.6874,1.6804,1.6795,1.6586,1.6368,1.6132,1.5938,1.5841,1.5805,1.5805,1.5726,1.5655,1.5576,1.5497,1.5417,1.5311,1.5248,1.5169,1.5026,1.5026,3.288,3.2554,3.2315,3.2026,3.1712,3.1499,3.121,3.0984,3.0934,3.0771,3.0507,3.0457,3.047,3.047,3.047,3.0331,3.0156,3.0143,3.0018,2.9842,3.0043,2.9797,2.9361,2.917,2.8973,2.8776,2.8657,2.8498,2.8271,2.8111,2.8042,2.799,2.7962,2.7881,2.7893,2.8002,2.803,2.7971,2.7779,2.7593,2.7308,2.6797,2.6215,2.5907,2.5479,2.5253,2.4921,2.4448,2.3746,2.2821,2.2094,2.1475,2.0863,2.072,2.0435,2.002,1.9846,1.9671,1.9473,1.9308,1.9175,1.9042,1.8875,1.8774,1.865,1.8539,1.8506,1.8303,1.8178,1.811,1.8008,1.8008,1.793,1.7828,1.7769,1.7642,1.7539,1.7461,1.7426,1.7348,1.7314,1.7279,1.7151,1.7081,1.7038,1.7003,1.6943,1.6943,1.6908,1.6908,1.6908,1.6908,1.6908,1.6908,1.6908,1.6874,1.6874,1.6839,1.6716,1.6473,1.6237,1.6,1.5867,1.5841,1.5805,1.5805,1.5726,1.5691,1.5647,1.5576,1.5497,1.5426,1.5355,1.5311,1.5311,3.3124,3.3031,3.2516,3.2303,3.224,3.1788,3.1599,3.1474,3.1474,3.1411,3.1311,3.1348,3.1223,3.1386,3.1173,3.1097,3.0696,3.0696,3.0432,3.0331,3.0432,3.0363,2.9843,2.9561,2.932,2.9116,2.8922,2.8843,2.8685,2.8447,2.8287,2.8259,2.8082,2.7962,2.8042,2.8151,2.8219,2.8259,2.8291,2.8155,2.7804,2.7555,2.71,2.6488,2.6044,2.5673,2.5218,2.4886,2.4519,2.4003,2.3236,2.2523,2.1977,2.1864,2.1495,2.0907,2.0731,2.0555,2.014,2.0074,1.9856,1.9538,1.9407,1.9241,1.9042,1.8942,1.8741,1.8506,1.8371,1.8269,1.811,1.8042,1.8008,1.7964,1.7974,1.7847,1.7642,1.7539,1.7539,1.7539,1.7529,1.7495,1.7461,1.7348,1.7245,1.7254,1.7151,1.7081,1.7047,1.7003,1.6978,1.6908,1.6908,1.6908,1.6908,1.6908,1.6908,1.6874,1.6716,1.6499,1.6333,1.6096,1.5929,1.5867,1.5841,1.5841,1.5805,1.577,1.5761,1.5761,1.5655,1.562,1.5576,1.5541,1.5541,3.3124,3.3111,3.2943,3.2893,3.288,3.2754,3.2441,3.2039,3.2039,3.1825,3.1486,3.1411,3.1436,3.1424,3.1486,3.1323,3.1235,3.1198,3.1135,3.111,3.1135,3.1185,3.0841,3.0498,2.9918,2.9502,2.9314,2.9184,2.9,2.8803,2.8685,2.8645,2.8459,2.8391,2.8391,2.8391,2.8431,2.8431,2.8471,2.845,2.827,2.7933,2.7582,2.7224,2.655,2.5865,2.5397,2.5206,2.5122,2.4814,2.4189,2.3465,2.3011,2.2794,2.2522,2.2205,2.2014,2.1711,2.1208,2.093,2.0654,2.0227,1.9998,1.9736,1.9671,1.9341,1.9142,1.8942,1.8774,1.8529,1.8269,1.8066,1.8042,1.8042,1.8037,1.8013,1.7915,1.7881,1.7803,1.7691,1.7647,1.7613,1.7539,1.7495,1.7426,1.7426,1.7392,1.7279,1.721,1.7141,1.7072,1.7012,1.6978,1.6978,1.6908,1.6908,1.6908,1.6908,1.6751,1.6638,1.6438,1.6263,1.6132,1.6,1.5911,1.5876,1.5903,1.5876,1.5867,1.5841,1.5841,1.5832,1.5788,1.5761,1.5761,3.3227,3.324,3.3167,3.3124,3.3124,3.3124,3.2905,3.2654,3.2616,3.2453,3.2227,3.2177,3.219,3.2177,3.2164,3.2077,3.175,3.1499,3.1537,3.1687,3.1763,3.1775,3.175,3.1449,3.0891,3.0047,2.953,2.9365,2.9197,2.904,2.8922,2.8922,2.8736,2.8657,2.8618,2.855,2.851,2.851,2.851,2.851,2.8438,2.8258,2.7909,2.7618,2.6885,2.6238,2.5757,2.5685,2.554,2.5276,2.486,2.4351,2.3868,2.3681,2.3405,2.3037,2.2923,2.2661,2.2228,2.2036,2.1721,2.1071,2.0819,2.0511,2.0238,1.9835,1.9561,1.933,1.9065,1.8764,1.8438,1.8313,1.8255,1.8261,1.8331,1.8429,1.8375,1.8203,1.7974,1.7862,1.7862,1.7794,1.7725,1.768,1.7598,1.7598,1.7495,1.7426,1.7392,1.7323,1.722,1.7151,1.7107,1.7038,1.6943,1.6908,1.6908,1.6908,1.683,1.6786,1.6682,1.6508,1.6298,1.6202,1.607,1.607,1.6105,1.6035,1.6008,1.6079,1.607,1.6035,1.6035,1.6035,1.6035,3.3428,3.3386,3.3197,3.3124,3.3124,3.3124,3.3111,3.3111,3.3124,3.3023,3.3111,3.3124,3.296,3.3074,3.3036,3.2742,3.2353,3.2001,3.2039,3.2315,3.234,3.234,3.2303,3.2089,3.1646,3.0806,3.0047,2.9669,2.9468,2.9275,2.9157,2.9131,2.8922,2.8843,2.8803,2.8657,2.859,2.859,2.855,2.851,2.851,2.845,2.8198,2.7666,2.7306,2.6741,2.6322,2.6093,2.5877,2.5468,2.5348,2.5013,2.4633,2.4431,2.422,2.3634,2.3659,2.3452,2.3187,2.3038,2.2739,2.201,2.1739,2.1426,2.0828,2.039,2.002,1.9671,1.9374,1.905,1.8765,1.871,1.8741,1.8797,1.8974,1.9043,1.8978,1.8572,1.8468,1.8256,1.8364,1.8368,1.8158,1.8031,1.789,1.7769,1.7642,1.7583,1.7548,1.7495,1.7392,1.7323,1.7289,1.7245,1.7151,1.7038,1.7012,1.6978,1.6934,1.6899,1.6899,1.6716,1.6542,1.6403,1.6307,1.6272,1.6237,1.6211,1.6211,1.6272,1.6281,1.6211,1.6211,1.6272,1.6272,3.3556,3.3386,3.3356,3.324,3.3111,3.3124,3.3124,3.3124,3.3124,3.3124,3.3124,3.3124,3.3124,3.3124,3.3124,3.3048,3.2817,3.2667,3.2729,3.291,3.2867,3.2898,3.278,3.2478,3.2114,3.1709,3.0941,3.0265,2.9838,2.9482,2.9591,2.9376,2.9207,2.9101,2.9062,2.8843,2.8736,2.8697,2.8618,2.855,2.851,2.8486,2.8306,2.781,2.7618,2.7282,2.6815,2.6358,2.6045,2.5937,2.5552,2.5276,2.5121,2.5097,2.4919,2.4718,2.4624,2.4388,2.3989,2.3849,2.3556,2.301,2.2482,2.205,2.1613,2.1091,2.0642,2.0151,1.9776,1.9463,1.9818,1.9576,1.9588,1.9742,1.9824,1.9772,1.9752,1.965,1.9447,1.9252,1.9151,1.8942,1.8682,1.8506,1.8377,1.8226,1.8041,1.7898,1.7835,1.7724,1.7588,1.752,1.7461,1.7426,1.7426,1.7279,1.7176,1.7141,1.7072,1.7003,1.6968,1.6899,1.676,1.6656,1.6517,1.6412,1.6377,1.6377,1.6386,1.6456,1.6386,1.6307,1.6377,1.6456,1.6377,3.3852,3.3738,3.3526,3.3356,3.324,3.3124,3.3124,3.3124,3.3124,3.3124,3.3124,3.3124,3.3124,3.3124,3.3124,3.3124,3.3124,3.3124,3.3124,3.3124,3.3124,3.3124,3.3124,3.2754,3.2478,3.2164,3.1637,3.1135,3.067,3.0513,3.0373,3.0333,3.0,2.972,2.9581,2.9226,2.8983,2.8828,2.8709,2.859,2.851,2.851,2.833,2.821,2.8089,2.7849,2.7404,2.7152,2.6803,2.6465,2.6009,2.5769,2.5648,2.5433,2.5288,2.523,2.5182,2.5098,2.473,2.4636,2.4422,2.3856,2.3366,2.3042,2.2653,2.2122,2.1508,2.1107,2.0883,2.0631,2.0741,2.0519,2.052,2.0567,2.0653,2.0689,2.0715,2.0806,2.0626,2.0316,1.9949,1.9627,1.9242,1.9069,1.8964,1.8717,1.8457,1.8334,1.8216,1.807,1.7967,1.781,1.777,1.7707,1.7697,1.7565,1.7376,1.7314,1.7245,1.7185,1.7151,1.7116,1.7072,1.6959,1.6786,1.6621,1.6621,1.6665,1.663,1.6595,1.663,1.663,1.663,1.663,1.6551,3.4215,3.4118,3.3738,3.3484,3.3398,3.3227,3.3111,3.3124,3.3124,3.3124,3.3124,3.3124,3.3124,3.3124,3.3124,3.3124,3.3124,3.3124,3.3124,3.3124,3.3124,3.3124,3.3124,3.3074,3.283,3.2528,3.2378,3.2039,3.1361,3.1248,3.1336,3.1145,3.0723,3.0518,3.0378,2.9995,2.9423,2.9132,2.8949,2.883,2.8574,2.851,2.851,2.851,2.851,2.8282,2.7921,2.7669,2.739,2.7006,2.661,2.6262,2.6178,2.5757,2.548,2.5444,2.5372,2.5324,2.5264,2.5228,2.4954,2.4503,2.4349,2.3995,2.3541,2.2945,2.248,2.2183,2.1955,2.1861,2.1682,2.1585,2.1555,2.1596,2.1684,2.1739,2.1729,2.1781,2.1757,2.1383,2.0806,2.0325,2.0012,1.974,1.9634,1.9376,1.9112,1.9082,1.8942,1.8664,1.8516,1.8263,1.812,1.7992,1.7929,1.7865,1.7662,1.7495,1.7426,1.7358,1.7392,1.7426,1.7348,1.7235,1.7141,1.7012,1.7012,1.6908,1.6804,1.6804,1.6874,1.6874,1.6804,1.6804,1.6769,3.4577,3.4356,3.4105,3.3781,3.3441,3.3398,3.324,3.3111,3.3124,3.3124,3.3124,3.3124,3.3124,3.3124,3.3124,3.3124,3.3124,3.3124,3.3124,3.3124,3.3124,3.3124,3.3124,3.3124,3.3074,3.2855,3.2905,3.234,3.1788,3.1562,3.1515,3.1474,3.1395,3.1245,3.1151,3.0817,3.0608,3.0131,2.9698,2.9197,2.8674,2.855,2.855,2.855,2.8538,2.8502,2.8309,2.8056,2.7717,2.7659,2.7115,2.6813,2.6705,2.631,2.6057,2.5865,2.5624,2.5312,2.5324,2.5312,2.5288,2.4989,2.4692,2.4325,2.4021,2.3556,2.3051,2.2673,2.2571,2.2614,2.2661,2.2575,2.2689,2.2757,2.2754,2.2752,2.2744,2.2546,2.2531,2.2419,2.1856,2.1275,2.0866,2.0589,2.033,2.0038,1.9817,1.9751,1.9625,1.9332,1.9116,1.8905,1.8785,1.8666,1.8607,1.8479,1.8215,1.7914,1.7831,1.7709,1.7701,1.7735,1.7564,1.7495,1.7426,1.7298,1.7116,1.7012,1.6943,1.6908,1.6934,1.6943,1.6908,1.6908,1.6908,3.5154,3.4618,3.4356,3.4063,3.3781,3.3526,3.3368,3.3283,3.3167,3.3124,3.3124,3.3124,3.3124,3.3124,3.3124,3.3124,3.3124,3.3124,3.3124,3.3124,3.3124,3.3124,3.3124,3.3124,3.3124,3.3124,3.3099,3.296,3.2403,3.2303,3.234,3.2294,3.2014,3.1851,3.1813,3.1467,3.1094,3.0645,3.013,2.9511,2.9001,2.8867,2.8867,2.8816,2.8867,2.8816,2.8755,2.8527,2.8397,2.8339,2.7876,2.7521,2.74,2.7013,2.659,2.6069,2.5913,2.5636,2.5336,2.5324,2.5312,2.53,2.5025,2.4871,2.4683,2.4388,2.4061,2.3921,2.3839,2.3791,2.3728,2.3701,2.3707,2.3756,2.3641,2.3556,2.3482,2.3298,2.3187,2.3075,2.2953,2.2386,2.1887,2.1648,2.1389,2.1022,2.0739,2.0579,2.0317,1.9923,1.9725,1.9603,1.9537,1.9471,1.9412,1.9316,1.9062,1.8774,1.8636,1.8478,1.8203,1.811,1.794,1.7837,1.7769,1.7564,1.7289,1.7151,1.7116,1.7038,1.6968,1.6968,1.7012,1.6943,1.6943,3.5518,3.5141,3.4771,3.4452,3.4147,3.3781,3.3556,3.3441,3.3326,3.3283,3.324,3.3283,3.3283,3.3283,3.3283,3.3326,3.327,3.3227,3.324,3.324,3.324,3.327,3.327,3.324,3.3197,3.3154,3.3124,3.3048,3.3074,3.3048,3.2998,3.3111,3.2604,3.2453,3.2315,3.2114,3.1768,3.1394,3.0785,3.0143,2.9646,2.9534,2.9384,2.9285,2.9236,2.9236,2.9236,2.9055,2.9015,2.9061,2.8633,2.8285,2.8277,2.7811,2.7333,2.6833,2.6554,2.6058,2.572,2.548,2.5348,2.5312,2.5312,2.5169,2.5134,2.5159,2.5076,2.4732,2.4743,2.466,2.4634,2.4503,2.4419,2.4286,2.42,2.4152,2.4068,2.3886,2.3787,2.3751,2.3641,2.3494,2.3062,2.2771,2.2462,2.2065,2.1757,2.1453,2.1087,2.0704,2.0614,2.0567,2.043,2.036,2.0178,2.003,1.9808,1.9596,1.9419,1.9173,1.8808,1.849,1.8279,1.8212,1.8207,1.8042,1.7837,1.7554,1.7279,1.7245,1.722,1.7151,1.7081,1.7047,1.7012,3.5582,3.6149,3.5575,3.4977,3.4397,3.4356,3.4063,3.3768,3.3683,3.367,3.3683,3.3683,3.3683,3.3683,3.3683,3.3683,3.367,3.3683,3.3683,3.367,3.367,3.367,3.3641,3.3513,3.3398,3.3398,3.3283,3.3197,3.3124,3.3197,3.3167,3.3086,3.2991,3.3023,3.296,3.2802,3.2529,3.216,3.1615,3.1113,3.0685,3.0459,3.027,2.9842,2.969,2.9665,2.9665,2.9523,2.9523,2.9704,2.9307,2.9102,2.9082,2.8657,2.8248,2.7852,2.725,2.6736,2.6286,2.5683,2.5324,2.5312,2.5312,2.5312,2.5253,2.5276,2.5218,2.5087,2.5052,2.4981,2.4849,2.479,2.4778,2.4742,2.467,2.4586,2.4514,2.4418,2.4345,2.4381,2.4273,2.4091,2.4007,2.3641,2.3224,2.282,2.2531,2.2222,2.2078,2.1781,2.1716,2.1607,2.1449,2.1241,2.0896,2.0722,2.0606,2.0319,2.0073,1.9732,1.9338,1.9051,1.888,1.8697,1.8694,1.8532,1.8381,1.81,1.7828,1.7564,1.7461,1.7426,1.7426,1.7426,1.7348,3.6873,3.6886,3.6547,3.5857,3.4977,3.4716,3.4468,3.4301,3.4189,3.4147,3.4147,3.4147,3.4134,3.4134,3.4147,3.4147,3.4134,3.4105,3.4147,3.4147,3.4134,3.4147,3.4063,3.3979,3.3865,3.3781,3.3611,3.3471,3.3484,3.3484,3.3484,3.3441,3.3398,3.3313,3.3313,3.336,3.3153,3.2855,3.258,3.2265,3.1792,3.1499,3.128,3.11,3.0598,3.0533,3.047,3.0279,3.033,3.0305,3.0088,3.0011,2.9973,2.9567,2.9201,2.8812,2.8151,2.7569,2.6818,2.6077,2.5477,2.5312,2.5312,2.5312,2.5347,2.5312,2.5276,2.5253,2.5218,2.5147,2.5147,2.5123,2.5111,2.5076,2.504,2.4981,2.4909,2.4766,2.4706,2.467,2.4634,2.4538,2.4502,2.4454,2.4007,2.3556,2.3261,2.3012,2.2852,2.2703,2.2553,2.2402,2.2214,2.2101,2.1796,2.1627,2.149,2.1157,2.0792,2.0527,2.0218,1.9948,1.9721,1.9505,1.9246,1.9181,1.9018,1.8714,1.8405,1.8154,1.7949,1.7803,1.7803,1.793,1.7904,3.7713,3.7558,3.7303,3.6626,3.5669,3.525,3.5046,3.4964,3.4853,3.4812,3.4771,3.4771,3.4771,3.4771,3.4812,3.4812,3.4812,3.4799,3.4812,3.4799,3.4799,3.4771,3.4688,3.4577,3.4452,3.4327,3.4063,3.3937,3.3937,3.3937,3.3894,3.3894,3.3852,3.3768,3.3696,3.3771,3.3704,3.3545,3.3608,3.3523,3.304,3.2909,3.247,3.2311,3.1823,3.1532,3.1338,3.1121,3.1084,3.106,3.0923,3.0735,3.0621,3.0469,3.0113,2.9643,2.9138,2.8573,2.7748,2.6471,2.5702,2.5535,2.5548,2.55,2.5465,2.5453,2.5418,2.5394,2.5359,2.5312,2.5312,2.5276,2.5253,2.5218,2.517,2.5135,2.5111,2.504,2.5016,2.4945,2.4957,2.4921,2.4885,2.4838,2.4478,2.4068,2.3824,2.3567,2.342,2.3298,2.3187,2.3038,2.2889,2.2777,2.267,2.244,2.2237,2.2083,2.1741,2.1564,2.1311,2.0984,2.0702,2.0546,2.0283,1.9982,1.9881,1.987,1.9315,1.8681,1.8626,1.8674,1.8808,1.8933,1.8849,3.7864,3.8098,3.7763,3.7081,3.6387,3.6071,3.5871,3.571,3.5669,3.5683,3.5669,3.5669,3.5669,3.5669,3.5669,3.5669,3.5669,3.5669,3.5669,3.5669,3.5656,3.5656,3.5548,3.5345,3.5141,3.499,3.4743,3.4522,3.4426,3.4481,3.4481,3.4509,3.4592,3.4509,3.416,3.4272,3.4454,3.4649,3.4856,3.4687,3.4486,3.4454,3.395,3.3525,3.3094,3.281,3.2353,3.2121,3.2081,3.1996,3.1579,3.1418,3.1519,3.1198,3.0959,3.0831,3.0177,2.972,2.9367,2.7212,2.6309,2.6009,2.6009,2.5863,2.5828,2.5746,2.5641,2.5676,2.5465,2.5347,2.5312,2.5312,2.5312,2.5276,2.5276,2.5241,2.5206,2.5206,2.5147,2.5123,2.5218,2.5276,2.5218,2.5147,2.4873,2.4586,2.4345,2.4127,2.3982,2.3897,2.3787,2.3666,2.3519,2.3409,2.3298,2.3113,2.2962,2.2874,2.278,2.26,2.2336,2.2009,2.1776,2.1629,2.1341,2.1045,2.1105,2.1183,2.0543,1.9978,1.9792,1.9813,1.9907,1.9899,1.9821,3.8605,3.856,3.8329,3.8014,3.7658,3.6964,3.6626,3.6587,3.6561,3.6547,3.6547,3.6547,3.6547,3.6547,3.6547,3.6547,3.6547,3.6547,3.6587,3.6547,3.6547,3.6587,3.6429,3.6177,3.5924,3.5763,3.5494,3.5263,3.525,3.525,3.5263,3.5304,3.5413,3.5345,3.5141,3.5141,3.5304,3.5372,3.5561,3.5614,3.5477,3.5386,3.5182,3.4799,3.4454,3.4021,3.3498,3.332,3.3162,3.2921,3.2422,3.2237,3.2237,3.1946,3.174,3.1666,3.1176,3.0661,3.0035,2.8656,2.7783,2.7138,2.6554,2.6405,2.6245,2.6094,2.6025,2.5982,2.5857,2.5692,2.5488,2.5407,2.5371,2.5312,2.5276,2.5276,2.5276,2.5276,2.5253,2.5253,2.5312,2.542,2.5456,2.5636,2.5457,2.5253,2.5024,2.4691,2.4477,2.4465,2.4418,2.4261,2.4152,2.4043,2.3909,2.3751,2.3677,2.3635,2.3697,2.3702,2.3408,2.302,2.286,2.2712,2.2384,2.2136,2.2143,2.2105,2.1793,2.1401,2.1326,2.1051,2.0992,2.0909,2.0769,3.9104,3.8907,3.8775,3.8532,3.8186,3.7648,3.7404,3.7404,3.7404,3.7404,3.7404,3.7404,3.7404,3.7404,3.7404,3.739,3.7404,3.7443,3.7404,3.7404,3.7404,3.7404,3.7275,3.6989,3.6808,3.6638,3.6375,3.6151,3.6137,3.6151,3.6151,3.6191,3.635,3.631,3.6137,3.6111,3.6031,3.6097,3.6296,3.6494,3.6395,3.6342,3.6214,3.5967,3.5691,3.5291,3.4842,3.4511,3.4257,3.3804,3.3389,3.3043,3.2909,3.2668,3.2417,3.2309,3.2051,3.1512,3.087,3.0317,2.9455,2.884,2.7835,2.7357,2.7249,2.7236,2.7118,2.6951,2.6544,2.6414,2.6343,2.6128,2.5984,2.596,2.5913,2.5973,2.5985,2.6021,2.6045,2.5985,2.5948,2.5924,2.5889,2.5985,2.613,2.59,2.5719,2.5348,2.5027,2.498,2.4861,2.4706,2.4586,2.449,2.4418,2.4357,2.4357,2.4393,2.4418,2.4406,2.4312,2.3928,2.3859,2.379,2.3558,2.3338,2.3165,2.298,2.2899,2.291,2.2966,2.2653,2.2171,2.1996,2.1898,3.9271,3.9075,3.909,3.861,3.7965,3.7981,3.808,3.8086,3.8086,3.8057,3.8034,3.7991,3.7982,3.8078,3.8159,3.8165,3.8165,3.8165,3.8165,3.8165,3.8127,3.8113,3.8,3.7787,3.7596,3.7443,3.725,3.7017,3.7017,3.6978,3.6978,3.6978,3.7056,3.7056,3.6978,3.6861,3.6744,3.6783,3.694,3.7056,3.7078,3.7271,3.7035,3.6855,3.6636,3.6331,3.5904,3.5454,3.5103,3.4647,3.4121,3.3824,3.3543,3.3227,3.3108,3.2881,3.2596,3.229,3.1951,3.14,3.1243,3.0584,2.9776,2.9282,2.8795,2.8415,2.8221,2.8081,2.7841,2.7798,2.774,2.7495,2.725,2.7152,2.709,2.7078,2.709,2.7127,2.7176,2.714,2.714,2.7079,2.6883,2.6907,2.676,2.6552,2.632,2.6067,2.5707,2.5349,2.5206,2.4921,2.4849,2.4814,2.4825,2.4825,2.4778,2.4766,2.4766,2.4766,2.479,2.4743,2.4578,2.4483,2.466,2.4494,2.4024,2.4023,2.4209,2.4245,2.4,2.3801,2.3229,2.3255,2.3212,3.8641,3.8665,3.9128,3.8877,3.8216,3.7812,3.7482,3.7248,3.7197,3.7212,3.7212,3.7717,3.7937,3.7952,3.8392,3.859,3.8649,3.8649,3.8612,3.8649,3.8612,3.8634,3.8523,3.8352,3.8254,3.8142,3.7991,3.7787,3.7787,3.7749,3.7519,3.7457,3.7495,3.7534,3.7534,3.7534,3.7419,3.738,3.7495,3.7495,3.7534,3.761,3.7539,3.7514,3.7457,3.7187,3.6836,3.6599,3.6281,3.5783,3.5065,3.4694,3.463,3.4049,3.3605,3.3241,3.3051,3.2895,3.2555,3.2396,3.2223,3.2088,3.1527,3.073,3.0025,2.9495,2.9321,2.9197,2.8957,2.8826,2.8705,2.8496,2.8287,2.8151,2.8089,2.8052,2.8064,2.8052,2.8126,2.8139,2.8151,2.7965,2.7779,2.7568,2.7408,2.7184,2.695,2.6731,2.6392,2.6044,2.572,2.5445,2.5361,2.5409,2.5278,2.5254,2.5206,2.5147,2.5183,2.5147,2.5076,2.5064,2.5087,2.5052,2.4957,2.4861,2.4671,2.4718,2.4742,2.4706,2.4541,2.4446,2.4386,2.4251,2.4152,3.8003,3.8063,3.8437,3.8242,3.7599,3.6941,3.6488,3.6393,3.6803,3.7025,3.7084,3.7475,3.7786,3.8098,3.8453,3.8735,3.9017,3.9017,3.9031,3.9031,3.9031,3.9031,3.8958,3.8848,3.8738,3.8664,3.8538,3.8389,3.8389,3.824,3.8052,3.7877,3.7839,3.7839,3.7877,3.7915,3.7915,3.7877,3.7825,3.7839,3.7801,3.7801,3.7915,3.7991,3.7991,3.7843,3.7628,3.752,3.7085,3.6664,3.5941,3.5608,3.5458,3.4821,3.4054,3.3684,3.3417,3.3312,3.3072,3.2952,3.2903,3.281,3.2704,3.2083,3.1414,3.0856,3.0641,3.0438,3.0056,2.9736,2.9576,2.9393,2.9208,2.9073,2.9036,2.9011,2.9011,2.8999,2.9024,2.9049,2.895,2.8762,2.8537,2.8274,2.8134,2.8142,2.8003,2.7756,2.7265,2.6719,2.6441,2.6176,2.6068,2.6056,2.5865,2.5745,2.5769,2.5721,2.5649,2.5601,2.5456,2.5276,2.5218,2.5147,2.5087,2.5016,2.4957,2.4992,2.5016,2.4992,2.4957,2.4898,2.4767,2.4671,2.4598,3.733,3.733,3.733,3.709,3.6447,3.5878,3.5561,3.5624,3.6653,3.7206,3.7146,3.7266,3.7594,3.7888,3.8277,3.871,3.9017,3.9196,3.9301,3.9373,3.9301,3.9301,3.9265,3.9228,3.9068,3.9031,3.8958,3.8797,3.876,3.8575,3.8352,3.824,3.8165,3.8127,3.8127,3.8127,3.8142,3.8118,3.8205,3.8292,3.8214,3.8208,3.826,3.8202,3.8202,3.8144,3.8043,3.7767,3.7375,3.7157,3.6838,3.6396,3.5969,3.5608,3.4836,3.4295,3.3972,3.3725,3.3543,3.3347,3.3227,3.3108,3.3023,3.2798,3.2321,3.1883,3.1591,3.1446,3.1076,3.0917,3.0758,3.0661,3.0514,3.0329,3.0217,3.0143,3.0081,3.0081,3.0119,3.0107,2.9957,2.9769,2.9568,2.9353,2.91,2.9104,2.8936,2.8649,2.8301,2.7623,2.7144,2.6914,2.6635,2.6538,2.6525,2.6417,2.6393,2.6333,2.6226,2.5937,2.5709,2.5504,2.5312,2.5253,2.5182,2.5253,2.5218,2.523,2.5206,2.5182,2.5182,2.5241,2.5182,2.5004,2.4945,3.6716,3.6701,3.6701,3.6596,3.6402,3.5774,3.5489,3.5504,3.5789,3.6013,3.6058,3.6477,3.6821,3.7135,3.7988,3.8497,3.8706,3.9245,3.9358,3.9388,3.9388,3.9388,3.9388,3.9352,3.9301,3.9301,3.9265,3.9141,3.8995,3.8797,3.8612,3.8441,3.8329,3.824,3.8202,3.8202,3.8217,3.8231,3.8725,3.8609,3.826,3.8609,3.8797,3.842,3.8202,3.8202,3.8144,3.8086,3.797,3.7883,3.7375,3.6867,3.6315,3.612,3.5608,3.4992,3.47,3.4366,3.3998,3.3682,3.3501,3.3417,3.3347,3.3241,3.3002,3.2682,3.2453,3.2322,3.2178,3.2032,3.1909,3.1813,3.1703,3.1542,3.1357,3.1246,3.111,3.1147,3.1147,3.1086,3.0973,3.0761,3.0546,3.0318,3.0113,2.9883,2.9614,2.9398,2.9218,2.873,2.7995,2.7625,2.7033,2.6911,2.7043,2.7129,2.7169,2.6998,2.6829,2.648,2.6033,2.5901,2.5816,2.5443,2.5276,2.5516,2.5576,2.5336,2.5324,2.5432,2.5444,2.5492,2.5444,2.5266,2.523,3.6043,3.6058,3.6058,3.6058,3.5983,3.5654,3.5489,3.5489,3.5489,3.5489,3.5519,3.5893,3.6207,3.6537,3.7524,3.8212,3.8452,3.9074,3.9313,3.9388,3.9388,3.9388,3.9388,3.9388,3.9388,3.9388,3.9373,3.9301,3.9104,3.8995,3.8811,3.8553,3.8366,3.8277,3.824,3.8202,3.8202,3.8246,3.9073,3.8971,3.8405,3.8739,3.8826,3.842,3.8202,3.8202,3.8202,3.8202,3.8202,3.8173,3.7839,3.7404,3.6968,3.6729,3.6367,3.5739,3.5293,3.492,3.4464,3.4047,3.3801,3.3689,3.357,3.3431,3.3396,3.3051,3.2846,3.2717,3.2525,3.2381,3.2345,3.2273,3.2273,3.2151,3.2078,3.2055,3.1909,3.18,3.1836,3.18,3.1629,3.136,3.1136,3.0936,3.0735,3.0571,3.0305,3.0101,2.996,2.9806,2.9073,2.8508,2.8035,2.7855,2.8098,2.8074,2.7952,2.7756,2.755,2.7235,2.6932,2.6603,2.6323,2.6154,2.6082,2.6178,2.6154,2.5937,2.5733,2.5817,2.5769,2.5721,2.5661,2.5685,2.5757,3.5519,3.5489,3.5519,3.5504,3.5504,3.5504,3.5489,3.5489,3.5489,3.5489,3.5489,3.5519,3.5908,3.6507,3.7135,3.7778,3.8437,3.911,3.9328,3.9388,3.9388,3.9388,3.9388,3.9388,3.9388,3.9388,3.9388,3.9301,3.9177,3.9031,3.8848,3.859,3.8441,3.8352,3.824,3.8202,3.8202,3.8478,3.8913,3.9088,3.8957,3.887,3.8768,3.8522,3.8202,3.8202,3.8202,3.8202,3.8202,3.8188,3.8144,3.7854,3.7607,3.7389,3.6997,3.6461,3.597,3.5544,3.5027,3.4513,3.4166,3.3925,3.3724,3.364,3.357,3.3452,3.3262,3.3108,3.2931,3.281,3.281,3.2846,3.281,3.2775,3.2775,3.2739,3.2596,3.2453,3.2453,3.2453,3.225,3.1936,3.1716,3.1519,3.1371,3.1198,3.1024,3.0823,3.0672,3.0508,3.0075,2.9745,2.9441,2.9312,2.9164,2.895,2.8741,2.8679,2.8433,2.8124,2.7817,2.7446,2.7237,2.7176,2.7139,2.7041,2.6943,2.6784,2.659,2.6408,2.6299,2.6311,2.6287,2.6335,2.643,3.5489,3.5489,3.5489,3.5489,3.5489,3.5489,3.5489,3.5489,3.5489,3.5489,3.5489,3.5549,3.5863,3.6522,3.7135,3.7719,3.8272,3.902,3.9328,3.9388,3.9388,3.9388,3.9388,3.9388,3.9388,3.9388,3.9373,3.9337,3.9141,3.8943,3.8833,3.8686,3.8352,3.8277,3.824,3.8202,3.8246,3.8507,3.8783,3.9015,3.887,3.8855,3.9044,3.871,3.8202,3.8202,3.8202,3.8202,3.8202,3.8202,3.8202,3.8115,3.8028,3.7897,3.7578,3.7215,3.6722,3.6142,3.5594,3.5012,3.464,3.4068,3.3937,3.3848,3.3813,3.3779,3.366,3.3626,3.3486,3.3382,3.3382,3.3486,3.3536,3.3347,3.3297,3.3213,3.3108,3.3072,3.3037,3.2966,3.2824,3.2574,3.2309,3.2164,3.2055,3.1886,3.1753,3.1556,3.1357,3.1185,3.1048,3.0861,3.0621,3.0152,2.9717,2.9679,2.9502,2.9451,2.9376,2.9177,2.88,2.8286,2.8125,2.8189,2.8002,2.778,2.7656,2.7715,2.7495,2.7324,2.7102,2.7015,2.6978,2.7002,2.7122]}]]